[[{"header":{"parameterUnit":"m.s-1","parameterCategory":1,"la1":30.6,"la2":28.766,"lo1":-90.7593,"lo2":-88.6598,"dy":0.0162,"dx":0.0183,"nx":116,"ny":114,"refTime":"2023-06-06T06:00:00:Z","depth":0,"parameterNumber":2,"parameterNumberName":"U-component_of_WINDS"},"data":[0.0,0.0,0.0,0.0,0.0,0.0,0.0,0.0,0.0,0.0,0.0,0.0,0.0,0.0,0.0,0.0,0.0,0.0,0.0,0.0,0.0,0.0,0.0,0.0,0.0,0.0,0.0,0.0,0.0,0.0,0.0,0.0,0.0,0.0,0.0,0.0,0.0,0.0,0.0,0.0,0.0,0.0,0.0,0.0,0.0,0.0,0.0,0.0,0.0,0.0,0.0,0.0,0.0,0.0,0.0,0.0,0.0,0.0,0.0,0.0,0.0,0.0,0.0,0.0,0.0,0.0,0.0,0.0,0.0,0.0,0.0,0.0,0.0,0.0,0.0,0.0,0.0,0.0,0.0,0.0,0.0,0.0,0.0,0.0,0.0,0.0,0.0,0.0,0.0,0.0,0.0,0.0,0.0,0.0,0.0,0.0,0.0,0.0,0.0,0.0,0.0,0.0,0.0,0.0,0.0,0.0,0.0,0.0,0.0,0.0,0.0,0.0,0.0,0.0,0.0,0.0,0.0,0.0,0.0,0.0,0.0,0.0,0.0,0.0,0.0,0.0,0.0,0.0,0.0,0.0,0.0,0.0,0.0,0.0,0.0,0.0,0.0,0.0,0.0,0.0,0.0,0.0,0.0,0.0,0.0,0.0,0.0,0.0,0.0,0.0,0.0,0.0,0.0,0.0,0.0,0.0,0.0,0.0,0.0,0.0,0.0,0.0,0.0,0.0,0.0,0.0,0.0,0.0,0.0,0.0,0.0,0.0,0.0,0.0,0.0,0.0,0.0,0.0,0.0,0.0,0.0,0.0,0.0,0.0,0.0,0.0,0.0,0.0,0.0,0.0,0.0,0.0,0.0,0.0,0.0,0.0,0.0,0.0,0.0,0.0,0.0,0.0,0.0,0.0,0.0,0.0,0.0,0.0,0.0,0.0,0.0,0.0,0.0,0.0,0.0,0.0,0.0,0.0,0.0,0.0,0.0,0.0,0.0,0.0,0.0,0.0,0.0,0.0,0.0,0.0,0.0,0.0,0.0,0.0,0.0,0.0,0.0,0.0,0.0,0.0,0.0,0.0,0.0,0.0,0.0,0.0,0.0,0.0,0.0,0.0,0.0,0.0,0.0,0.0,0.0,0.0,0.0,0.0,0.0,0.0,0.0,0.0,0.0,0.0,0.0,0.0,0.0,0.0,0.0,0.0,0.0,0.0,0.0,0.0,0.0,0.0,0.0,0.0,0.0,0.0,0.0,0.0,0.0,0.0,0.0,0.0,0.0,0.0,0.0,0.0,0.0,0.0,0.0,0.0,0.0,0.0,0.0,0.0,0.0,0.0,0.0,0.0,0.0,0.0,0.0,0.0,0.0,0.0,0.0,0.0,0.0,0.0,0.0,0.0,0.0,0.0,0.0,0.0,0.0,0.0,0.0,0.0,0.0,0.0,0.0,0.0,0.0,0.0,0.0,0.0,0.0,0.0,0.0,0.0,0.0,0.0,0.0,0.0,0.0,0.0,0.0,0.0,0.0,0.0,0.0,0.0,0.0,0.0,0.0,0.0,0.0,0.0,0.0,0.0,0.0,0.0,0.0,0.0,0.0,0.0,0.0,0.0,0.0,0.0,0.0,0.0,0.0,0.0,0.0,0.0,0.0,0.0,0.0,0.0,0.0,0.0,0.0,0.0,0.0,0.0,0.0,0.0,0.0,0.0,0.0,0.0,0.0,0.0,0.0,0.0,0.0,0.0,0.0,0.0,0.0,0.0,0.0,0.0,0.0,0.0,0.0,0.0,0.0,0.0,0.0,0.0,0.0,0.0,0.0,0.0,0.0,0.0,0.0,0.0,0.0,0.0,0.0,0.0,0.0,0.0,0.0,0.0,0.0,0.0,0.0,0.0,0.0,0.0,0.0,0.0,0.0,0.0,0.0,0.0,0.0,0.0,0.0,0.0,0.0,0.0,0.0,0.0,0.0,0.0,0.0,0.0,0.0,0.0,0.0,0.0,0.0,0.0,0.0,0.0,0.0,0.0,0.0,0.0,0.0,0.0,0.0,0.0,0.0,0.0,0.0,0.0,0.0,0.0,0.0,0.0,0.0,0.0,0.0,0.0,0.0,0.0,0.0,0.0,0.0,0.0,0.0,0.0,0.0,0.0,0.0,0.0,0.0,0.0,0.0,0.0,0.0,0.0,0.0,0.0,0.0,0.0,0.0,0.0,0.0,0.0,0.0,0.0,0.0,0.0,0.0,0.0,0.0,0.0,0.0,0.0,0.0,0.0,0.0,0.0,0.0,0.0,0.0,0.0,0.0,0.0,0.0,0.0,0.0,0.0,0.0,0.0,0.0,0.0,0.0,0.0,0.0,0.0,0.0,0.0,0.0,0.0,0.0,0.0,0.0,0.0,0.0,0.0,0.0,0.0,0.0,0.0,0.0,0.0,0.0,0.0,0.0,0.0,0.0,0.0,0.0,0.0,0.0,0.0,0.0,0.0,0.0,0.0,0.0,0.0,0.0,0.0,0.0,0.0,0.0,0.0,0.0,0.0,0.0,0.0,0.0,0.0,0.0,0.0,0.0,0.0,0.0,0.0,0.0,0.0,0.0,0.0,0.0,0.0,0.0,0.0,0.0,0.0,0.0,0.0,0.0,0.0,0.0,0.0,0.0,0.0,0.0,0.0,0.0,0.0,0.0,0.0,0.0,0.0,0.0,0.0,0.0,0.0,0.0,0.0,0.0,0.0,0.0,0.0,0.0,0.0,0.0,0.0,0.0,0.0,0.0,0.0,0.0,0.0,0.0,0.0,0.0,0.0,0.0,0.0,0.0,0.0,0.0,0.0,0.0,0.0,0.0,0.0,0.0,0.0,0.0,0.0,0.0,0.0,0.0,0.0,0.0,0.0,0.0,0.0,0.0,0.0,0.0,0.0,0.0,0.0,0.0,0.0,0.0,0.0,0.0,0.0,0.0,0.0,0.0,0.0,0.0,0.0,0.0,0.0,0.0,0.0,0.0,0.0,0.0,0.0,0.0,0.0,0.0,0.0,0.0,0.0,0.0,0.0,0.0,0.0,0.0,0.0,0.0,0.0,0.0,0.0,0.0,0.0,0.0,0.0,0.0,0.0,0.0,0.0,0.0,0.0,0.0,0.0,0.0,0.0,0.0,0.0,0.0,0.0,0.0,0.0,0.0,0.0,0.0,0.0,0.0,0.0,0.0,0.0,0.0,0.0,0.0,0.0,0.0,0.0,0.0,0.0,0.0,0.0,0.0,0.0,0.0,0.0,0.0,0.0,0.0,0.0,0.0,0.0,0.0,0.0,0.0,0.0,0.0,0.0,0.0,0.0,0.0,0.0,0.0,0.0,0.0,0.0,0.0,0.0,0.0,0.0,0.0,0.0,0.0,0.0,0.0,0.0,0.0,0.0,0.0,0.0,0.0,0.0,0.0,0.0,0.0,0.0,0.0,0.0,0.0,0.0,0.0,0.0,0.0,0.0,0.0,0.0,0.0,0.0,0.0,0.0,0.0,0.0,0.0,0.0,0.0,0.0,0.0,0.0,0.0,0.0,0.0,0.0,0.0,0.0,0.0,0.0,0.0,0.0,0.0,0.0,0.0,0.0,0.0,0.0,0.0,0.0,0.0,0.0,0.0,0.0,0.0,0.0,0.0,0.0,0.0,0.0,0.0,0.0,0.0,0.0,0.0,0.0,0.0,0.0,0.0,0.0,0.0,0.0,0.0,0.0,0.0,0.0,0.0,0.0,0.0,0.0,0.0,0.0,0.0,0.0,0.0,0.0,0.0,0.0,0.0,0.0,0.0,0.0,0.0,0.0,0.0,0.0,0.0,0.0,0.0,0.0,0.0,0.0,0.0,0.0,0.0,0.0,0.0,0.0,0.0,0.0,0.0,0.0,0.0,0.0,0.0,0.0,0.0,0.0,0.0,0.0,0.0,0.0,0.0,0.0,0.0,0.0,0.0,0.0,0.0,0.0,0.0,0.0,0.0,0.0,0.0,0.0,0.0,0.0,0.0,0.0,0.0,0.0,0.0,0.0,0.0,0.0,0.0,0.0,0.0,0.0,0.0,0.0,0.0,0.0,0.0,0.0,0.0,0.0,0.0,0.0,0.0,0.0,0.0,0.0,0.0,0.0,0.0,0.0,0.0,0.0,0.0,0.0,0.0,0.0,0.0,0.0,0.0,0.0,0.0,0.0,0.0,0.0,0.0,0.0,0.0,0.0,0.0,0.0,0.0,0.0,0.0,0.0,0.0,0.0,0.0,0.0,0.0,0.0,0.0,0.0,0.0,0.0,0.0,0.0,0.0,0.0,0.0,0.0,0.0,0.0,0.0,0.0,0.0,0.0,0.0,0.0,0.0,0.0,0.0,0.0,0.0,0.0,0.0,0.0,0.0,0.0,0.0,0.0,0.0,0.0,0.0,0.0,0.0,0.0,0.0,0.0,0.0,0.0,0.0,0.0,0.0,0.0,0.0,0.0,0.0,0.0,0.0,0.0,0.0,0.0,0.0,0.0,0.0,0.0,0.0,0.0,0.0,0.0,0.0,0.0,0.0,0.0,0.0,0.0,0.0,0.0,0.0,0.0,0.0,0.0,0.0,0.0,0.0,0.0,0.0,0.0,0.0,0.0,0.0,0.0,0.0,0.0,0.0,0.0,0.0,0.0,0.0,0.0,0.0,0.0,0.0,0.0,0.0,0.0,0.0,0.0,0.0,0.0,0.0,0.0,0.0,0.0,0.0,0.0,0.0,0.0,0.0,0.0,0.0,0.0,0.0,0.0,0.0,0.0,0.0,0.0,0.0,0.0,0.0,0.0,0.0,0.0,0.0,0.0,0.0,0.0,0.0,0.0,0.0,0.0,0.0,0.0,0.0,0.0,0.0,0.0,0.0,0.0,0.0,0.0,0.0,0.0,0.0,0.0,0.0,0.0,0.0,0.0,0.0,0.0,0.0,0.0,0.0,0.0,0.0,0.0,0.0,0.0,0.0,0.0,0.0,0.0,0.0,0.0,0.0,0.0,0.0,0.0,0.0,0.0,0.0,0.0,0.0,0.0,0.0,0.0,0.0,0.0,0.0,0.0,0.0,0.0,0.0,0.0,0.0,0.0,0.0,0.0,0.0,0.0,0.0,0.0,0.0,0.0,0.0,0.0,0.0,0.0,0.0,0.0,0.0,0.0,0.0,0.0,0.0,0.0,0.0,0.0,0.0,0.0,0.0,0.0,0.0,0.0,0.0,0.0,0.0,0.0,0.0,0.0,0.0,0.0,0.0,0.0,0.0,0.0,0.0,0.0,0.0,0.0,0.0,0.0,0.0,0.0,0.0,0.0,0.0,0.0,0.0,0.0,0.0,0.0,0.0,0.0,0.0,0.0,0.0,0.0,0.0,0.0,0.0,0.0,0.0,0.0,0.0,0.0,0.0,0.0,0.0,0.0,0.0,0.0,0.0,0.0,0.0,0.0,0.0,0.0,0.0,0.0,0.0,0.0,0.0,0.0,0.0,0.0,0.0,0.0,0.0,0.0,0.0,0.0,0.0,0.0,0.0,0.0,0.0,0.0,0.0,0.0,0.0,0.0,0.0,0.0,0.0,0.0,0.0,0.0,0.0,0.0,0.0,0.0,0.0,0.0,0.0,0.0,0.0,0.0,0.0,0.0,0.0,0.0,0.0,0.0,0.0,0.0,0.0,0.0,0.0,0.0,0.0,0.0,0.0,0.0,0.0,0.0,0.0,0.0,0.0,0.0,0.0,0.0,0.0,0.0,0.0,0.0,0.0,0.0,0.0,0.0,0.0,0.0,0.0,0.0,0.0,0.0,0.0,0.0,0.0,0.0,0.0,0.0,0.0,0.0,0.0,0.0,0.0,0.0,0.0,0.0,0.0,0.0,0.0,0.0,0.0,0.0,0.0,0.0,0.0,0.0,0.0,0.0,0.0,0.0,0.0,0.0,0.0,0.0,0.0,0.0,0.0,0.0,0.0,0.0,0.0,0.0,0.0,0.0,0.0,0.0,0.0,0.0,0.0,0.0,0.0,0.0,0.0,0.0,0.0,0.0,0.0,0.0,0.0,0.0,0.0,0.0,0.0,0.0,0.0,0.0,0.0,0.0,0.5615,0.0,0.0,0.0,0.0,0.0,0.0,0.0,0.0,0.0,0.0,0.0,0.0,0.0,0.0,0.0,0.0,0.0,0.0,0.0,0.0,0.0,0.0,0.0,0.0,0.0,0.0,0.0,0.0,0.0,0.0,0.0,0.0,0.0,0.0,0.0,0.0,0.0,0.0,0.7196,0.7105,0.7306,0.776,0.7494,0.729,0.7196,0.0,0.0,0.0,0.0,0.0,0.0,0.0,0.0,0.0,0.0,0.0,0.0,0.0,0.0,0.0,0.0,0.0,0.0,0.0,0.0,0.0,0.0,0.0,0.0,0.0,0.0,0.0,0.0,0.0,0.0,0.0,0.0,0.0,0.0,0.0,0.0,0.0,0.0,0.0,0.0,0.0,0.0,0.0,0.0,0.0,0.0,0.0,0.0,0.0,0.0,0.0,0.0,0.0,0.0,0.0,0.0,0.0,0.0,0.0,0.0,0.0,0.0,0.0,0.0,0.0,0.0,0.0,0.0,0.0,0.0,0.0,0.6126,0.0,0.0,0.0,0.0,0.0,0.0,0.0,0.0,0.0,0.0,0.0,0.0,0.0,0.0,0.0,0.0,0.0,0.0,0.0,0.0,0.0,0.0,0.0,0.435,0.4476,0.4793,0.5,0.5236,0.0,0.0,0.0,0.0,0.0,0.0,0.0,0.6901,0.707,0.7712,0.7787,0.8092,0.8685,0.8912,0.8813,0.837,0.8077,0.0,0.0,0.0,0.0,0.0,0.0,0.0,0.0,0.0,0.0,0.0,0.0,0.0,0.0,0.0,0.0,0.0,0.0,0.0,0.0,0.0,0.0,0.0,0.0,0.0,0.0,0.0,0.0,0.0,0.0,0.0,0.0,0.0,0.0,0.0,0.0,0.0,0.0,0.0,0.0,0.0,0.0,0.0,0.0,0.0,0.0,0.0,0.0,0.0,0.0,0.0,0.0,0.0,0.0,0.0,0.0,0.0,0.0,0.0,0.0,0.0,0.0,0.0,0.8326,0.8595,0.8731,0.8657,0.8657,0.8646,0.7661,0.7009,0.6633,0.6509,0.0,0.0,0.0,0.0,0.0,0.0,0.0,0.0,0.0,0.0,0.0,0.0,0.0,0.0,0.0,0.0,0.0,0.0,0.0,0.0,0.0,0.4571,0.4875,0.567,0.5713,0.5937,0.6481,0.0,0.0,0.0,0.0,0.0,0.6768,0.6992,0.7335,0.7712,0.8568,0.9277,0.9909,1.0482,1.088,1.1041,0.955,0.9257,0.9709,0.0,0.0,0.0,0.0,0.0,0.0,0.0,0.0,0.0,0.0,0.0,0.0,0.0,0.0,0.0,0.0,0.0,0.0,0.0,0.0,0.0,0.0,0.0,0.0,0.0,0.0,0.0,0.0,0.0,0.0,0.0,0.0,0.0,0.0,0.0,0.0,0.0,0.0,0.0,0.0,0.0,0.7677,0.7628,0.0,0.0,0.0,0.0,0.0,0.0,0.0,0.0,0.0,0.0,0.0,0.0,0.0,0.7909,0.8818,0.8845,0.8812,0.8828,0.9218,0.9211,0.8847,0.9007,0.9233,0.9432,0.927,0.0,0.7569,0.6945,0.0,0.0,0.0,0.0,0.0,0.0,0.0,0.0,0.0,0.0,0.0,0.0,0.0,0.0,0.0,0.0,0.0,0.0,0.0,0.0,0.0,0.4888,0.5222,0.6054,0.6451,0.6642,0.6683,0.6893,0.0,0.0,0.0,0.6689,0.7245,0.7027,0.7492,0.8708,0.9357,1.0275,1.1343,1.1706,1.2041,1.2318,1.1571,1.0785,1.0053,0.9307,0.0,0.0,0.0,0.0,0.0,0.0,0.0,0.0,0.0,0.0,0.0,0.0,0.0,0.0,0.0,0.0,0.0,0.0,0.0,0.0,0.0,0.0,0.0,0.0,0.0,0.0,0.0,0.0,0.0,0.0,0.0,0.0,0.0,0.0,0.0,0.0,0.0,0.0,0.0,0.8034,0.8194,0.8012,0.8312,0.8371,0.0,0.0,0.0,0.0,0.0,0.0,0.0,0.0,0.0,0.8207,0.8653,0.8972,0.9202,0.9501,0.963,0.973,1.0035,1.0132,1.0062,1.0304,1.0471,1.0568,1.0428,0.9997,0.9319,0.8334,0.7698,0.73,0.0,0.0,0.0,0.0,0.7074,0.7225,0.0,0.0,0.0,0.0,0.0,0.0,0.0,0.0,0.0,0.0,0.0,0.0,0.5268,0.5621,0.6104,0.6852,0.735,0.7523,0.7224,0.7341,0.7354,0.7194,0.6653,0.6732,0.7545,0.7428,0.8129,0.9775,1.0435,1.1398,1.2714,1.2999,1.3299,1.3536,1.3454,1.2528,1.0924,1.0177,0.9548,0.9014,0.0,0.0,0.0,0.0,0.0,0.0,0.0,0.0,0.0,0.0,0.0,0.0,0.0,0.0,0.0,0.0,0.0,0.0,0.0,0.0,0.0,0.0,0.0,0.0,0.0,0.0,0.0,0.0,0.0,0.0,0.0,0.0,0.0,0.0,0.0,0.0,0.0,0.8348,0.8633,0.8136,0.8868,0.9148,0.0,0.0,0.0,0.0,0.0,0.0,0.8775,0.9285,0.9436,0.8995,0.9811,1.005,0.9658,1.0207,1.0517,1.0568,1.0735,1.0907,1.1085,1.1268,1.1262,1.1251,1.1155,1.0977,1.0729,0.9534,0.8732,0.8226,0.793,0.7736,0.765,0.7833,0.8011,0.821,0.0,0.0,0.0,0.0,0.0,0.0,0.0,0.0,0.0,0.0,0.0,0.528,0.5885,0.697,0.7916,0.8518,0.856,0.8567,0.8609,0.7456,0.6885,0.7174,0.6859,0.6859,0.7216,0.844,0.9563,1.0514,1.178,1.2899,1.3947,1.4501,1.497,1.527,1.4955,1.4267,1.3199,1.1333,1.0865,1.1269,0.9065,0.0,0.0,0.0,0.0,0.0,0.0,0.0,0.0,0.0,0.0,0.0,0.0,0.0,0.0,0.0,0.0,0.0,0.0,0.0,0.0,0.0,0.0,0.0,0.0,0.0,0.0,0.0,0.0,0.0,0.0,0.0,0.0,0.0,0.0,0.0,0.0,0.0,0.0,0.7851,0.9109,0.0,0.0,0.0,0.0,0.9131,1.0523,1.0739,0.907,1.0268,1.0677,0.99,1.0589,1.0963,1.0896,1.1139,1.1273,1.1209,1.1225,1.1235,1.1246,1.1257,1.1262,1.1262,1.1251,1.1241,1.1225,1.0035,0.9523,0.9443,0.8974,0.8915,0.9098,0.9114,0.9125,0.9136,0.0,0.0,0.0,0.0,0.0,0.0,0.0,0.0,0.4123,0.4441,0.5039,0.5876,0.701,0.7907,0.8833,0.9855,0.9901,0.9742,0.9321,0.869,0.8183,0.7874,0.7312,0.7345,0.8098,0.9228,1.0448,1.1831,1.2928,1.385,1.4611,1.505,1.5321,1.5431,1.5526,1.5145,1.4326,1.2797,1.1919,1.1483,0.9768,0.8875,0.0,0.0,0.0,0.0,0.0,0.0,0.0,0.0,0.0,0.0,0.0,0.0,0.0,0.0,0.0,0.0,0.0,0.0,0.0,0.0,0.0,0.0,0.0,0.0,0.0,0.0,0.0,0.0,0.0,0.0,0.0,0.0,0.0,0.0,0.0,0.0,0.0,0.9914,1.1114,0.0,1.0498,1.1071,1.1101,1.0074,1.0929,1.1158,1.0266,1.11,1.1393,1.1052,1.1456,1.1747,1.1903,1.1833,1.1881,1.2032,1.1876,1.172,1.158,1.1731,1.1715,1.1585,1.1736,1.1715,1.1542,1.1117,1.067,1.0229,0.9906,0.9733,0.9685,0.9846,0.9997,1.0148,0.0,0.0,0.0,0.0,0.0,0.0,0.0,0.0,0.4117,0.4686,0.5505,0.6577,0.799,0.9075,1.0099,1.1011,1.088,1.047,0.9819,0.9083,0.8504,0.8055,0.7823,0.8165,0.908,1.0198,1.1494,1.3016,1.3879,1.4582,1.5027,1.5328,1.5489,1.5599,1.5701,1.5687,1.5511,1.4326,1.3199,1.2087,1.0675,0.9994,0.9687,0.0,0.0,0.0,0.0,0.0,0.0,0.0,0.0,0.0,0.0,0.0,0.0,0.0,0.0,0.0,0.0,0.0,0.0,0.0,0.0,0.0,0.0,0.0,0.0,0.0,0.0,0.0,0.0,0.0,0.0,0.0,0.0,0.0,0.0,0.0,1.0947,1.1345,1.2218,1.2521,1.1834,1.2029,1.1879,1.0979,1.1757,1.187,1.1213,1.1883,1.219,1.1806,1.2124,1.2291,1.2291,1.221,1.221,1.2291,1.2124,1.1968,1.1822,1.1978,1.1962,1.1822,1.1898,1.1844,1.1693,1.1612,1.1305,1.0781,1.0713,1.0552,1.0423,1.0589,1.0746,1.0896,0.0,0.0,0.0,0.0,0.0,0.0,0.0,0.3705,0.4041,0.4986,0.6168,0.7419,0.8679,1.0502,1.1706,1.2036,1.1458,1.0799,1.0155,0.8601,0.7736,0.7714,0.837,0.9175,1.0141,1.1421,1.2716,1.4026,1.4662,1.5131,1.5445,1.5445,1.5621,1.5913,1.5613,1.5994,1.6813,1.5891,1.4765,1.3455,1.1809,1.1509,1.1731,0.0,0.0,0.0,0.0,0.0,0.0,0.0,0.0,0.0,0.0,0.0,0.0,0.0,0.0,0.0,0.0,0.0,0.0,0.0,0.0,0.0,0.0,0.0,0.0,0.0,0.0,0.0,0.0,0.0,0.0,0.0,0.0,0.0,0.9506,1.0694,1.1662,1.2029,1.2197,1.238,1.2364,1.2527,1.2438,1.1862,1.2905,1.3021,1.1809,1.2791,1.2944,1.2167,1.2522,1.2538,1.2167,1.2307,1.2307,1.2162,1.2162,1.2156,1.2151,1.2162,1.2156,1.214,1.1828,1.1731,1.1704,1.1478,1.1294,1.1283,1.1273,1.1273,1.1278,1.1278,1.1278,1.1273,0.0,0.0,0.0,0.0,0.0,0.0,0.0,0.3705,0.4108,0.5233,0.65,0.7895,0.9552,1.1017,1.2131,1.2694,1.1721,1.0894,1.0485,0.8938,0.8171,0.8414,0.9036,0.9991,1.1472,1.2548,1.3733,1.5035,1.5445,1.5694,1.5782,1.5782,1.5943,1.625,1.6396,1.674,1.7201,1.7165,1.6682,1.5752,1.3667,1.2511,1.1889,0.0,0.0,0.0,0.0,0.0,0.0,0.0,0.0,0.0,0.0,0.0,0.0,0.0,0.0,0.0,0.0,0.0,0.0,0.0,0.0,0.0,0.0,0.0,0.0,0.0,0.0,0.0,0.0,0.0,0.0,0.0,0.0,1.0921,1.1241,1.1481,1.2056,1.3201,1.3483,1.343,1.2948,1.3386,1.3252,1.2115,1.2771,1.2939,1.2204,1.2527,1.2647,1.2565,1.2694,1.27,1.2571,1.2635,1.2635,1.2565,1.2565,1.2479,1.2318,1.249,1.2474,1.2318,1.2425,1.2377,1.2215,1.2145,1.2016,1.1822,1.1483,1.1456,1.1602,1.1602,1.1602,1.158,0.0,0.0,0.0,0.0,0.0,0.0,0.0,0.3705,0.4177,0.5535,0.6684,0.8044,0.9715,1.0938,1.1787,1.2167,1.126,1.0477,1.0024,0.8999,0.867,0.9255,1.0031,1.1202,1.2811,1.3675,1.467,1.5818,1.6009,1.6104,1.6104,1.6104,1.6345,1.6769,1.6828,1.7106,1.7538,1.7589,1.7399,1.693,1.5482,1.4406,1.3514,1.2131,1.145,1.1143,1.0433,1.0228,1.0221,0.9672,0.0,0.0,0.0,0.0,0.0,0.0,0.0,0.0,0.0,0.0,0.0,0.0,0.0,0.0,0.0,0.0,0.0,0.0,0.0,0.0,0.0,0.0,0.0,0.0,1.0858,1.188,1.2735,1.2388,1.2632,1.3965,1.365,1.343,1.345,1.3554,1.3269,1.2438,1.272,1.288,1.2554,1.2651,1.2764,1.2904,1.3007,1.3066,1.3066,1.2958,1.2904,1.2904,1.2807,1.2694,1.2565,1.27,1.2689,1.2565,1.2603,1.2538,1.2404,1.2307,1.2178,0.0,0.0,0.0,0.0,0.0,1.1639,1.1532,0.0,0.0,0.0,0.0,0.0,0.0,0.0,0.3705,0.4246,0.5712,0.6743,0.7914,0.9358,1.0382,1.0982,1.1019,1.0389,0.9746,0.916,0.8912,0.9233,1.0221,1.1238,1.2504,1.4055,1.4721,1.5504,1.6426,1.6426,1.644,1.6477,1.6477,1.6821,1.7428,1.7143,1.7377,1.7962,1.7706,1.7582,1.753,1.7282,1.6696,1.5774,1.3967,1.3397,1.3397,1.2204,1.1428,1.0953,1.0843,0.0,0.0,0.0,0.0,0.0,0.0,0.0,0.0,0.0,0.0,0.0,0.0,0.0,0.0,0.0,0.0,0.0,0.0,0.0,0.0,0.0,0.0,0.0,0.0,1.184,1.2244,1.3707,1.3188,1.3109,1.4303,1.3268,1.2819,1.3692,1.3141,1.2764,1.2764,1.2786,1.2802,1.2802,0.0,0.0,0.0,0.0,1.3502,1.348,1.3254,1.312,1.3066,1.2883,1.2786,1.2764,1.2786,1.2786,1.2754,1.2544,1.2457,1.2436,1.2221,1.2221,1.2216,1.2162,1.2064,1.2059,1.1795,1.1585,1.1337,0.0,0.0,0.0,0.0,0.0,0.0,0.0,0.3635,0.4084,0.5219,0.6317,0.748,0.874,0.9716,1.0397,1.066,0.987,0.919,0.8809,0.919,0.9987,1.1224,1.246,1.3638,1.4735,1.5394,1.6067,1.6762,1.6762,1.6894,1.7143,1.7143,1.7486,1.8108,1.805,1.8386,1.9008,1.9206,1.914,1.8913,1.9118,1.8028,1.6184,1.5299,1.4516,1.3821,1.3309,1.3206,1.3206,1.2416,1.2372,1.2475,1.1428,1.0697,0.0,0.0,0.0,0.0,0.0,0.0,0.0,0.0,0.0,0.0,0.0,0.0,0.0,0.0,0.0,0.0,0.0,0.0,0.0,1.1138,1.1847,1.2505,1.3219,1.3331,1.3439,1.3579,1.3048,1.2807,1.2948,1.2856,1.2764,1.2764,1.2931,1.3039,1.3039,1.327,1.3491,1.3674,1.3728,1.3663,1.348,1.3432,1.3211,1.2829,0.0,0.0,1.277,1.2953,1.2937,1.2759,1.2716,1.2694,1.2689,1.2646,1.2624,1.2587,1.2292,1.2167,1.2291,1.186,1.179,1.186,0.0,0.0,0.0,0.0,0.0,0.0,0.0,0.3565,0.3998,0.5072,0.5726,0.6591,0.7816,0.8569,0.899,0.9146,0.8868,0.8824,0.9131,0.9899,1.0997,1.2467,1.3616,1.467,1.5635,1.6294,1.6777,1.7091,1.7421,1.7574,1.7574,1.7735,1.8072,1.8547,1.8547,1.8818,1.9286,1.9447,1.952,1.952,1.952,1.8935,1.7977,1.7172,1.6265,1.5379,1.505,1.4735,1.4362,1.3711,1.3389,1.314,1.2489,1.1728,1.0946,0.0,0.0,0.0,0.0,0.0,0.0,0.0,0.0,0.0,0.0,0.0,0.0,0.0,0.0,1.0484,0.0,0.0,1.117,1.2326,1.2753,1.3066,1.341,1.3572,1.3572,1.3484,1.3128,1.2931,1.2931,1.2829,1.2813,1.2926,1.3039,1.3104,1.3104,1.3572,1.383,1.382,1.4051,1.4121,1.4008,1.3658,1.3357,1.312,1.2996,1.2872,1.2764,1.2883,1.2872,1.2764,1.2764,1.2764,1.2764,1.2764,1.2764,1.2727,1.2083,1.2045,1.2188,1.1557,1.1337,1.1206,0.0,0.0,0.0,0.0,0.0,0.0,0.0,0.3467,0.3846,0.4836,0.5097,0.5639,0.6698,0.7223,0.7532,0.7597,0.799,0.8674,0.9738,1.0719,1.1984,1.3616,1.4611,1.5518,1.6352,1.6938,1.7267,1.7326,1.7918,1.8108,1.7918,1.8247,1.8569,1.8884,1.8884,1.903,1.9279,1.9345,1.9557,1.9835,1.9638,1.9674,1.9762,1.8913,1.794,1.6982,1.6528,1.5716,1.4831,1.4699,1.4004,1.3221,1.3345,1.276,1.1831,1.0661,1.0234,0.0,0.0,0.0,0.0,0.0,0.0,0.0,0.0,0.0,0.9882,1.0938,1.1132,1.1449,1.2367,1.2365,1.2587,1.3686,1.3689,1.3626,1.3863,1.3852,1.375,1.3566,1.3287,1.3125,1.3173,1.2964,1.2926,1.3157,1.3217,1.3265,1.3313,1.3873,1.4143,1.4029,1.4401,1.4579,1.4536,1.3927,1.3572,1.3475,1.3039,1.2807,1.2764,1.2807,1.2807,1.2764,1.2764,1.2764,1.2764,1.2667,1.2662,1.2543,1.1738,1.163,1.181,1.1131,1.0776,1.0563,0.0,0.0,0.0,0.0,0.0,0.0,0.0,0.0,0.3635,0.3986,0.4564,0.508,0.5402,0.6092,0.6736,0.7219,0.7829,0.8841,1.0397,1.1385,1.2658,1.4289,1.5292,1.5979,1.636,1.6726,1.7047,1.7326,1.7691,1.7999,1.8255,1.8584,1.8913,1.922,1.922,1.9242,1.9294,1.9586,1.9894,2.0208,2.0457,2.0406,2.0142,1.9747,1.8811,1.7589,1.6689,1.557,1.4604,1.5138,1.4677,1.3975,1.4545,1.426,1.339,1.172,1.0662,0.9656,0.818,0.777,0.8172,0.9701,0.9719,0.9804,0.0,0.0,1.1735,1.2605,1.2565,1.2511,1.2681,1.2763,1.2883,1.3447,1.3631,1.3868,1.4116,1.3959,1.3809,1.3787,1.3383,1.319,1.3416,1.3211,1.3168,1.3421,1.3626,1.3836,1.4062,1.4153,1.4369,1.4751,1.4815,1.4745,1.4536,1.4256,1.39,1.3475,1.32,1.2958,1.277,1.2974,1.2958,1.2764,1.2764,1.2764,1.2764,1.2273,1.2078,1.2052,1.1163,1.0877,1.0924,1.0612,1.0641,1.0665,0.0,0.0,0.0,0.0,0.0,0.0,0.0,0.0,0.0,0.3853,0.4003,0.4326,0.4913,0.5506,0.6086,0.6632,0.7293,0.842,1.0194,1.137,1.2767,1.4399,1.557,1.6235,1.6367,1.7055,1.7384,1.7326,1.8035,1.8357,1.8313,1.8833,1.9147,1.9279,1.9279,1.9381,1.9579,1.9901,2.0223,2.0545,2.0874,2.0698,2.0055,1.9041,1.7775,1.6485,1.5526,1.4705,0.0,1.3536,1.33,1.3236,1.3712,1.3351,1.253,1.1028,1.0335,0.9984,0.9419,0.9278,0.934,0.0,1.0475,1.1027,1.1882,1.2081,1.2244,1.3229,1.31,1.3014,1.3309,1.3344,1.3491,0.0,1.3976,1.4073,1.418,1.3863,1.362,1.362,1.3077,1.2904,1.3427,1.3249,1.3265,1.3647,1.3766,1.3868,1.397,1.4239,1.4417,1.4482,1.4745,1.4837,1.474,1.4509,1.4223,1.389,1.3642,1.3324,1.2964,1.306,1.3055,1.2953,1.2818,1.2639,1.2454,1.2129,1.1785,1.1482,1.0807,1.0581,1.0545,1.0224,1.0166,1.013,0.0,0.0,0.0,0.0,0.0,0.0,0.0,0.0,0.0,0.0,0.3597,0.3821,0.4596,0.4964,0.5424,0.6009,0.6639,0.7847,0.9771,1.1067,1.256,1.4267,1.5474,1.6191,1.6367,1.723,1.756,1.7326,1.8313,1.8621,1.8321,1.8972,1.9279,1.9279,1.9279,1.9403,1.9645,1.9872,2.0106,2.0347,2.0581,2.0281,1.9481,1.8024,1.6521,1.5056,1.4204,1.3251,1.2444,1.1784,1.157,1.1667,1.2216,1.2054,1.1368,1.0206,0.9787,0.973,0.9943,1.0117,1.0197,1.0394,1.1209,1.1992,1.2135,1.2281,1.2663,1.3543,1.3485,1.3405,1.3755,1.382,1.3879,1.4062,1.4089,1.4089,1.4089,1.368,1.3351,1.3292,1.2711,1.2544,1.313,1.3082,1.3238,1.3782,1.3884,1.3949,1.4013,1.4347,1.4487,1.4385,1.4649,1.4853,1.4982,1.4622,1.439,1.4283,1.3906,1.3545,1.3206,1.3206,1.3105,1.2989,1.2761,1.2454,1.2089,1.1673,1.1292,1.09,1.0413,1.0216,1.0181,0.981,0.9708,0.9712,0.0,0.0,0.0,0.0,0.0,0.0,0.0,0.0,0.0,0.0,0.0,0.0,0.0,0.4356,0.4673,0.5469,0.6028,0.7185,0.9169,1.0453,1.1966,1.3931,1.4933,1.5745,1.636,1.7011,1.7333,1.7326,1.8313,1.8621,1.8321,1.8972,1.9279,1.9279,1.9279,1.9279,1.9294,1.9301,1.9308,1.9323,1.933,1.8942,1.8218,1.693,1.5389,1.3838,1.2802,1.1434,1.003,1.0425,0.9953,0.9345,1.0279,1.0531,1.0378,0.9716,0.8903,0.8397,0.8965,0.9371,0.9925,1.1266,1.1821,1.2227,1.2699,1.2899,1.3206,1.3685,1.3793,1.3803,1.382,1.382,1.382,1.383,1.383,1.383,1.383,1.3421,1.3034,1.2813,1.2355,1.2161,0.0,1.2646,1.3066,1.3766,1.4046,1.4277,1.4503,1.4525,1.4638,1.4853,1.4659,1.4772,1.5235,1.4552,1.4315,1.4514,1.382,1.348,1.347,1.347,1.3157,1.2622,1.239,1.1998,1.1501,1.0789,1.0413,1.0413,0.9821,0.9628,0.9628,0.9616,0.9612,0.9612,0.0,0.0,0.0,0.0,0.0,0.0,0.0,0.0,0.0,0.0,0.0,0.0,0.0,0.0,0.0,0.0,0.5045,0.5981,0.7481,0.9009,1.0457,1.178,1.3697,1.4889,1.5101,1.6148,1.6689,1.6689,1.7276,1.7594,1.7404,1.7938,1.8232,1.8333,1.8333,1.8434,1.8642,1.8862,1.895,1.8935,1.8304,1.7633,1.6802,1.4276,1.2369,1.088,0.0,0.8433,0.841,0.7919,0.7717,0.7753,0.8305,0.8321,0.8108,0.7927,0.8008,0.8385,0.9597,1.029,1.0945,1.1909,1.2563,1.3082,1.3394,1.3653,1.3782,1.3626,1.334,1.3023,1.27,1.2646,1.27,1.2861,1.3287,1.3593,1.3593,1.3308,1.2958,1.2576,1.2108,0.0,0.0,0.0,0.0,1.3313,1.3717,1.4051,1.4299,1.4309,1.4487,1.4875,1.481,1.4923,1.5246,1.5015,1.4853,1.4756,1.389,1.348,1.347,1.2908,1.2608,1.253,1.2005,1.159,1.1178,1.0644,1.0216,0.9826,0.9628,0.9628,0.9628,0.9628,0.9628,0.9628,0.0,0.0,0.0,0.0,0.0,0.0,0.0,0.0,0.0,0.0,0.0,0.0,0.0,0.0,0.0,0.0,0.0,0.5134,0.6119,0.7595,0.8863,0.9853,1.171,1.2774,1.2984,1.3944,1.4402,1.4402,1.5268,1.5627,1.5542,1.6394,1.689,1.6992,1.7099,1.7301,1.7698,1.7792,1.7536,1.7088,1.6295,1.5328,1.3998,1.164,0.9911,0.0,0.6794,0.6339,0.6574,0.6081,0.6034,0.6271,0.6597,0.6849,0.7111,0.7188,0.7933,0.9048,1.029,1.1252,1.2048,1.285,1.3459,1.3873,1.3938,1.3943,1.3803,1.3324,1.284,1.2361,1.1887,1.1725,1.1747,1.1995,1.249,1.2904,1.3071,1.2958,1.2748,1.2452,1.2145,1.1951,0.0,0.0,0.0,1.2969,1.3502,1.3927,1.418,1.4352,1.4616,1.5004,1.4929,1.5004,1.5246,1.5079,1.4875,1.4627,1.3933,1.3599,1.3599,1.2823,1.2377,1.2319,1.16,1.0977,1.0553,1.0241,0.992,0.9628,0.9628,0.9628,0.9628,0.9628,0.9628,0.9628,0.0,0.0,0.0,0.0,0.0,0.0,0.0,0.0,0.0,0.0,0.0,0.0,0.0,0.0,0.0,0.0,0.0,0.0,0.519,0.6247,0.724,0.822,0.8964,0.9625,1.0196,1.0571,1.0729,1.0729,1.2335,1.2983,1.281,1.4406,1.5141,1.5155,1.5444,1.5821,1.6249,1.5963,1.505,1.387,1.3546,1.2105,1.0111,0.9095,0.8117,0.7156,0.5964,0.5136,0.4622,0.4907,0.5023,0.5084,0.5236,0.6259,0.7425,0.7471,0.8701,1.014,1.1096,1.2129,1.3071,1.3986,1.4374,1.4471,1.4218,1.3798,1.3308,1.278,1.2291,1.1801,0.0,0.0,1.1009,1.1171,1.1553,1.1919,1.2382,1.2474,1.2479,0.0,0.0,0.0,0.0,0.0,0.0,1.278,0.0,1.3922,1.4196,1.4627,1.4988,1.5257,1.5031,1.5015,1.5246,1.4762,1.4401,1.4169,1.3911,1.3782,1.3677,1.3146,1.2506,1.1686,1.1078,1.0391,0.9872,0.9697,0.9628,0.9628,0.9628,0.9628,0.9628,0.9628,0.9628,0.9628,0.0,0.0,0.0,0.0,0.0,0.0,0.0,0.0,0.0,0.0,0.0,0.0,0.0,0.0,0.0,0.0,0.0,0.0,0.4104,0.5172,0.5923,0.631,0.7817,0.871,0.8897,0.9675,1.0083,1.0083,1.0591,1.0805,1.0742,1.1238,1.1544,1.1691,1.1761,1.1974,1.2249,1.2183,1.1945,1.1553,1.0573,0.9838,0.9151,0.7233,0.6347,0.601,0.5,0.4529,0.4424,0.4843,0.0,0.0,0.0,0.6949,0.7822,0.8754,0.9954,1.1189,1.2304,1.3357,1.4143,1.4385,1.4492,1.4379,1.3798,1.3421,1.2861,1.1682,1.0895,1.019,0.0,0.0,0.0,1.0445,1.165,0.0,1.2888,1.3233,0.0,0.0,0.0,1.2861,1.2689,1.2883,0.0,0.0,1.3357,1.3825,1.4417,1.4557,1.4896,1.5494,1.5278,1.5187,1.5252,1.4606,1.4159,1.3911,1.3486,1.3084,1.2674,1.2176,1.1541,1.0981,1.0416,1.0087,0.9872,0.9697,0.9628,0.9628,0.9628,0.9628,0.9628,0.9628,0.9628,0.9628,0.0,0.0,0.0,0.0,0.0,0.0,0.0,0.0,0.0,0.0,0.0,0.0,0.0,0.0,0.0,0.0,0.0,0.0,0.0,0.4369,0.4842,0.5046,0.6024,0.6593,0.6593,0.7132,0.7389,0.7389,0.7925,0.8159,0.817,0.8838,0.9191,0.9325,0.9438,0.9675,1.0033,0.991,0.9591,0.0,0.0,0.7567,0.6783,0.5572,0.507,0.5027,0.4471,0.4704,0.0,0.0,0.0,0.7091,0.7585,0.8324,0.9185,1.0326,0.0,1.2448,1.3383,1.4202,1.4826,1.4713,1.4536,1.4143,1.3222,1.248,1.1621,1.0322,0.9386,0.0,0.0,0.0,0.0,0.0,0.0,0.0,1.2592,1.3141,1.3448,0.0,1.3357,0.0,1.3238,1.334,1.3464,0.0,1.361,1.3852,1.4358,1.4482,1.4815,1.5429,1.5322,1.5198,1.509,1.4385,1.3959,1.3814,1.3335,1.2804,1.2299,1.1707,1.1162,1.058,0.0,0.977,0.9766,0.9669,0.9628,0.9628,0.9628,0.9628,0.9628,0.9628,0.9628,0.9628,0.0,0.0,0.0,0.0,0.0,0.0,0.0,0.0,0.0,0.0,0.0,0.0,0.0,0.0,0.0,0.0,0.0,0.0,0.0,0.0,0.4069,0.4308,0.4316,0.4316,0.4316,0.4316,0.4316,0.4316,0.5181,0.5591,0.5649,0.6849,0.7417,0.7428,0.7695,0.8022,0.8445,0.8161,0.7533,0.6697,0.639,0.5491,0.4316,0.0,0.4316,0.4316,0.4316,0.5136,0.0,0.0,0.7599,0.827,0.9185,1.009,1.1097,1.2,1.2909,1.3723,1.4207,1.4805,1.5225,1.4912,1.4514,1.3857,1.247,1.1315,1.0181,0.8842,0.0,0.754,0.7603,0.8032,0.8538,0.9179,0.0,1.1548,1.2108,1.2743,1.326,1.354,1.375,1.3868,1.3868,1.3895,1.4008,1.4223,1.404,1.4008,1.4229,1.4428,1.4756,1.5235,1.5219,1.5085,1.4842,1.4132,1.3755,1.3717,1.3169,1.2657,1.2154,1.1554,1.0961,1.0314,0.9826,0.9628,0.9628,0.9628,0.9628,0.9628,0.9628,0.9628,0.9628,0.9628,0.9628,0.9628,0.0,0.0,0.0,0.0,0.0,0.0,0.0,0.0,0.0,0.0,0.3208,0.3208,0.0,0.0,0.0,0.0,0.0,0.0,0.0,0.0,0.0,0.4303,0.4316,0.4316,0.4316,0.4316,0.4316,0.4316,0.4466,0.454,0.4589,0.4824,0.4918,0.4918,0.495,0.5032,0.511,0.5074,0.4927,0.477,0.4739,0.4532,0.4316,0.4316,0.0,0.0,0.4316,0.0,0.0,0.7157,0.8725,1.0237,1.098,1.1919,1.279,1.3554,1.4105,1.4455,1.4934,1.53,1.5386,1.4756,1.4396,1.3624,1.1577,1.0673,0.0,0.0,0.7203,0.6968,0.712,0.7575,0.0,0.9617,0.0,0.0,0.0,0.0,1.3577,0.0,0.0,0.0,0.0,0.0,0.0,0.0,0.0,1.4428,1.4471,1.4514,1.4756,1.5235,1.5052,1.4832,1.46,1.3895,1.3432,1.3222,1.2553,1.1933,1.1344,1.0852,1.0246,0.9727,0.9628,0.0,0.9628,0.9628,0.9628,0.9628,0.9628,0.9628,0.9628,0.9628,0.9628,0.9628,0.0,0.0,0.0,0.0,0.0,0.0,0.0,0.3462,0.3397,0.3208,0.3208,0.3208,0.3208,0.3208,0.3208,0.0,0.0,0.0,0.0,0.0,0.0,0.0,0.4316,0.4316,0.4316,0.4316,0.4316,0.4316,0.0,0.4316,0.4316,0.4316,0.4316,0.4316,0.4316,0.4316,0.4316,0.4316,0.4316,0.4316,0.4316,0.4316,0.4316,0.0,0.0,0.0,0.0,0.0,0.0,0.6695,0.8503,1.0492,1.1871,1.2813,1.3615,1.4342,1.4719,1.4982,1.5338,1.5515,1.5424,1.4713,1.4078,1.313,1.1059,0.0,0.0,0.0,0.6613,0.6383,0.6799,0.0,0.0,0.0,0.0,0.0,0.0,0.0,0.0,0.0,0.0,0.0,0.0,0.0,0.0,0.0,0.0,1.4536,1.4536,1.4649,1.4821,1.5052,1.5068,1.4842,1.4363,1.3895,1.347,1.3098,1.2376,1.1683,1.1194,1.0609,1.0117,0.9628,0.9628,0.9628,0.9628,0.9628,0.9628,0.9628,0.9628,0.9628,0.9628,0.9628,0.9628,0.9628,0.0,0.0,0.0,0.0,0.0,0.0,0.0,0.3429,0.3495,0.3241,0.3208,0.3208,0.3208,0.3208,0.3208,0.0,0.0,0.0,0.0,0.0,0.0,0.0,0.0,0.0,0.0,0.0,0.0,0.0,0.4316,0.0,0.0,0.0,0.0,0.0,0.4316,0.4316,0.4316,0.4316,0.4316,0.0,0.0,0.4316,0.0,0.0,0.0,0.0,0.0,0.0,0.0,0.0,0.755,0.9468,1.1271,1.2667,1.3846,1.4352,1.4821,1.5225,1.5461,1.5521,1.5354,1.4632,1.3701,1.2474,1.0552,0.9181,0.0,0.0,0.6218,0.6073,0.6663,0.0,0.0,0.0,0.0,0.0,0.0,0.0,0.0,0.0,0.0,0.0,0.0,0.0,0.0,0.0,0.0,0.0,1.4606,1.4832,1.4939,1.4885,1.5068,1.4832,1.4121,1.3868,1.3507,1.3028,1.2356,1.1683,1.1194,1.0609,1.0117,0.9628,0.9628,0.9628,0.9628,0.9628,0.9628,0.9628,0.9628,0.9628,0.9628,0.9628,0.9628,0.9632,0.0,0.0,0.0,0.0,0.0,0.0,0.0,0.3241,0.3241,0.3208,0.3208,0.3208,0.3208,0.3208,0.3208,0.0,0.0,0.0,0.0,0.0,0.0,0.0,0.0,0.0,0.0,0.0,0.0,0.0,0.0,0.0,0.0,0.0,0.0,0.0,0.0,0.0,0.4316,0.4316,0.0,0.0,0.0,0.0,0.0,0.0,0.0,0.0,0.0,0.0,0.0,0.0,0.0,0.6973,0.822,1.0851,1.348,1.3319,0.0,0.0,1.5219,1.5284,1.5106,1.4379,1.3335,1.1941,1.0021,0.0,0.0,0.6495,0.6209,0.6325,0.6864,0.7193,0.7768,0.8727,0.9292,1.0126,0.0,0.0,0.0,0.0,0.0,0.0,0.0,0.0,0.0,0.0,0.0,0.0,1.4842,1.5085,1.5117,1.4891,1.4907,1.4573,1.3857,1.3626,1.327,1.2791,1.2283,1.1683,1.1194,1.0609,1.0117,0.9628,0.9628,0.9628,0.0,0.9628,0.9628,0.9628,0.9628,0.9628,0.9628,0.9628,0.9628,0.9648,0.0,0.0,0.0,0.0,0.0,0.0,0.318,0.3208,0.3208,0.3208,0.3208,0.3208,0.3208,0.3208,0.3208,0.3208,0.0,0.0,0.0,0.0,0.0,0.0,0.0,0.0,0.0,0.0,0.0,0.4316,0.0,0.0,0.0,0.0,0.0,0.0,0.0,0.0,0.0,0.0,0.0,0.0,0.0,0.0,0.0,0.0,0.0,0.0,0.0,0.0,0.0,0.0,0.0,0.0,0.6196,0.8164,0.0,0.0,1.2801,1.3814,1.4772,1.5031,1.4859,1.4137,1.2964,1.1585,0.9909,0.0,0.7712,0.6889,0.6593,0.6623,0.6989,0.7141,0.7372,0.8089,0.8382,0.9007,0.0,0.0,0.0,0.0,0.0,0.0,0.0,0.0,0.0,0.0,0.0,0.0,1.4875,1.4842,1.4842,1.4885,1.4745,1.4331,1.362,1.3523,1.3238,1.2764,1.1883,1.1389,1.1194,1.0314,0.9826,0.9628,0.9628,0.9628,0.0,0.9628,0.9628,0.9628,0.9628,0.9628,0.9628,0.9628,0.9295,0.8974,0.0,0.0,0.0,0.0,0.0,0.2962,0.318,0.3208,0.3208,0.3208,0.3208,0.3208,0.3208,0.3208,0.3208,0.3208,0.3208,0.0,0.0,0.0,0.0,0.0,0.0,0.0,0.0,0.0,0.4316,0.4316,0.4316,0.0,0.0,0.0,0.0,0.0,0.0,0.0,0.0,0.0,0.0,0.0,0.0,0.0,0.0,0.0,0.0,0.0,0.0,0.0,0.0,0.0,0.0,0.0,0.0,0.0,0.7736,0.0,1.1388,1.2716,1.3927,1.4412,1.4433,1.3863,1.2544,1.1069,0.0,0.0,0.758,0.7171,0.6977,0.6869,0.7085,0.7118,0.7239,0.7704,0.7919,0.8458,0.9739,0.0,0.0,0.0,0.0,0.0,0.0,0.0,0.0,0.0,0.0,0.0,1.4864,1.46,1.4541,1.4772,1.4622,1.4196,1.3486,1.348,1.3238,1.2764,1.1878,1.1389,1.1194,1.0216,0.9723,0.9628,0.9628,0.9628,0.0,0.9628,0.9628,0.9628,0.9628,0.9661,0.9705,0.9406,0.9008,0.8618,0.0,0.0,0.0,0.0,0.0,0.0,0.318,0.3208,0.3208,0.3208,0.3208,0.3208,0.3208,0.3208,0.3208,0.3208,0.3208,0.0,0.0,0.0,0.0,0.0,0.0,0.0,0.0,0.0,0.4316,0.4316,0.4316,0.4316,0.4316,0.4316,0.0,0.0,0.0,0.0,0.0,0.0,0.0,0.0,0.0,0.0,0.0,0.0,0.0,0.0,0.0,0.0,0.0,0.0,0.0,0.0,0.0,0.4767,0.5697,0.7691,0.9898,1.1871,1.2592,1.3297,1.3776,1.354,1.2054,1.046,0.0,0.0,0.7325,0.7133,0.7085,0.7085,0.7085,0.7284,0.7469,0.7763,0.8199,0.884,0.9787,0.0,0.0,0.0,0.0,0.0,0.0,0.0,0.0,0.0,0.0,0.0,1.4859,1.4449,1.4304,1.453,1.4536,1.4196,1.3486,1.348,1.3238,1.2764,1.2273,1.1683,1.1194,1.0609,1.0117,0.9628,0.9628,0.9628,0.0,0.9628,0.9628,0.9628,0.9628,0.9734,0.9782,0.8973,0.866,0.8682,0.0,0.0,0.0,0.0,0.0,0.0,0.0,0.3208,0.3208,0.3208,0.3208,0.3208,0.3208,0.3208,0.3208,0.3208,0.3208,0.0,0.0,0.0,0.0,0.0,0.0,0.0,0.0,0.0,0.4316,0.4316,0.4316,0.4316,0.4316,0.4316,0.4316,0.4316,0.0,0.0,0.0,0.0,0.0,0.0,0.0,0.0,0.0,0.0,0.0,0.0,0.0,0.0,0.0,0.0,0.0,0.0,0.0,0.0,0.0,0.6005,0.7674,0.0,1.0536,1.0982,1.1101,1.0869,0.9992,0.9044,0.849,0.0,0.7176,0.7101,0.7085,0.7085,0.7085,0.7149,0.7386,0.8007,0.8307,0.8845,0.0,0.0,0.0,0.0,0.0,0.0,0.0,0.0,0.0,0.0,0.0,0.0,1.4406,1.4277,1.4299,1.4525,1.4385,1.4035,1.3486,1.348,1.3238,1.2764,1.2038,1.1538,1.1198,1.0445,0.9938,0.9628,0.9628,0.9628,0.9628,0.9628,0.9628,0.9541,0.906,0.8932,0.8885,0.816,0.7551,0.7116,0.0,0.0,0.0,0.0,0.0,0.0,0.0,0.3208,0.3208,0.3208,0.3208,0.3208,0.3208,0.3208,0.3208,0.3208,0.3208,0.0,0.0,0.0,0.0,0.0,0.0,0.0,0.4316,0.4316,0.4316,0.4316,0.4316,0.4316,0.4316,0.4316,0.4316,0.4316,0.4316,0.0,0.0,0.0,0.0,0.0,0.0,0.0,0.4583,0.0,0.0,0.0,0.0,0.0,0.0,0.0,0.0,0.0,0.0,0.0,0.0,0.0,0.6171,0.7573,0.0,0.9443,0.9615,0.947,0.884,0.0,0.0,0.0,0.6956,0.6956,0.7026,0.7085,0.7085,0.7085,0.7289,0.7974,0.8221,0.8711,0.0,0.0,0.0,0.0,0.0,0.0,0.0,0.0,0.0,0.0,0.0,0.0,1.4196,1.4105,1.4121,1.4261,1.4126,1.3868,1.348,1.3383,1.3141,1.2764,1.2109,1.1596,1.1203,1.0506,0.9991,0.9628,0.9628,0.9628,0.0,0.9628,0.9466,0.9137,0.8736,0.8433,0.8229,0.7361,0.6829,0.6481,0.0,0.0,0.0,0.0,0.0,0.0,0.0,0.3208,0.3208,0.3208,0.3208,0.3208,0.3208,0.3208,0.3208,0.3208,0.0,0.0,0.0,0.0,0.0,0.0,0.0,0.0,0.4316,0.4316,0.4316,0.4316,0.4316,0.4316,0.4316,0.432,0.4316,0.4316,0.436,0.436,0.0,0.0,0.0,0.0,0.0,0.0,0.0,0.0,0.0,0.0,0.0,0.0,0.0,0.0,0.0,0.0,0.0,0.0,0.0,0.0,0.0,0.0,0.0,0.8452,0.0,0.0,0.0,0.0,0.0,0.0,0.0,0.6684,0.6923,0.709,0.7106,0.7112,0.7273,0.7768,0.8059,0.0,0.0,0.0,0.0,0.0,0.0,0.0,0.0,0.0,0.0,0.0,0.0,1.4196,1.4196,1.3864,1.373,1.3714,1.3593,1.3471,1.3453,1.3217,1.299,1.2764,1.2496,1.189,1.1203,1.0911,1.0393,0.0,0.9628,0.9529,0.9525,0.9525,0.913,0.8466,0.848,0.8138,0.7624,0.6658,0.6401,0.6478,0.0,0.0,0.0,0.0,0.0,0.0,0.0,0.0,0.0,0.0,0.3208,0.3208,0.3208,0.3208,0.3208,0.0,0.0,0.0,0.0,0.0,0.0,0.0,0.0,0.0,0.4316,0.4316,0.4316,0.4316,0.4316,0.4316,0.4316,0.4447,0.453,0.453,0.4757,0.4849,0.0,0.0,0.0,0.0,0.0,0.0,0.0,0.0,0.0,0.0,0.5159,0.5072,0.0,0.0,0.0,0.0,0.0,0.0,0.0,0.0,0.5458,0.5766,0.62,0.0,0.6509,0.6509,0.6471,0.6423,0.0,0.0,0.0,0.0,0.0,0.0,0.0,0.7309,0.7522,0.8242,0.8689,0.0,0.0,0.0,0.0,0.0,0.0,0.0,0.0,0.0,0.0,0.0,0.0,1.4196,1.4196,1.3249,1.2705,1.2553,1.1535,1.1667,1.3195,1.313,1.299,1.2764,1.2407,1.1895,1.1203,1.092,1.0301,0.9628,0.9628,0.9229,0.873,0.873,0.832,0.7645,0.7027,0.6842,0.666,0.5872,0.5695,0.5712,0.0,0.0,0.0,0.0,0.0,0.0,0.0,0.0,0.0,0.0,0.0,0.3208,0.3208,0.3208,0.0,0.0,0.0,0.0,0.0,0.0,0.0,0.0,0.0,0.4097,0.4312,0.4316,0.4316,0.4316,0.4316,0.436,0.4443,0.453,0.4661,0.4801,0.4941,0.499,0.499,0.0,0.0,0.0,0.529,0.0,0.0,0.0,0.0,0.0,0.5463,0.5333,0.0,0.5241,0.5159,0.499,0.0,0.0,0.0,0.0,0.5501,0.568,0.568,0.5755,0.5836,0.5836,0.5927,0.6019,0.6019,0.0,0.0,0.0,0.0,0.0,0.0,0.0,0.0,0.0,0.0,0.0,0.0,0.0,0.0,0.0,0.0,0.0,0.0,0.0,0.0,0.0,0.0,1.397,1.3413,1.2564,1.187,1.1238,1.0339,1.0698,1.2399,1.1795,1.189,1.2764,1.2203,1.1492,1.0605,1.0606,0.9786,0.8531,0.8531,0.8233,0.7836,0.7836,0.7449,0.6906,0.645,0.6151,0.5861,0.5586,0.5382,0.5382,0.0,0.0,0.0,0.0,0.0,0.0,0.0,0.0,0.0,0.0,0.0,0.0,0.0,0.0,0.0,0.0,0.0,0.0,0.0,0.0,0.0,0.0,0.385,0.4069,0.4312,0.4316,0.4316,0.4316,0.4316,0.4403,0.4618,0.4661,0.4801,0.5116,0.5116,0.5116,0.512,0.529,0.5371,0.0,0.5593,0.0,0.0,0.0,0.0,0.0,0.0,0.0,0.0,0.5371,0.5246,0.5116,0.5116,0.0,0.0,0.0,0.0,0.0,0.5723,0.5927,0.6105,0.5997,0.6024,0.6067,0.603,0.0,0.0,0.0,0.0,0.0,0.0,0.0,0.0,0.0,0.0,0.0,0.0,0.0,0.0,0.0,0.0,0.0,0.0,0.0,0.0,0.0,0.0,1.3316,1.2107,1.1672,1.0953,0.9888,0.94,0.9705,1.0943,1.0078,1.0493,1.2273,1.1596,1.0797,0.9846,1.0,0.9082,0.7269,0.7244,0.0,0.7039,0.7039,0.6669,0.6135,0.6135,0.5833,0.5339,0.5339,0.5349,0.5363,0.0,0.0,0.0,0.0,0.0,0.0,0.0,0.0,0.0,0.0,0.0,0.0,0.0,0.0,0.0,0.0,0.0,0.0,0.0,0.0,0.0,0.3685,0.373,0.3935,0.4312,0.4316,0.4316,0.4316,0.4316,0.4403,0.4618,0.4845,0.5159,0.5593,0.5593,0.5593,0.5593,0.5636,0.5636,0.5636,0.568,0.0,0.0,0.0,0.0,0.0,0.0,0.0,0.0,0.5636,0.5636,0.5593,0.5593,0.0,0.0,0.0,0.0,0.0,0.5916,0.6288,0.6432,0.5884,0.6035,0.6283,0.6067,0.0,0.0,0.0,0.0,0.0,0.0,0.0,0.0,0.0,0.0,0.0,0.0,0.0,0.0,0.0,0.0,0.0,0.0,0.0,0.0,0.0,1.2524,1.1793,1.0644,0.9646,0.8927,0.8688,0.7626,0.756,0.8553,0.9225,0.9805,1.01,1.0092,0.9758,0.912,0.8947,0.8438,0.7706,0.0,0.6839,0.6142,0.6142,0.5812,0.5199,0.5199,0.5162,0.5151,0.5151,0.52,0.5277,0.0,0.0,0.0,0.0,0.0,0.0,0.0,0.0,0.0,0.0,0.0,0.0,0.0,0.0,0.0,0.0,0.0,0.0,0.0,0.0,0.3332,0.3685,0.3702,0.3906,0.4308,0.4316,0.4316,0.4316,0.4403,0.4578,0.4801,0.5203,0.5507,0.568,0.568,0.568,0.568,0.568,0.568,0.568,0.0,0.0,0.0,0.0,0.0,0.0,0.0,0.0,0.0,0.0,0.568,0.568,0.568,0.0,0.0,0.0,0.0,0.0,0.5809,0.6186,0.6476,0.6148,0.6519,0.6902,0.6654,0.6869,0.0,0.0,0.0,0.0,0.0,0.0,0.0,0.0,0.0,0.0,0.0,0.0,0.0,0.0,0.0,0.0,0.0,0.0,0.0,0.0,1.2392,1.1385,1.0244,0.912,0.8117,0.7434,0.6796,0.6631,0.7129,0.7556,0.8438,0.9608,0.9095,0.8628,0.8227,0.7922,0.7321,0.6417,0.0,0.5737,0.5338,0.5338,0.5194,0.4971,0.4971,0.5026,0.5114,0.5163,0.5208,0.5251,0.0,0.0,0.0,0.0,0.0,0.0,0.0,0.0,0.0,0.0,0.0,0.0,0.0,0.0,0.0,0.0,0.0,0.0,0.0,0.3241,0.3332,0.3685,0.3702,0.3906,0.4308,0.4316,0.4316,0.4316,0.4487,0.4753,0.5072,0.5507,0.568,0.568,0.568,0.568,0.568,0.568,0.568,0.568,0.0,0.0,0.0,0.0,0.0,0.0,0.0,0.0,0.0,0.0,0.0,0.0,0.0,0.0,0.0,0.568,0.568,0.569,0.5744,0.6073,0.6396,0.6396,0.6886,0.7359,0.7338,0.7478,0.0,0.0,0.0,0.0,0.0,0.0,0.0,0.0,0.0,0.0,0.0,0.0,0.0,0.0,0.0,0.0,0.0,0.0,0.0,1.3351,1.2084,1.0835,0.9701,0.8565,0.7493,0.6575,0.6401,0.6336,0.6396,0.6312,0.7202,0.8814,0.8058,0.7578,0.7381,0.6974,0.6274,0.5273,0.4945,0.4834,0.4834,0.4834,0.4875,0.4941,0.4941,0.4981,0.5055,0.5147,0.5179,0.5184,0.0,0.0,0.0,0.0,0.0,0.0,0.0,0.0,0.0,0.0,0.0,0.0,0.0,0.0,0.0,0.0,0.0,0.0,0.0,0.3307,0.3332,0.3685,0.3702,0.3906,0.4308,0.4316,0.4316,0.4316,0.4487,0.484,0.529,0.555,0.568,0.568,0.568,0.568,0.568,0.568,0.568,0.568,0.568,0.0,0.0,0.0,0.0,0.0,0.0,0.0,0.0,0.0,0.0,0.0,0.0,0.0,0.568,0.568,0.568,0.5723,0.5938,0.6191,0.6396,0.6396,0.6756,0.7279,0.7985,0.8148,0.0,0.8942,0.0,0.0,0.0,0.0,0.0,0.0,0.0,0.0,0.0,0.0,0.0,0.0,0.0,0.0,0.0,0.0,1.2772,1.1745,1.0445,0.9248,0.8254,0.715,0.655,0.6448,0.6434,0.6377,0.6282,0.6274,0.6423,0.6637,0.6653,0.6708,0.6605,0.6092,0.5887,0.5677,0.5073,0.4834,0.4834,0.4834,0.4839,0.4845,0.4845,0.4849,0.4865,0.4957,0.4992,0.5004,0.0,0.0,0.0,0.0,0.0,0.0,0.0,0.0,0.0,0.0,0.0,0.0,0.0,0.0,0.0,0.0,0.0,0.0,0.0,0.3536,0.3681,0.4109,0.4132,0.4315,0.4709,0.4341,0.4299,0.4718,0.4932,0.5193,0.555,0.5636,0.568,0.568,0.568,0.568,0.568,0.568,0.568,0.568,0.568,0.568,0.0,0.0,0.0,0.0,0.0,0.0,0.0,0.0,0.568,0.568,0.568,0.568,0.568,0.568,0.568,0.5701,0.5782,0.6196,0.6606,0.6606,0.6961,0.0,0.0,0.8446,0.882,0.9319,0.948,0.0,0.0,0.0,0.0,0.0,0.0,0.0,0.0,0.0,0.0,0.0,0.0,0.0,0.0,0.0,1.1594,1.0496,0.9146,0.8229,0.7846,0.6795,0.6219,0.6219,0.6143,0.6121,0.6154,0.6078,0.61,0.6219,0.6342,0.6302,0.62,0.5869,0.5595,0.5394,0.4951,0.4806,0.4755,0.4755,0.4755,0.4761,0.4814,0.4869,0.4924,0.4959,0.4971,0.4977,0.0,0.0,0.0,0.0,0.0,0.0,0.0,0.0,0.0,0.0,0.0,0.0,0.0,0.0,0.0,0.0,0.0,0.0,0.3803,0.3737,0.3926,0.4385,0.4404,0.46,0.5106,0.4526,0.4479,0.499,0.5203,0.542,0.568,0.568,0.568,0.568,0.568,0.568,0.568,0.568,0.568,0.568,0.568,0.568,0.0,0.0,0.0,0.0,0.0,0.0,0.0,0.0,0.568,0.568,0.568,0.568,0.568,0.568,0.568,0.568,0.568,0.6035,0.6439,0.6589,0.0,0.0,0.8307,0.8737,0.9233,1.0169,1.0304,0.0,0.0,0.0,0.0,0.0,0.0,0.0,0.0,0.0,0.0,0.0,0.0,0.0,0.0,1.1053,1.0466,0.9627,0.8456,0.7681,0.7681,0.6649,0.6086,0.6086,0.6005,0.5983,0.6029,0.5945,0.5926,0.5975,0.6094,0.6075,0.582,0.5603,0.5342,0.5147,0.4851,0.4718,0.4665,0.4665,0.4665,0.4673,0.4761,0.4834,0.4892,0.4918,0.4928,0.4928,0.0,0.0,0.0,0.0,0.0,0.0,0.0,0.0,0.0,0.0,0.0,0.0,0.0,0.0,0.0,0.0,0.0,0.0,0.3993,0.3798,0.3922,0.438,0.4399,0.4679,0.5275,0.4897,0.4814,0.4985,0.5203,0.542,0.568,0.568,0.568,0.568,0.568,0.568,0.568,0.568,0.568,0.568,0.568,0.568,0.568,0.0,0.0,0.0,0.0,0.0,0.0,0.0,0.568,0.568,0.568,0.568,0.568,0.568,0.568,0.568,0.568,0.5685,0.5803,0.0,0.0,0.0,0.8888,0.9206,0.9744,1.1733,0.0,0.0,0.0,0.0,0.0,0.0,0.0,0.0,0.0,0.0,0.0,0.0,0.0,0.0,1.101,1.0005,0.9349,0.9165,0.8228,0.7674,0.7674,0.6646,0.6083,0.6083,0.6083,0.6024,0.5904,0.5901,0.5844,0.5735,0.5847,0.5871,0.5698,0.5422,0.5232,0.4946,0.4761,0.4573,0.4571,0.4571,0.4571,0.4579,0.4671,0.4708,0.4716,0.4802,0.4832,0.4832,0.0,0.0,0.0,0.0,0.0,0.0,0.0,0.0,0.0,0.0,0.0,0.0,0.0,0.0,0.0,0.0,0.0,0.0,0.4215,0.4156,0.4254,0.4531,0.4729,0.4992,0.5282,0.535,0.5313,0.5054,0.5423,0.5636,0.568,0.568,0.568,0.568,0.568,0.568,0.568,0.568,0.568,0.568,0.568,0.568,0.568,0.0,0.0,0.0,0.0,0.0,0.0,0.0,0.0,0.0,0.568,0.568,0.568,0.568,0.568,0.568,0.568,0.604,0.0,0.0,0.0,0.0,0.0,0.9448,0.0,0.0,0.0,0.0,0.0,0.0,0.0,0.0,0.0,0.0,0.0,0.0,0.0,0.0,0.0,0.0,0.8789,0.8296,0.7745,0.6964,0.6515,0.6289,0.6289,0.6017,0.5839,0.5839,0.5839,0.582,0.5784,0.5784,0.5676,0.5463,0.5494,0.5479,0.531,0.5294,0.5045,0.4761,0.4666,0.4536,0.4477,0.4477,0.4477,0.4485,0.4577,0.4614,0.4616,0.464,0.4651,0.4651,0.0,0.0,0.0,0.0,0.0,0.0,0.0,0.0,0.0,0.0,0.4312,0.0,0.0,0.0,0.0,0.0,0.0,0.0,0.0,0.4312,0.4432,0.4738,0.4925,0.5159,0.5448,0.5599,0.5562,0.5334,0.5562,0.568,0.568,0.568,0.568,0.568,0.568,0.568,0.568,0.568,0.568,0.568,0.568,0.568,0.568,0.0,0.0,0.0,0.0,0.0,0.0,0.0,0.0,0.0,0.568,0.568,0.568,0.568,0.568,0.5701,0.5787,0.0,0.0,0.0,0.0,0.0,0.0,0.0,0.0,0.0,0.0,0.0,0.0,0.0,0.0,0.0,0.0,0.0,0.0,0.0,0.0,0.0,0.0,0.8299,0.7684,0.7135,0.6609,0.5839,0.5771,0.5733,0.5733,0.5733,0.5733,0.5733,0.5733,0.5733,0.5733,0.5644,0.5552,0.5371,0.528,0.5136,0.4929,0.4991,0.4835,0.4465,0.4465,0.4432,0.4381,0.4381,0.4381,0.4389,0.4481,0.4518,0.4522,0.4559,0.4573,0.4573,0.0,0.0,0.0,0.0,0.0,0.0,0.0,0.0,0.0,0.0,0.4312,0.4312,0.0,0.0,0.0,0.0,0.0,0.0,0.0,0.4312,0.4486,0.4947,0.5012,0.5251,0.5669,0.568,0.568,0.568,0.568,0.568,0.568,0.568,0.568,0.568,0.568,0.568,0.568,0.568,0.568,0.568,0.568,0.568,0.568,0.568,0.0,0.0,0.0,0.0,0.0,0.0,0.0,0.0,0.568,0.568,0.568,0.568,0.568,0.5728,0.596,0.0,0.0,0.0,0.0,0.0,0.0,0.0,0.0,0.0,0.0,0.0,0.0,0.0,0.0,0.0,0.0,0.0,0.0,0.0,0.0,0.0,0.0,0.7492,0.735,0.6433,0.5844,0.5741,0.5733,0.5733,0.5733,0.5733,0.5733,0.5733,0.5733,0.5733,0.5733,0.5463,0.5371,0.5371,0.5102,0.4835,0.4661,0.4661,0.4569,0.43,0.43,0.43,0.43,0.43,0.43,0.4308,0.4389,0.4422,0.4432,0.4516,0.4547,0.4452,0.0,0.0,0.0,0.0,0.0,0.0,0.0,0.0,0.0,0.0,0.0,0.0,0.0,0.0,0.0,0.0,0.0,0.0,0.0,0.4312,0.4416,0.4678,0.5039,0.5373,0.5674,0.568,0.568,0.568,0.568,0.568,0.568,0.568,0.568,0.568,0.568,0.568,0.568,0.568,0.568,0.568,0.568,0.568,0.568,0.568,0.568,0.0,0.0,0.0,0.0,0.0,0.0,0.0,0.568,0.568,0.568,0.568,0.568,0.5728,0.0,0.6336,0.0,0.0,0.0,0.0,0.0,0.0,0.0,0.0,0.0,0.0,0.0,0.0,0.0,0.0,0.0,0.0,0.0,0.0,0.0,0.0,0.67,0.6158,0.6129,0.5858,0.576,0.5735,0.5733,0.5733,0.5733,0.5733,0.5733,0.5733,0.5733,0.5733,0.5733,0.5463,0.528,0.5099,0.4835,0.4659,0.4389,0.4569,0.4569,0.43,0.43,0.43,0.43,0.43,0.43,0.4302,0.432,0.4328,0.433,0.4351,0.3904,0.3269,0.0,0.0,0.0,0.0,0.0,0.0,0.0,0.0,0.0,0.0,0.0,0.0,0.0,0.0,0.0,0.0,0.0,0.0,0.0,0.0,0.4443,0.4764,0.5233,0.5545,0.5674,0.568,0.568,0.568,0.568,0.568,0.568,0.568,0.568,0.568,0.568,0.568,0.568,0.568,0.568,0.568,0.568,0.568,0.568,0.568,0.568,0.568,0.568,0.0,0.0,0.0,0.0,0.0,0.0,0.0,0.568,0.568,0.568,0.5728,0.0,0.0,0.0,0.0,0.0,0.0,0.0,0.0,0.0,0.0,0.0,0.0,0.0,0.0,0.0,0.0,0.0,0.0,0.0,0.0,0.0,0.6438,0.5997,0.5733,0.5733,0.5733,0.5708,0.5651,0.5646,0.5646,0.5646,0.5646,0.5646,0.5646,0.5646,0.5531,0.5383,0.5211,0.4949,0.4688,0.4568,0.4438,0.43,0.4478,0.4389,0.43,0.43,0.43,0.43,0.43,0.43,0.43,0.43,0.43,0.4208,0.3762,0.3315,0.2867,0.0,0.0,0.0,0.0,0.0,0.0,0.0,0.0,0.0,0.0,0.0,0.0,0.0,0.0,0.0,0.0,0.0,0.0,0.0,0.0,0.0,0.5121,0.5484,0.568,0.568,0.568,0.568,0.568,0.568,0.568,0.568,0.568,0.568,0.568,0.568,0.568,0.568,0.568,0.568,0.568,0.568,0.568,0.568,0.568,0.568,0.568,0.568,0.568,0.568,0.568,0.0,0.0,0.0,0.0,0.568,0.568,0.568,0.5728,0.0,0.0,0.0,0.0,0.0,0.0,0.0,0.0,0.0,0.0,0.0,0.0,0.0,0.0,0.0,0.0,0.0,0.0,0.0,0.0,0.5695,0.5673,0.567,0.5678,0.57,0.5703,0.5659,0.5472,0.5464,0.5454,0.5521,0.5521,0.5521,0.5521,0.5432,0.5299,0.5116,0.4785,0.4534,0.4365,0.4297,0.4202,0.4253,0.4269,0.4285,0.4297,0.4283,0.4277,0.4275,0.4261,0.4253,0.4253,0.4076,0.3995,0.3918,0.3029,0.259,0.2239,0.0,0.0,0.0,0.0,0.0,0.0,0.0,0.0,0.0,0.0,0.0,0.0,0.0,0.0,0.0,0.0,0.0,0.0,0.0,0.0,0.0,0.567,0.5702,0.568,0.568,0.568,0.568,0.568,0.568,0.568,0.568,0.568,0.568,0.568,0.568,0.568,0.568,0.568,0.568,0.568,0.568,0.568,0.568,0.568,0.568,0.568,0.568,0.568,0.568,0.568,0.568,0.0,0.0,0.0,0.568,0.568,0.568,0.5728,0.0,0.0,0.0,0.0,0.0,0.0,0.0,0.0,0.0,0.0,0.0,0.0,0.0,0.0,0.0,0.0,0.0,0.0,0.0,0.0,0.5534,0.5431,0.5417,0.5458,0.5478,0.5489,0.5483,0.5464,0.5464,0.5504,0.5398,0.5393,0.5393,0.5393,0.5223,0.5131,0.5113,0.4699,0.4448,0.4365,0.4297,0.4136,0.4073,0.4155,0.423,0.4295,0.4222,0.4189,0.4183,0.4104,0.4071,0.3984,0.3303,0.2999,0.2788,0.2002,0.1146,0.0359,0.0,0.0,0.0,0.0,0.0,0.0,0.0,0.0,0.0,0.0,0.0,0.0,0.0,0.0,0.0,0.0,0.0,0.0,0.0,0.0,0.0,0.5803,0.5719,0.568,0.568,0.568,0.568,0.568,0.568,0.568,0.568,0.568,0.568,0.568,0.568,0.568,0.568,0.568,0.568,0.568,0.568,0.568,0.568,0.568,0.568,0.568,0.568,0.568,0.568,0.568,0.568,0.568,0.568,0.0,0.0,0.0,0.568,0.0,0.0,0.0,0.0,0.0,0.0,0.0,0.0,0.0,0.0,0.0,0.0,0.0,0.0,0.0,0.0,0.0,0.0,0.0,0.0,0.0,0.5428,0.5377,0.5368,0.539,0.5442,0.5447,0.542,0.5352,0.5347,0.5322,0.5271,0.5189,0.5107,0.5107,0.4941,0.4747,0.4527,0.4364,0.4232,0.4121,0.4082,0.4026,0.4036,0.4077,0.4116,0.4148,0.4112,0.4095,0.4093,0.4053,0.3697,0.3275,0.2938,0.2449,0.196,0.1022,0.0432,-0.0088,0.0,0.0,0.0,0.0,0.0,0.0,0.0,0.0,0.0,0.0,0.0,0.0,0.0,0.0,0.0,0.0,0.0,0.0,0.0,0.0,0.0,0.6019,0.5831,0.568,0.568,0.568,0.568,0.568,0.568,0.568,0.568,0.568,0.568,0.568,0.568,0.568,0.568,0.568,0.568,0.568,0.568,0.568,0.5685,0.5744,0.5766,0.5771,0.5841,0.5863,0.5852,0.5787,0.5766,0.5755,0.5696,0.568,0.0,0.0,0.0,0.0,0.0,0.0,0.0,0.0,0.0,0.0,0.0,0.0,0.0,0.0,0.0,0.0,0.0,0.0,0.0,0.0,0.0,0.0,0.0,0.0,0.5311,0.5284,0.5279,0.529,0.532,0.5322,0.5284,0.5195,0.5159,0.5143,0.5063,0.4849,0.4755,0.4785,0.4545,0.4258,0.4004,0.4028,0.3934,0.3865,0.3887,0.3922,0.3967,0.3967,0.3967,0.3967,0.3991,0.4001,0.3916,0.3727,0.3304,0.264,0.2227,0.1656,0.1,0.0083,-0.0254,-0.0431,0.0,0.0,0.0,0.0,0.0,0.0,0.0,0.0,0.0,0.0,0.0,0.0,0.58,0.5553,0.5478,0.5837,0.6034,0.6413,0.7079,0.6531,0.6331,0.6615,0.605,0.0,0.568,0.568,0.568,0.568,0.568,0.568,0.568,0.568,0.568,0.568,0.568,0.568,0.568,0.568,0.568,0.568,0.568,0.568,0.5701,0.5922,0.6003,0.6035,0.6272,0.6358,0.632,0.6083,0.6003,0.5965,0.575,0.568,0.568,0.0,0.0,0.0,0.0,0.0,0.0,0.0,0.0,0.0,0.0,0.0,0.0,0.0,0.0,0.0,0.0,0.0,0.0,0.0,0.0,0.0,0.0,0.0,0.5156,0.5048,0.5034,0.5078,0.5184,0.5197,0.5195,0.5186,0.5086,0.4945,0.4709,0.4502,0.4365,0.4324,0.4098,0.3898,0.3798,0.3666,0.3679,0.3771,0.3859,0.3857,0.3777,0.3777,0.3777,0.3781,0.3869,0.3908,0.3818,0.294,0.2519,0.2362,0.0786,0.008,-0.0,-0.0896,-0.1241,-0.1269,0.0,0.0,0.0,0.0,0.0,0.0,0.0,0.0,0.0,0.0,0.0,0.0,0.0,0.6169,0.6281,0.6175,0.6212,0.6348,0.6538,0.6343,0.6349,0.6683,0.6056,0.5804,0.6013,0.5809,0.568,0.568,0.568,0.568,0.568,0.568,0.568,0.568,0.568,0.568,0.568,0.568,0.0,0.0,0.0,0.0,0.5922,0.0,0.0,0.0,0.0,0.0,0.0,0.6293,0.6153,0.6008,0.5922,0.5798,0.568,0.568,0.568,0.0,0.0,0.0,0.0,0.0,0.0,0.0,0.0,0.0,0.0,0.0,0.0,0.0,0.0,0.0,0.0,0.0,0.0,0.0,0.0,0.4893,0.4828,0.479,0.4784,0.4798,0.4838,0.4766,0.4691,0.4691,0.4507,0.4412,0.4338,0.4113,0.4017,0.3983,0.3767,0.3603,0.3642,0.3528,0.3563,0.3595,0.3628,0.3626,0.3595,0.3142,0.2916,0.2843,0.2414,0.2523,0.3021,0.2115,0.1434,0.0843,0.023,-0.0311,-0.0875,-0.1194,-0.1305,-0.1265,0.0,0.0,0.0,0.0,0.0,0.0,0.0,0.0,0.0,0.6104,0.0,0.0,0.0,0.0,0.6493,0.6353,0.6416,0.645,0.6363,0.6247,0.6307,0.6513,0.6013,0.5804,0.6013,0.5804,0.568,0.568,0.568,0.568,0.568,0.568,0.568,0.568,0.568,0.568,0.568,0.0,0.0,0.5809,0.0,0.0,0.6175,0.0,0.0,0.0,0.0,0.0,0.0,0.0,0.0,0.0,0.0,0.5863,0.568,0.568,0.568,0.568,0.568,0.0,0.0,0.0,0.0,0.0,0.0,0.0,0.0,0.0,0.0,0.0,0.0,0.0,0.0,0.0,0.0,0.0,0.0,0.4705,0.4726,0.4726,0.4726,0.4726,0.4726,0.4504,0.4432,0.4432,0.4183,0.0,0.4,0.3795,0.3701,0.3663,0.3495,0.3438,0.3499,0.3469,0.3469,0.3499,0.3499,0.3354,0.3132,0.2597,0.2237,0.1962,0.1214,0.1373,0.2087,0.1245,0.0588,-0.0,-0.0302,-0.0765,-0.1243,-0.1254,-0.1283,-0.1319,0.0,0.0,0.0,0.0,0.0,0.0,0.0,0.0,0.5786,0.638,0.0,0.0,0.0,0.0,0.0,0.6367,0.6708,0.6823,0.6683,0.6392,0.6179,0.6184,0.589,0.5723,0.5723,0.5723,0.568,0.568,0.568,0.568,0.568,0.568,0.568,0.568,0.568,0.568,0.568,0.0,0.5809,0.6019,0.0,0.618,0.6428,0.0,0.0,0.0,0.7004,0.7085,0.0,0.6821,0.0,0.0,0.0,0.0,0.0,0.568,0.568,0.568,0.0,0.0,0.0,0.0,0.0,0.0,0.0,0.0,0.0,0.0,0.0,0.0,0.0,0.0,0.0,0.0,0.0,0.0,0.0,0.4706,0.4704,0.4704,0.4704,0.4704,0.4704,0.4485,0.4339,0.4339,0.4029,0.3879,0.3765,0.3597,0.3472,0.3422,0.3269,0.3307,0.3487,0.3397,0.3395,0.3483,0.3487,0.3051,0.2391,0.2262,0.1912,0.123,0.0344,0.0415,0.116,0.0363,0.0073,-0.0,-0.0899,-0.1211,-0.1215,-0.1246,-0.1336,-0.1263,0.0,0.0,0.0,0.0,0.0,0.7086,0.7592,0.7445,0.73,0.0,0.0,0.0,0.6153,0.6099,0.6221,0.6605,0.6483,0.6392,0.6349,0.6013,0.5933,0.6179,0.589,0.5804,0.6056,0.5804,0.568,0.568,0.568,0.568,0.568,0.568,0.568,0.568,0.568,0.568,0.568,0.568,0.0,0.0,0.6218,0.6433,0.0,0.0,0.0,0.0,0.0,0.7085,0.7074,0.0,0.6832,0.6568,0.0,0.0,0.0,0.568,0.568,0.568,0.568,0.0,0.0,0.0,0.0,0.0,0.0,0.0,0.0,0.0,0.0,0.0,0.0,0.0,0.0,0.0,0.0,0.0,0.0,0.4189,0.4134,0.4134,0.4068,0.4001,0.4001,0.3682,0.3554,0.0,0.3336,0.3234,0.3263,0.3284,0.3274,0.3166,0.3142,0.3152,0.3203,0.3113,0.2889,0.2462,0.2447,0.207,0.1467,0.0878,0.0546,0.0343,-0.0473,-0.0678,-0.0481,-0.0688,-0.0765,-0.0781,-0.1094,-0.1192,-0.1215,-0.1246,-0.1271,-0.1291,0.0,0.0,0.0,0.0,0.0,0.7516,0.7807,0.769,0.7398,0.0,0.0,0.0,0.597,0.6013,0.6184,0.6301,0.6136,0.6007,0.597,0.5809,0.5809,0.5976,0.5804,0.5804,0.5976,0.5804,0.568,0.568,0.568,0.568,0.568,0.568,0.568,0.568,0.568,0.0,0.0,0.0,0.0,0.0,0.6293,0.0,0.0,0.6993,0.7085,0.0,0.0,0.0,0.7085,0.7085,0.6929,0.0,0.0,0.0,0.5976,0.5976,0.5976,0.5976,0.5976,0.59,0.0,0.0,0.0,0.0,0.5096,0.5176,0.0,0.0,0.0,0.0,0.0,0.0,0.0,0.0,0.0,0.0,0.0,0.3878,0.3758,0.3806,0.3747,0.3686,0.363,0.3385,0.3202,0.3202,0.3077,0.3038,0.303,0.3085,0.3089,0.3034,0.3034,0.3034,0.3034,0.3043,0.2831,0.2463,0.2196,0.1707,0.1012,0.0321,-0.013,-0.0455,-0.0855,-0.1058,-0.1059,-0.1071,-0.1086,-0.1105,-0.1136,-0.1158,-0.1179,-0.1222,-0.1249,-0.1266,0.0,0.0,0.7848,0.8242,0.7979,0.7682,0.7682,0.728,0.6745,0.0,0.5927,0.5787,0.5787,0.5884,0.5933,0.5836,0.5793,0.5798,0.5761,0.5723,0.568,0.568,0.568,0.568,0.568,0.568,0.568,0.568,0.568,0.568,0.568,0.568,0.568,0.568,0.568,0.0,0.0,0.0,0.0,0.604,0.6293,0.6546,0.0,0.0,0.7085,0.7085,0.7085,0.7085,0.7085,0.7085,0.6929,0.0,0.0,0.0,0.6396,0.6396,0.6396,0.6396,0.6396,0.6213,0.6019,0.0,0.0,0.0,0.5009,0.5023,0.4978,0.0,0.0,0.0,0.0,0.0,0.0,0.0,0.0,0.0,0.0,0.0,0.3566,0.3602,0.3612,0.3555,0.344,0.3197,0.3137,0.3137,0.3034,0.2984,0.2984,0.3005,0.3011,0.3001,0.3001,0.3001,0.3001,0.299,0.2924,0.2863,0.2324,0.1655,0.0858,0.0307,-0.0308,-0.099,-0.1017,-0.1031,-0.1035,-0.1061,-0.1073,-0.1079,-0.1109,-0.1121,-0.1128,-0.1189,-0.1212,-0.1216,0.0,0.7721,0.7724,0.7814,0.7765,0.7682,0.7558,0.744,0.7189,0.6641,0.613,0.5787,0.5787,0.5761,0.5847,0.6093,0.589,0.5847,0.6099,0.5847,0.568,0.568,0.568,0.568,0.568,0.568,0.568,0.568,0.568,0.568,0.568,0.568,0.568,0.568,0.568,0.568,0.0,0.0,0.0,0.604,0.6293,0.0,0.702,0.7069,0.7085,0.7085,0.7085,0.7085,0.7085,0.7085,0.6929,0.6678,0.0,0.0,0.0,0.6396,0.6396,0.6396,0.0,0.0,0.0,0.0,0.0,0.0,0.4535,0.4164,0.3778,0.0,0.0,0.0,0.0,0.0,0.0,0.0,0.0,0.0,0.0,0.0,0.3027,0.3049,0.2892,0.2785,0.2785,0.2628,0.2576,0.2576,0.2658,0.2742,0.2742,0.2936,0.2921,0.2854,0.2852,0.2852,0.2852,0.2779,0.2512,0.2053,0.1875,0.1246,0.0178,-0.0,-0.0431,-0.0988,-0.0994,-0.1011,-0.0969,-0.1039,-0.1055,-0.1079,-0.1109,-0.1121,-0.1128,-0.1189,-0.1212,-0.1216,0.7658,0.7516,0.7349,0.7349,0.7314,0.728,0.7196,0.7147,0.6888,0.6343,0.5964,0.5755,0.5755,0.5717,0.5761,0.5933,0.5804,0.5761,0.5927,0.5804,0.568,0.568,0.568,0.568,0.568,0.568,0.568,0.568,0.568,0.568,0.568,0.568,0.5739,0.5847,0.5728,0.5809,0.0,0.0,0.6159,0.6336,0.6514,0.0,0.6923,0.7042,0.7085,0.7085,0.7085,0.7085,0.7085,0.7085,0.7004,0.0,0.0,0.6832,0.674,0.0,0.674,0.674,0.0,0.0,0.0,0.5939,0.0,0.0,0.0,0.3801,0.3494,0.2909,0.2864,0.0,0.0,0.0,0.0,0.0,0.0,0.0,0.0,0.0,0.2714,0.2766,0.267,0.257,0.252,0.2417,0.2417,0.2417,0.2503,0.2554,0.2554,0.2681,0.2792,0.2693,0.2736,0.2758,0.2758,0.2668,0.2513,0.2182,0.1529,0.0937,0.0393,-0.0228,-0.0637,-0.0944,-0.0959,-0.0974,-0.0929,-0.0957,-0.1042,-0.1057,-0.1087,-0.1098,-0.1104,-0.115,-0.1166,-0.1173,0.7575,0.7266,0.7021,0.7105,0.7027,0.6914,0.6872,0.6689,0.6386,0.5836,0.5717,0.568,0.568,0.568,0.568,0.568,0.568,0.568,0.568,0.568,0.568,0.568,0.568,0.568,0.568,0.568,0.568,0.568,0.568,0.568,0.568,0.568,0.5803,0.6013,0.5825,0.5986,0.0,0.0,0.0,0.6689,0.0,0.6805,0.6821,0.7009,0.7085,0.7085,0.7085,0.7085,0.7085,0.7085,0.7085,0.7085,0.7085,0.7085,0.0,0.0,0.0,0.0,0.0,0.0,0.0,0.0,0.0,0.5014,0.0,0.0,0.0,0.2826,0.0,0.0,0.0,0.0,0.0,0.0,0.0,0.0,0.0,0.0,0.0,0.2507,0.2516,0.2467,0.2366,0.2366,0.2372,0.2391,0.2391,0.2399,0.2415,0.2489,0.258,0.258,0.2599,0.2638,0.2638,0.2564,0.258,0.2527,0.1482,0.0922,0.0791,-0.0265,-0.0811,-0.089,-0.0921,-0.0879,-0.0888,-0.0934,-0.0959,-0.1036,-0.1065,-0.1076,-0.108,-0.111,-0.1125,-0.1137,0.7086,0.7021,0.7147,0.7558,0.7273,0.6937,0.6768,0.6355,0.5976,0.5766,0.5723,0.568,0.568,0.0,0.0,0.0,0.0,0.0,0.568,0.0,0.568,0.568,0.568,0.568,0.568,0.568,0.568,0.568,0.568,0.568,0.568,0.568,0.5803,0.6019,0.5992,0.0,0.0,0.0,0.6635,0.0,0.6961,0.7042,0.0,0.7074,0.7085,0.7085,0.7085,0.7085,0.7085,0.0,0.7085,0.7085,0.0,0.7085,0.7085,0.7085,0.0,0.0,0.0,0.0,0.0,0.0,0.5198,0.0,0.0,0.0,0.2947,0.2743,0.0,0.0,0.0,0.0,0.0,0.0,0.0,0.0,0.2199,0.0,0.2217,0.223,0.223,0.223,0.223,0.223,0.2261,0.2291,0.2297,0.2331,0.2413,0.2427,0.2434,0.2434,0.2442,0.2448,0.2448,0.2438,0.2434,0.2434,0.1866,0.1311,0.0762,0.0157,-0.0373,-0.0913,-0.089,-0.0918,-0.0884,-0.0891,-0.0923,-0.1036,-0.1065,-0.1076,-0.108,-0.111,-0.1138,-0.1162,0.6826,0.6901,0.0,0.6852,0.6683,0.652,0.6435,0.6184,0.5976,0.5895,0.589,0.589,0.0,0.0,0.0,0.0,0.0,0.5733,0.0,0.0,0.5879,0.5879,0.6019,0.6094,0.6094,0.5954,0.5879,0.5879,0.5744,0.568,0.568,0.5814,0.6008,0.6234,0.6234,0.0,0.6789,0.0,0.6816,0.0,0.0,0.0,0.0,0.7085,0.7085,0.7085,0.7085,0.7085,0.7085,0.0,0.7085,0.0,0.0,0.0,0.0,0.0,0.0,0.0,0.0,0.0,0.0,0.0,0.0,0.0,0.3545,0.0,0.2961,0.0,0.0,0.0,0.0,0.0,0.0,0.0,0.2201,0.0,0.0,0.0,0.2201,0.0,0.0,0.0,0.2201,0.2201,0.2215,0.2251,0.2253,0.2271,0.2264,0.2311,0.2338,0.2338,0.2391,0.2417,0.2417,0.2071,0.1951,0.1902,0.1094,0.0572,0.0342,-0.0199,-0.0615,-0.0906,-0.092,-0.0888,-0.0917,-0.0877,-0.0898,-0.0923,-0.1014,-0.1046,-0.1077,-0.109,-0.1103,-0.1119,0.6435,0.0,0.0,0.0,0.6227,0.6184,0.6142,0.6013,0.5976,0.5976,0.0,0.0,0.5933,0.5897,0.0,0.0,0.5978,0.5943,0.0,0.0,0.6121,0.6121,0.6299,0.0,0.0,0.6218,0.6121,0.6121,0.5954,0.5879,0.5879,0.6046,0.6256,0.6487,0.0,0.6708,0.7074,0.0,0.0,0.7085,0.7085,0.7085,0.7085,0.7085,0.7085,0.7085,0.7085,0.7085,0.7085,0.7085,0.7085,0.0,0.7085,0.0,0.0,0.0,0.0,0.0,0.7085,0.0,0.0,0.0,0.0,0.0,0.0,0.0,0.0,0.0,0.0,0.0,0.0,0.0,0.2201,0.2201,0.0,0.2201,0.0,0.2201,0.0,0.0,0.0,0.0,0.0,0.2201,0.2201,0.2201,0.2201,0.2201,0.2201,0.2259,0.2292,0.2292,0.2311,0.2295,0.2147,0.1759,0.1499,0.1358,0.0454,-0.0,-0.0,-0.057,-0.0842,-0.0893,-0.0902,-0.0923,-0.0899,-0.0921,-0.0877,-0.0886,-0.0967,-0.1012,-0.1064,-0.1064,-0.1074,-0.1095,0.5761,0.6013,0.0,0.0,0.0,0.6142,0.6019,0.0,0.0,0.0,0.0,0.0,0.0,0.0,0.0,0.0,0.0,0.6374,0.6385,0.0,0.6385,0.6385,0.639,0.6396,0.0,0.0,0.6385,0.6385,0.6374,0.6374,0.6374,0.6379,0.6503,0.6673,0.6673,0.6859,0.7085,0.7074,0.7079,0.7085,0.7085,0.7085,0.7085,0.0,0.7085,0.7085,0.7085,0.0,0.0,0.7085,0.7085,0.0,0.0,0.0,0.0,0.0,0.0,0.0,0.0,0.0,0.0,0.5554,0.0,0.0,0.0,0.0,0.2971,0.0,0.0,0.0,0.0,0.2257,0.2201,0.2201,0.2201,0.0,0.0,0.0,0.0,0.0,0.0,0.0,0.0,0.2201,0.2201,0.2201,0.2201,0.2201,0.2201,0.2203,0.2205,0.2205,0.2207,0.1936,0.1439,0.1437,0.1166,0.0717,0.0224,-0.0,-0.0,-0.0562,-0.078,-0.081,-0.0892,-0.0923,-0.0898,-0.0898,-0.0916,-0.0884,-0.0885,-0.092,-0.1035,-0.1035,-0.1071,-0.112,0.0,0.0,0.0,0.0,0.0,0.0,0.0,0.6142,0.0,0.0,0.0,0.0,0.0,0.6884,0.6837,0.0,0.0,0.6622,0.6622,0.6622,0.0,0.0,0.0,0.6853,0.0,0.0,0.0,0.6622,0.6471,0.6396,0.6396,0.6546,0.6609,0.6689,0.6896,0.7009,0.0,0.0,0.0,0.0,0.0,0.7085,0.7085,0.0,0.7085,0.7085,0.7085,0.7085,0.0,0.7085,0.7085,0.7085,0.7085,0.7085,0.7085,0.7085,0.7085,0.7031,0.6593,0.0,0.5636,0.4941,0.0,0.0,0.0,0.0,0.0,0.0,0.0,0.0,0.0,0.2257,0.2201,0.2201,0.2201,0.2201,0.0,0.0,0.0,0.0,0.0,0.0,0.0,0.0,0.2201,0.2201,0.2201,0.2201,0.2201,0.2201,0.202,0.1703,0.1658,0.1433,0.094,0.0626,0.0403,0.0224,-0.0224,-0.0449,-0.0449,-0.0638,-0.075,-0.078,-0.081,-0.0839,-0.0923,-0.0889,-0.0903,-0.0913,-0.0913,-0.0938,-0.0917,-0.0955,-0.1058,-0.1097,0.6142,0.0,0.0,0.0,0.0,0.0,0.0,0.0,0.0,0.0,0.6945,0.0,0.7331,0.0,0.7302,0.0,0.7031,0.6903,0.6864,0.6859,0.0,0.6859,0.7004,0.0,0.0,0.0,0.0,0.0,0.6713,0.6638,0.6643,0.6789,0.6859,0.6864,0.7015,0.7085,0.7085,0.0,0.7085,0.0,0.0,0.7085,0.0,0.0,0.7085,0.7085,0.0,0.7085,0.7085,0.7085,0.7085,0.7085,0.7085,0.7085,0.7085,0.7085,0.7085,0.6972,0.6372,0.5932,0.5441,0.468,0.4132,0.0,0.3186,0.0,0.295,0.0,0.0,0.0,0.0,0.2258,0.2246,0.2246,0.2246,0.2236,0.0,0.2201,0.0,0.0,0.0,0.0,0.0,0.0,0.2201,0.2201,0.2201,0.2201,0.2201,0.202,0.1748,0.1389,0.1254,0.094,0.0447,0.0134,-0.0089,-0.0269,-0.0539,-0.0719,-0.0719,-0.0719,-0.0736,-0.0814,-0.0795,-0.0824,-0.0908,-0.0885,-0.0898,-0.0898,-0.0898,-0.0916,-0.089,-0.0999,-0.1049,-0.1097,0.0,0.0,0.0,0.0,0.6276,0.0,0.0,0.0,0.7052,0.0,0.7346,0.7549,0.7356,0.7426,0.7346,0.716,0.7349,0.0,0.7122,0.7106,0.0,0.0,0.7085,0.7085,0.7085,0.0,0.0,0.0,0.0,0.7085,0.7085,0.7085,0.7085,0.7085,0.7085,0.0,0.7085,0.7085,0.7085,0.7085,0.7085,0.7085,0.7085,0.7085,0.7085,0.7085,0.7085,0.7085,0.7031,0.7031,0.7025,0.7031,0.7031,0.7031,0.7031,0.7031,0.7031,0.6864,0.6263,0.61,0.5828,0.4736,0.4291,0.3956,0.0,0.0,0.286,0.0,0.0,0.0,0.0,0.0,0.2282,0.2287,0.2287,0.2305,0.2217,0.0,0.0,0.0,0.0,0.0,0.0,0.2201,0.2201,0.2201,0.2154,0.2154,0.2154,0.1658,0.1344,0.1344,0.0895,0.0447,-0.0045,-0.0045,-0.0269,-0.0719,-0.0719,-0.0719,-0.0719,-0.0719,-0.0735,-0.0812,-0.0793,-0.0823,-0.0906,-0.0884,-0.0898,-0.0898,-0.0898,-0.0917,-0.089,-0.098,-0.1046,-0.1121,0.6056,0.6233,0.6325,0.0,0.6227,0.6184,0.0,0.0,0.0,0.0,0.7549,0.7882,0.818,0.8204,0.8145,0.7958,0.799,0.0,0.0,0.0,0.0,0.709,0.7085,0.7085,0.7085,0.7085,0.0,0.7085,0.0,0.7085,0.7085,0.7085,0.7085,0.7085,0.7085,0.0,0.7085,0.7085,0.7085,0.7085,0.7085,0.7085,0.7085,0.0,0.7085,0.7085,0.7085,0.681,0.6426,0.6426,0.615,0.5773,0.5773,0.5773,0.5773,0.5773,0.5773,0.5664,0.5062,0.4956,0.4736,0.391,0.3633,0.3466,0.3026,0.2916,0.0,0.0,0.0,0.0,0.0,0.0,0.2303,0.237,0.2383,0.2352,0.0,0.0,0.0,0.2207,0.0,0.0,0.0,0.2201,0.2201,0.2201,0.1839,0.1614,0.1614,0.1164,0.0716,0.0358,0.0224,-0.0045,-0.0494,-0.0539,-0.0584,-0.0719,-0.0719,-0.0719,-0.0719,-0.0719,-0.0723,-0.0733,-0.0785,-0.0811,-0.0823,-0.0875,-0.0898,-0.0898,-0.0898,-0.093,-0.098,-0.1011,-0.1064,-0.1121,0.6099,0.0,0.0,0.6487,0.0,0.0,0.6554,0.0,0.0,0.7378,0.7811,0.0,0.8339,0.8452,0.8414,0.8234,0.8115,0.0,0.7542,0.0,0.0,0.709,0.7085,0.7085,0.7085,0.7085,0.0,0.7085,0.0,0.7085,0.7085,0.7085,0.7085,0.7085,0.0,0.7085,0.0,0.7085,0.7085,0.7085,0.7085,0.7085,0.0,0.681,0.6701,0.6647,0.6426,0.6263,0.6154,0.5882,0.5609,0.5277,0.5277,0.5277,0.5277,0.5277,0.5277,0.5171,0.4625,0.446,0.4239,0.358,0.3302,0.3137,0.2916,0.286,0.2802,0.2691,0.2576,0.2493,0.2599,0.2522,0.2467,0.2468,0.2476,0.0,0.0,0.0,0.0,0.0,0.1839,0.0,0.1569,0.1928,0.202,0.1569,0.1433,0.1299,0.1119,0.0671,0.0268,-0.0,-0.0232,-0.0465,-0.072,-0.0745,-0.0745,-0.0719,-0.0719,-0.0719,-0.072,-0.0733,-0.0732,-0.0723,-0.0795,-0.0819,-0.0812,-0.0872,-0.0898,-0.0898,-0.0898,-0.0935,-0.099,-0.1007,-0.1051,-0.1101,0.0,0.0,0.0,0.0,0.0,0.0,0.0,0.7387,0.0,0.7703,0.0,0.8431,0.8283,0.8388,0.8431,0.8278,0.0,0.7758,0.7485,0.7279,0.7139,0.7149,0.7106,0.7085,0.7085,0.7085,0.0,0.0,0.7085,0.7085,0.7085,0.7085,0.7085,0.7085,0.0,0.0,0.0,0.7085,0.7085,0.7085,0.7085,0.7031,0.6918,0.6372,0.6154,0.5987,0.5391,0.555,0.5882,0.5391,0.5117,0.5062,0.5062,0.5062,0.5062,0.5062,0.5062,0.4952,0.446,0.4239,0.3959,0.3469,0.3137,0.2916,0.286,0.2802,0.2691,0.2691,0.2674,0.2611,0.2624,0.2626,0.2626,0.0,0.0,0.0,0.0,0.0,0.0,0.0,0.0,0.0,0.0,0.1433,0.1658,0.076,0.103,0.103,0.0626,0.0,-0.0089,-0.0089,-0.0528,-0.0773,-0.0726,-0.0772,-0.0772,-0.0725,-0.0721,-0.0719,-0.072,-0.0751,-0.0748,-0.0725,-0.0864,-0.0887,-0.0812,-0.0872,-0.0898,-0.0898,-0.0898,-0.0935,-0.0988,-0.0988,-0.1025,-0.1143,0.0,0.0,0.0,0.0,0.0,0.7801,0.7812,0.7995,0.8149,0.8082,0.8312,0.8501,0.8458,0.849,0.8501,0.8458,0.8226,0.0,0.0,0.0,0.0,0.7483,0.723,0.7085,0.7085,0.7085,0.7085,0.0,0.7085,0.7085,0.7085,0.7085,0.7085,0.7085,0.0,0.0,0.7085,0.7085,0.0,0.7085,0.7085,0.681,0.6372,0.6263,0.5882,0.5386,0.4846,0.468,0.4791,0.468,0.4298,0.3913,0.3913,0.3913,0.3913,0.3913,0.3913,0.3858,0.3635,0.3577,0.3466,0.3081,0.2916,0.286,0.2747,0.2691,0.2691,0.2691,0.2674,0.2632,0.2654,0.2666,0.2666,0.0,0.0,0.0,0.0,0.0,0.0,0.0,0.0,0.0626,0.0,0.0,0.0895,0.0716,0.0403,0.0224,0.0134,0.0,-0.0584,0.0,-0.0684,-0.0742,0.0,-0.0742,-0.0742,-0.0804,-0.0731,-0.0719,-0.072,-0.0751,-0.0748,-0.0725,-0.0864,-0.0887,-0.0812,-0.0872,-0.0898,-0.0898,-0.0898,-0.0935,-0.0988,-0.0988,-0.1025,-0.1076,0.0,0.0,0.0,0.0,0.0,0.0,0.0,0.8562,0.8613,0.8355,0.8334,0.8328,0.8328,0.8441,0.8517,0.8517,0.8178,0.7951,0.7908,0.7505,0.7279,0.7316,0.7165,0.0,0.7085,0.7085,0.7085,0.7085,0.7085,0.7085,0.7085,0.7085,0.7085,0.7085,0.0,0.6642,0.0,0.0,0.6154,0.6154,0.6154,0.5991,0.5714,0.5445,0.5117,0.4791,0.4242,0.4024,0.4024,0.4024,0.386,0.3585,0.3585,0.3585,0.3585,0.3585,0.3585,0.3583,0.3413,0.3302,0.319,0.297,0.286,0.2802,0.2691,0.2691,0.2691,0.2691,0.2656,0.2638,0.2683,0.2691,0.2691,0.0,0.0,0.0,0.0,0.0,0.0,0.0,0.0,0.0,0.0,0.0,0.0,0.0,0.0,-0.009,-0.0359,-0.0584,-0.0719,0.0,0.0,0.0,-0.0742,0.0,-0.0757,-0.0741,-0.0727,-0.0719,-0.072,-0.0766,-0.0762,-0.0725,-0.083,-0.0849,-0.0812,-0.0872,-0.0898,-0.0898,-0.0898,-0.0925,-0.0967,-0.0982,-0.1016,-0.1056,0.0,0.7483,0.0,0.0,0.831,0.0,0.8756,0.8952,0.8923,0.8619,0.8377,0.8289,0.8289,0.8398,0.8495,0.8441,0.8048,0.7801,0.7801,0.7349,0.7106,0.716,0.7112,0.7085,0.7085,0.7085,0.7085,0.7085,0.7085,0.7085,0.7085,0.7085,0.7031,0.6864,0.0,0.0,0.0,0.55,0.5277,0.5277,0.5277,0.5226,0.5062,0.468,0.4408,0.4245,0.3749,0.3585,0.3585,0.3585,0.3585,0.3585,0.3585,0.3585,0.3585,0.3585,0.3583,0.3527,0.3357,0.3188,0.3021,0.2916,0.2802,0.2691,0.2691,0.2691,0.2691,0.2691,0.2691,0.2691,0.2691,0.2577,0.2577,0.0,0.0,0.0,0.0,0.0,0.0,0.0,0.0,0.0,-0.0674,0.0,0.0,0.0,0.0,-0.0314,-0.0674,-0.0719,-0.0719,-0.0719,-0.0764,-0.0769,-0.0729,0.0,-0.0768,-0.0729,-0.0723,-0.0719,-0.0721,-0.078,-0.0778,-0.0735,-0.0849,-0.087,-0.083,-0.0877,-0.0898,-0.0898,-0.0898,-0.092,-0.0956,-0.098,-0.1012,-0.1046,0.0,0.0,0.0,0.0,0.0,0.0,0.9136,0.9157,0.9093,0.8861,0.8624,0.8479,0.8479,0.8501,0.8425,0.8261,0.7946,0.7801,0.7801,0.7349,0.7182,0.7351,0.7203,0.7085,0.7085,0.7085,0.7085,0.0,0.7085,0.7085,0.7085,0.7085,0.681,0.6263,0.6209,0.5882,0.5386,0.5332,0.5277,0.5277,0.5277,0.5007,0.457,0.4519,0.4135,0.3694,0.3641,0.3585,0.3585,0.3585,0.3585,0.3585,0.3585,0.3585,0.3585,0.3585,0.3527,0.3357,0.3188,0.3023,0.286,0.2747,0.2691,0.2691,0.2691,0.2691,0.2691,0.2691,0.2691,0.2691,0.2691,0.224,0.2071,0.2635,0.0,0.0,0.0,0.0,0.0,0.0,0.0,0.0,0.0,-0.0719,0.0,0.0,-0.0674,-0.0674,-0.0719,-0.0719,-0.0719,-0.0719,-0.0725,-0.0738,-0.0807,-0.0739,-0.0739,-0.0807,-0.0733,-0.0719,-0.0721,-0.078,-0.079,-0.0813,-0.0857,-0.0894,-0.089,-0.0895,-0.0898,-0.0898,-0.0898,-0.0933,-0.0984,-0.0987,-0.1024,-0.1072,0.0,0.0,0.0,0.0,0.0,0.0,0.0,0.92,0.9043,0.8694,0.8441,0.835,0.8501,0.8382,0.8316,0.8218,0.7935,0.7742,0.7544,0.7273,0.7128,0.7225,0.7139,0.7085,0.7085,0.7085,0.6918,0.0,0.0,0.6918,0.6534,0.6534,0.6263,0.566,0.5336,0.5062,0.4791,0.4408,0.4298,0.4298,0.4298,0.4132,0.3968,0.3968,0.3805,0.3585,0.3585,0.3585,0.3585,0.3585,0.3585,0.3585,0.3585,0.3585,0.3583,0.3527,0.3413,0.3357,0.3079,0.2914,0.286,0.2747,0.2691,0.2691,0.2691,0.2691,0.2691,0.2691,0.2691,0.2577,0.224,0.1959,0.1734,0.1621,0.0,0.0,0.0,0.0,0.0,0.0,0.0,0.0,0.0,0.0,0.0,0.0,0.0,-0.0719,-0.0719,-0.0719,-0.0719,-0.0719,-0.0719,-0.0734,-0.0813,-0.0735,-0.0735,-0.0813,-0.0734,-0.0719,-0.0721,-0.078,-0.0821,-0.0845,-0.0862,-0.0881,-0.0898,-0.0898,-0.0898,-0.0898,-0.0898,-0.0924,-0.0963,-0.0982,-0.1015,-0.1055,0.8809,0.0,0.8974,0.0,0.9179,0.9104,0.919,0.9129,0.9007,0.8646,0.8344,0.8305,0.8484,0.8361,0.8289,0.8218,0.7935,0.7698,0.741,0.7219,0.7085,0.7085,0.7085,0.0,0.6864,0.681,0.6534,0.5937,0.6372,0.6372,0.5937,0.5937,0.5605,0.5062,0.468,0.4408,0.419,0.3805,0.3585,0.3585,0.3585,0.3585,0.3585,0.3585,0.3585,0.3585,0.3585,0.3585,0.3585,0.3585,0.3585,0.3585,0.3585,0.3583,0.3527,0.3413,0.3302,0.3193,0.2972,0.286,0.2805,0.2747,0.2691,0.2691,0.2691,0.2691,0.2635,0.2465,0.241,0.224,0.1621,0.1399,0.1174,0.095,0.0224,0.0,0.0,-0.031,0.0,0.0,-0.0737,-0.0719,-0.0719,-0.0719,0.0,0.0,0.0,-0.0719,-0.0719,-0.0719,-0.0719,-0.0719,-0.0728,-0.0743,-0.0813,-0.0751,-0.0756,-0.0776,-0.0747,-0.0737,-0.0746,-0.0798,-0.0848,-0.0896,-0.0875,-0.0877,-0.0898,-0.0898,-0.0898,-0.0898,-0.0907,-0.0929,-0.096,-0.099,-0.102,-0.1053,0.9025,0.9171,0.9276,0.9529,0.9572,0.9486,0.9244,0.9012,0.8929,0.8929,0.8506,0.8305,0.8484,0.8511,0.8414,0.8234,0.7935,0.7698,0.741,0.7219,0.7085,0.0,0.0,0.681,0.6209,0.6209,0.5932,0.5336,0.0,0.5336,0.5336,0.5336,0.5007,0.4519,0.4519,0.4187,0.3585,0.3585,0.3585,0.3585,0.3585,0.3585,0.3585,0.3585,0.3585,0.3585,0.3585,0.3585,0.3585,0.3585,0.3585,0.3585,0.3585,0.3527,0.3413,0.3413,0.3137,0.2916,0.2916,0.2805,0.2691,0.2691,0.2691,0.2691,0.2691,0.2691,0.2521,0.1958,0.179,0.1621,0.1006,0.0448,0.0224,0.0783,-0.0112,0.0,0.0,-0.031,0.0,-0.0816,-0.0738,-0.0719,-0.0719,-0.0719,0.0,0.0,0.0,-0.0719,-0.0719,-0.0719,-0.0719,-0.0719,-0.0748,-0.0813,-0.0813,-0.0792,-0.0806,-0.0806,-0.0778,-0.0778,-0.0806,-0.089,-0.0923,-0.0898,-0.0897,-0.0897,-0.0898,-0.0898,-0.0898,-0.09,-0.0872,-0.0961,-0.0991,-0.1022,-0.1051,-0.108,0.9357,0.9439,0.9405,0.9486,0.9314,0.9179,0.92,0.9141,0.898,0.8667,0.8495,0.8425,0.8506,0.8366,0.8294,0.0,0.7935,0.7698,0.0,0.7219,0.6918,0.648,0.648,0.6209,0.5605,0.5609,0.5336,0.4736,0.5117,0.5117,0.4736,0.4736,0.4463,0.386,0.386,0.3805,0.3585,0.3585,0.3585,0.3585,0.3585,0.3585,0.3585,0.3585,0.3585,0.3585,0.3585,0.3585,0.3585,0.3585,0.3585,0.3583,0.3471,0.3413,0.3357,0.3137,0.2972,0.286,0.2802,0.2747,0.2691,0.2691,0.2691,0.2691,0.2691,0.2408,0.2015,0.1846,0.1454,0.1006,0.0392,0.0112,-0.0056,-0.028,-0.0673,-0.0831,-0.0535,0.0,-0.0819,-0.0723,-0.0709,-0.0696,-0.0721,-0.0719,0.0,0.0,0.0,0.0,-0.0719,-0.0693,-0.0703,-0.0701,-0.0729,-0.0753,-0.0824,-0.0813,-0.0817,-0.089,-0.0807,-0.0819,-0.0869,-0.0879,-0.0911,-0.0957,-0.0915,-0.0909,-0.0927,-0.0906,-0.091,-0.0871,-0.0881,-0.0913,-0.102,-0.103,-0.1052,-0.1083,0.9545,0.961,0.9577,0.94,0.9152,0.8969,0.8947,0.8947,0.8807,0.8431,0.835,0.8307,0.8253,0.8113,0.8153,0.8269,0.7989,0.7736,0.7533,0.7046,0.6588,0.6209,0.5991,0.5609,0.5007,0.5007,0.4736,0.419,0.4515,0.4515,0.419,0.419,0.3968,0.3585,0.3585,0.3585,0.3585,0.3585,0.3585,0.3585,0.3585,0.3585,0.3585,0.3585,0.3585,0.3585,0.3585,0.3585,0.3583,0.3527,0.3527,0.3479,0.3293,0.3249,0.3185,0.2983,0.286,0.2805,0.2747,0.2691,0.2691,0.2691,0.2691,0.2635,0.241,0.2071,0.1679,0.1231,0.0839,0.0392,-0.0224,-0.0336,-0.0449,-0.0842,-0.0898,-0.0887,-0.091,0.0,-0.0886,0.0,0.0,-0.0676,-0.0707,-0.0697,-0.069,0.0,0.0,0.0,0.0,-0.0707,-0.0721,-0.0778,-0.0757,-0.0781,-0.0852,-0.0845,-0.085,-0.0923,-0.085,-0.0855,-0.0881,-0.0892,-0.0918,-0.0952,-0.0914,-0.0909,-0.0925,-0.0917,-0.0926,-0.0886,-0.0907,-0.0937,-0.1035,-0.1046,-0.1068,-0.1099,0.9405,0.9564,0.9559,0.9168,0.8896,0.871,0.8424,0.8382,0.8366,0.8142,0.7963,0.7791,0.7779,0.7687,0.7857,0.8297,0.7976,0.7715,0.7655,0.6717,0.61,0.61,0.5555,0.5007,0.4463,0.4463,0.419,0.3585,0.3585,0.3585,0.3585,0.3585,0.3585,0.3585,0.3585,0.3585,0.3585,0.3585,0.3585,0.3585,0.3585,0.3585,0.3585,0.3585,0.3585,0.3585,0.3583,0.3583,0.3583,0.3413,0.3363,0.3329,0.3083,0.2999,0.2988,0.2904,0.2817,0.2701,0.2701,0.2697,0.2691,0.2691,0.2691,0.2465,0.1902,0.1679,0.1343,0.0224,-0.0056,-0.0224,-0.0785,-0.0898,-0.0898,-0.0898,-0.0898,-0.0887,-0.0913,-0.0909,-0.0897,-0.0915,-0.081,-0.0708,-0.0706,-0.0734,-0.072,0.0,0.0,0.0,0.0,-0.0771,-0.0783,-0.091,-0.0892,-0.0909,-0.0909,-0.0883,-0.0898,-0.0898,-0.0902,-0.0889,-0.0916,-0.0891,-0.0906,-0.0909,-0.0901,-0.09,-0.0905,-0.093,-0.0883,-0.0892,-0.0945,-0.1033,-0.1039,-0.1066,-0.1093,-0.1123,0.7642,0.7886,0.8036,0.7659,0.6976,0.6602,0.6872,0.7195,0.7442,0.739,0.6615,0.6427,0.7316,0.6806,0.6453,0.6607,0.6802,0.6702,0.624,0.5793,0.5336,0.4901,0.4791,0.4408,0.3805,0.3805,0.3749,0.3585,0.3585,0.3585,0.3585,0.3585,0.3585,0.3585,0.3585,0.3585,0.3585,0.3585,0.3585,0.3585,0.3585,0.3585,0.3585,0.3585,0.3585,0.3583,0.3471,0.3469,0.3413,0.3244,0.3241,0.3259,0.3047,0.3047,0.3101,0.3017,0.2905,0.2795,0.2795,0.2744,0.2691,0.2691,0.2352,0.1846,0.1229,0.0783,0.0336,0.0056,-0.0393,-0.0729,-0.0898,-0.0898,-0.0898,-0.0898,-0.0898,-0.0895,-0.0887,-0.0887,-0.0875,-0.0898,-0.0894,-0.0832,-0.086,-0.0851,-0.0797,-0.0697,0.0,-0.0757,-0.0882,-0.0884,-0.0886,-0.0894,-0.0926,-0.0887,-0.0887,-0.0894,-0.0898,-0.0898,-0.0945,-0.0963,-0.0956,-0.0963,-0.0991,-0.1029,-0.0937,-0.0924,-0.0964,-0.0924,-0.0935,-0.0979,-0.0994,-0.1027,-0.1067,-0.1073,-0.108,-0.1094,0.747,0.8064,0.826,0.6899,0.5814,0.5422,0.6535,0.6732,0.6798,0.6798,0.681,0.6666,0.6155,0.5739,0.5451,0.5451,0.5895,0.6054,0.5711,0.521,0.4787,0.4519,0.4242,0.3916,0.3585,0.3585,0.3585,0.3585,0.3585,0.3585,0.3585,0.3585,0.3585,0.3585,0.3585,0.3585,0.3585,0.3585,0.3585,0.3585,0.3585,0.3583,0.3527,0.3527,0.3471,0.3357,0.3299,0.3278,0.332,0.3145,0.3157,0.3251,0.3112,0.2853,0.2647,0.2617,0.2525,0.2413,0.2413,0.2125,0.1853,0.1881,0.166,0.1258,0.0629,0.0227,-0.0056,-0.0336,-0.0673,-0.0898,-0.0898,-0.0898,-0.0898,-0.0898,-0.0898,-0.0898,-0.0898,-0.0898,-0.0891,-0.0875,-0.0927,-0.092,-0.0903,-0.0888,-0.0879,-0.0776,-0.0776,-0.084,-0.0871,-0.0886,-0.0894,-0.0894,-0.091,-0.0918,-0.0918,-0.0918,-0.0918,-0.0919,-0.0952,-0.0968,-0.0968,-0.0968,-0.0985,-0.1012,-0.0961,-0.095,-0.0967,-0.0962,-0.0971,-0.0991,-0.1018,-0.1048,-0.1078,-0.1091,-0.1105,-0.1124,0.7543,0.8351,0.8429,0.6297,0.4993,0.4827,0.6408,0.6338,0.6071,0.6071,0.7075,0.7021,0.5005,0.4695,0.4622,0.4622,0.5076,0.5384,0.5384,0.4755,0.4353,0.4353,0.386,0.3585,0.3585,0.3585,0.3585,0.3585,0.3585,0.3585,0.3585,0.3585,0.3585,0.3585,0.3583,0.3583,0.3583,0.3527,0.3527,0.3527,0.3527,0.3471,0.3357,0.3357,0.3244,0.3074,0.3077,0.3142,0.3231,0.3053,0.3009,0.2989,0.2939,0.2455,0.1889,0.1999,0.1842,0.161,0.1729,0.1339,0.0856,0.0759,0.0764,0.0588,-0.0,-0.0115,-0.028,-0.0785,-0.0898,-0.0898,-0.0898,-0.0898,-0.0898,-0.0898,-0.0898,-0.0898,-0.0898,-0.0898,-0.0898,-0.0898,-0.0898,-0.0898,-0.0898,-0.0879,-0.092,-0.092,-0.0924,-0.0884,-0.091,-0.0935,-0.0952,-0.0956,-0.0892,-0.089,-0.089,-0.095,-0.095,-0.089,-0.089,-0.089,-0.089,-0.0886,-0.0886,-0.0891,-0.0967,-0.0965,-0.0953,-0.0996,-0.1005,-0.1062,-0.1109,-0.1135,-0.108,-0.111,-0.1138,-0.1165,0.5213,0.529,0.534,0.4716,0.4451,0.4367,0.4697,0.4697,0.4628,0.4628,0.4626,0.4722,0.5082,0.4339,0.3802,0.3802,0.3878,0.3943,0.3943,0.3816,0.3749,0.3749,0.3638,0.3585,0.3585,0.3585,0.3585,0.3585,0.3585,0.3585,0.3585,0.3585,0.3585,0.3585,0.3471,0.3413,0.3413,0.3244,0.3188,0.3188,0.3188,0.3188,0.3132,0.3132,0.313,0.3077,0.2968,0.2976,0.2995,0.2884,0.2568,0.2178,0.2187,0.177,0.127,0.1276,0.0785,0.0381,0.0889,0.0932,0.0724,0.0237,0.0118,-0.0,-0.0648,-0.0747,-0.0785,-0.0898,-0.0898,-0.0898,-0.0898,-0.0898,-0.0898,-0.0898,-0.0898,-0.0898,-0.0898,-0.0898,-0.0898,-0.0898,-0.0898,-0.0898,-0.0898,-0.0916,-0.0929,-0.0929,-0.0893,-0.0909,-0.0913,-0.0979,-0.1055,-0.1083,-0.0932,-0.092,-0.0982,-0.0982,-0.0982,-0.0982,-0.0982,-0.0982,-0.098,-0.0955,-0.0957,-0.0979,-0.0932,-0.1055,-0.1223,-0.1111,-0.114,-0.1278,-0.1196,-0.1161,-0.108,-0.111,-0.1124,-0.1136,0.4502,0.4439,0.4428,0.4319,0.43,0.43,0.43,0.4189,0.4105,0.4105,0.3895,0.3903,0.4321,0.3907,0.3585,0.3585,0.3585,0.3585,0.3585,0.3585,0.3585,0.3585,0.3585,0.3585,0.3585,0.3527,0.3471,0.3471,0.3357,0.3357,0.3357,0.3357,0.3357,0.3302,0.3244,0.3244,0.3244,0.313,0.3074,0.3074,0.3074,0.3077,0.2968,0.2968,0.2742,0.2404,0.2352,0.2115,0.1942,0.1858,0.1678,0.1485,0.151,0.1065,0.0538,0.0538,0.0263,-0.0,-0.0126,-0.0126,-0.0251,-0.0487,-0.0544,-0.0602,-0.0828,-0.092,-0.0898,-0.0898,-0.0898,-0.0898,-0.0898,-0.0898,-0.0898,-0.0898,-0.0898,-0.0898,-0.0898,-0.0911,-0.0922,-0.0922,-0.0877,-0.0887,-0.0887,-0.0899,-0.0907,-0.1028,-0.098,-0.0995,-0.1012,-0.1076,-0.109,-0.1121,-0.1028,-0.1013,-0.1076,-0.1013,-0.1013,-0.1012,-0.0996,-0.0997,-0.1011,-0.0904,-0.096,-0.0987,-0.0958,-0.1083,-0.1296,-0.1098,-0.1119,-0.1288,-0.1163,-0.1128,-0.1104,-0.1134,-0.1156,-0.1176,0.4336,0.43,0.4265,0.4153,0.4181,0.4235,0.4292,0.4091,0.3853,0.386,0.3729,0.3623,0.3588,0.3585,0.3585,0.3585,0.3585,0.3585,0.3585,0.3583,0.3583,0.3585,0.3583,0.3527,0.3527,0.3413,0.3357,0.3357,0.3188,0.3074,0.3074,0.3074,0.3074,0.3074,0.3077,0.3077,0.3021,0.2852,0.2794,0.2794,0.2627,0.2517,0.241,0.241,0.2071,0.1566,0.1566,0.1314,0.1002,0.1027,0.0937,0.084,0.0859,0.0334,-0.0269,-0.0269,-0.0265,-0.0387,-0.0865,-0.101,-0.1033,-0.0988,-0.0983,-0.098,-0.089,-0.092,-0.0898,-0.0898,-0.0898,-0.0898,-0.0898,-0.0898,-0.0898,-0.0898,-0.0898,-0.09,-0.0907,-0.0928,-0.0886,-0.0953,-0.0974,-0.0927,-0.0927,-0.0932,-0.0999,-0.1061,-0.1131,-0.1083,-0.1107,-0.1109,-0.1119,-0.1075,-0.112,-0.1109,-0.1109,-0.1044,-0.1044,-0.1043,-0.1013,-0.1007,-0.1021,-0.0907,-0.0956,-0.1039,-0.1039,-0.117,-0.1375,-0.1207,-0.1159,-0.1304,-0.12,-0.1094,-0.1125,-0.1164,-0.1192,-0.1216,0.4303,0.43,0.4159,0.3716,0.3816,0.4039,0.4265,0.4091,0.3857,0.364,0.3724,0.3748,0.3602,0.3585,0.3585,0.3585,0.3585,0.3585,0.3585,0.3471,0.3471,0.3585,0.3471,0.3413,0.3413,0.3244,0.313,0.313,0.313,0.3074,0.3074,0.3074,0.3074,0.3074,0.2968,0.2916,0.2858,0.2183,0.1902,0.1846,0.1285,0.1062,0.1062,0.1062,0.1006,0.095,0.095,0.097,0.0999,0.1001,0.0614,0.0064,0.0065,-0.0395,-0.1008,-0.1008,-0.1006,-0.0988,-0.0909,-0.1008,-0.1052,-0.0967,-0.0967,-0.098,-0.089,-0.092,-0.0898,-0.0898,-0.0898,-0.0898,-0.0898,-0.0898,-0.0898,-0.0898,-0.0898,-0.0907,-0.0877,-0.0883,-0.0954,-0.1043,-0.111,-0.1112,-0.1112,-0.1077,-0.1094,-0.1094,-0.112,-0.107,-0.1072,-0.1072,-0.1074,-0.1076,-0.1074,-0.1072,-0.1072,-0.1072,-0.1072,-0.1072,-0.1044,-0.1016,-0.099,-0.0958,-0.1003,-0.1183,-0.1183,-0.1344,-0.1602,-0.1503,-0.1407,-0.1274,-0.1276,-0.1231,-0.1128,-0.1187,-0.121,-0.1216,0.43,0.43,0.4194,0.386,0.3754,0.3816,0.4107,0.3903,0.3721,0.3732,0.3699,0.3651,0.3591,0.3585,0.3585,0.3585,0.3527,0.3471,0.3471,0.3302,0.3244,0.3299,0.3244,0.3188,0.3188,0.3079,0.297,0.297,0.2912,0.2687,0.2293,0.2293,0.2068,0.1732,0.1677,0.1677,0.1621,0.1342,0.1229,0.1229,0.1006,0.0894,0.0894,0.0894,0.0671,0.0336,0.0336,0.0113,-0.0172,-0.0239,-0.0365,-0.0554,-0.0651,-0.0856,-0.105,-0.105,-0.1036,-0.101,-0.0897,-0.0995,-0.1032,-0.09,-0.0892,-0.0952,-0.0922,-0.092,-0.0926,-0.0926,-0.0941,-0.0954,-0.0954,-0.0954,-0.0954,-0.0894,-0.0894,-0.0898,-0.0909,-0.0987,-0.1066,-0.1078,-0.1096,-0.1107,-0.1107,-0.1119,-0.1067,-0.1087,-0.108,-0.1084,-0.1103,-0.1086,-0.1076,-0.1076,-0.1076,-0.1076,-0.1076,-0.1076,-0.1076,-0.1075,-0.1047,-0.1037,-0.1041,-0.1117,-0.1165,-0.1246,-0.1344,-0.1489,-0.161,-0.1465,-0.1363,-0.128,-0.1234,-0.1193,-0.1154,-0.1196,-0.1224,-0.1319,0.43,0.4181,0.4069,0.4053,0.3833,0.3716,0.3887,0.3724,0.3567,0.3442,0.348,0.3471,0.3413,0.3413,0.3469,0.3469,0.3413,0.3357,0.3302,0.2963,0.2852,0.3074,0.3077,0.2965,0.274,0.2633,0.2465,0.2296,0.2183,0.1902,0.151,0.151,0.1285,0.0894,0.0894,0.0894,0.0894,0.0671,0.0615,0.0615,0.0391,0.0335,0.0335,0.0335,0.0056,-0.028,-0.028,-0.0561,-0.0904,-0.0945,-0.0952,-0.0895,-0.1026,-0.1048,-0.1045,-0.1036,-0.1025,-0.1009,-0.098,-0.0939,-0.0953,-0.0887,-0.0877,-0.0879,-0.0916,-0.0928,-0.0886,-0.0955,-0.0973,-0.0988,-0.0988,-0.0988,-0.0988,-0.0927,-0.0927,-0.0992,-0.0939,-0.102,-0.1102,-0.1111,-0.113,-0.1076,-0.1076,-0.1084,-0.1095,-0.1106,-0.1165,-0.1163,-0.1106,-0.1087,-0.1076,-0.1076,-0.1076,-0.1076,-0.1076,-0.1076,-0.1076,-0.1075,-0.1056,-0.1052,-0.1061,-0.1212,-0.1328,-0.1416,-0.1513,-0.1652,-0.1699,-0.1567,-0.1395,-0.1297,-0.1264,-0.1226,-0.1184,-0.1215,-0.1239,-0.1335,0.43,0.3914,0.3735,0.4213,0.4031,0.3767,0.3607,0.3585,0.336,0.2802,0.3079,0.3244,0.3019,0.3074,0.3077,0.3077,0.3188,0.3246,0.3077,0.2406,0.2294,0.3074,0.2968,0.2577,0.2015,0.1846,0.151,0.0894,0.0894,0.0894,0.0894,0.0894,0.0894,0.0894,0.0894,0.0894,0.0838,0.0224,-0.0,-0.0056,-0.0673,-0.0898,-0.0898,-0.0898,-0.0898,-0.0898,-0.0898,-0.0898,-0.0898,-0.0898,-0.0917,-0.0888,-0.0978,-0.1028,-0.1069,-0.1042,-0.1053,-0.1069,-0.1041,-0.0969,-0.1012,-0.0921,-0.0921,-0.0884,-0.0884,-0.0884,-0.0893,-0.0982,-0.0989,-0.0989,-0.0989,-0.0989,-0.0989,-0.0989,-0.1052,-0.1125,-0.1094,-0.1099,-0.1109,-0.1072,-0.1076,-0.1076,-0.1076,-0.1103,-0.1108,-0.1078,-0.1243,-0.1247,-0.1078,-0.1076,-0.1076,-0.1076,-0.1076,-0.1076,-0.1076,-0.1076,-0.1076,-0.1076,-0.1076,-0.1061,-0.1034,-0.1225,-0.1418,-0.1611,-0.1741,-0.1835,-0.1884,-0.1884,-0.171,-0.1406,-0.1372,-0.1333,-0.1215,-0.1246,-0.1335,-0.1335,0.43,0.3914,0.3629,0.3773,0.3719,0.364,0.3591,0.3585,0.353,0.336,0.328,0.3187,0.3028,0.314,0.3009,0.2542,0.2431,0.2142,0.1619,0.1358,0.1341,0.1564,0.151,0.1398,0.1229,0.1174,0.1062,0.0894,0.0894,0.0671,0.028,0.028,0.0056,-0.0336,-0.0336,-0.0336,-0.0392,-0.0561,-0.0617,-0.0673,-0.0842,-0.0898,-0.0898,-0.0898,-0.0898,-0.0898,-0.0898,-0.0898,-0.09,-0.0922,-0.0921,-0.0916,-0.0947,-0.0983,-0.1013,-0.1004,-0.1008,-0.1012,-0.1004,-0.1002,-0.0995,-0.0968,-0.0968,-0.0975,-0.0975,-0.0991,-0.0946,-0.1018,-0.1036,-0.105,-0.105,-0.1067,-0.1074,-0.1053,-0.1067,-0.1077,-0.1131,-0.113,-0.1133,-0.1074,-0.1076,-0.1076,-0.1076,-0.1103,-0.1126,-0.1209,-0.1168,-0.1162,-0.111,-0.1108,-0.1097,-0.1076,-0.1076,-0.1076,-0.1076,-0.1076,-0.121,-0.148,-0.1344,-0.1339,-0.1395,-0.1661,-0.1727,-0.1794,-0.1993,-0.1959,-0.1731,-0.1731,-0.1548,-0.1228,-0.126,-0.1204,-0.1215,-0.1246,-0.1335,-0.1335,0.4262,0.4066,0.3808,0.3618,0.3585,0.3527,0.3304,0.3411,0.3483,0.3256,0.2988,0.2701,0.2475,0.2409,0.2183,0.167,0.1597,0.1401,0.0922,0.0679,0.0559,0.0671,0.0336,0.028,0.0559,0.0559,0.0448,0.0168,0.0168,-0.0,-0.0336,-0.0336,-0.0561,-0.0898,-0.0898,-0.0898,-0.0898,-0.0898,-0.0898,-0.0898,-0.0898,-0.0898,-0.0898,-0.0898,-0.0898,-0.0898,-0.0898,-0.0898,-0.09,-0.0919,-0.0928,-0.0932,-0.0927,-0.097,-0.1018,-0.0995,-0.1005,-0.1023,-0.1023,-0.1023,-0.1023,-0.1023,-0.1005,-0.0991,-0.1003,-0.102,-0.104,-0.1063,-0.1082,-0.1097,-0.1109,-0.1127,-0.1129,-0.1167,-0.1109,-0.111,-0.108,-0.1086,-0.1093,-0.1093,-0.1093,-0.1098,-0.111,-0.1128,-0.1152,-0.1256,-0.119,-0.1178,-0.1212,-0.1127,-0.1112,-0.1094,-0.1082,-0.1076,-0.1076,-0.1496,-0.1631,-0.1547,-0.1564,-0.1641,-0.1641,-0.1847,-0.1927,-0.2015,-0.213,-0.2085,-0.1924,-0.1851,-0.1663,-0.1409,-0.143,-0.1372,-0.1386,-0.1485,-0.1572,-0.1572,0.4205,0.4265,0.4113,0.3719,0.3516,0.322,0.2657,0.3022,0.3175,0.2805,0.2269,0.1798,0.1387,0.1092,0.0835,0.0737,0.0721,0.0702,0.0738,0.0226,-0.0,0.0169,-0.0505,-0.0617,-0.0112,-0.0056,-0.0336,-0.0898,-0.0898,-0.0898,-0.0898,-0.0898,-0.0898,-0.0898,-0.0898,-0.0898,-0.0898,-0.0898,-0.0898,-0.0898,-0.0898,-0.0898,-0.0898,-0.0898,-0.0898,-0.0898,-0.0898,-0.0898,-0.0898,-0.0898,-0.0937,-0.0975,-0.0919,-0.098,-0.1061,-0.1008,-0.1032,-0.1076,-0.1076,-0.1078,-0.108,-0.108,-0.1042,-0.101,-0.1032,-0.1037,-0.1053,-0.111,-0.1121,-0.113,-0.1161,-0.1168,-0.116,-0.1201,-0.1127,-0.1119,-0.1088,-0.1108,-0.1125,-0.1125,-0.1125,-0.1136,-0.1091,-0.1096,-0.1183,-0.1289,-0.1264,-0.132,-0.1317,-0.1215,-0.1127,-0.1121,-0.1094,-0.1078,-0.1076,-0.2005,-0.2145,-0.1412,-0.1804,-0.1897,-0.1753,-0.1969,-0.2068,-0.2113,-0.2206,-0.2216,-0.227,-0.2051,-0.1932,-0.1749,-0.1825,-0.1696,-0.165,-0.1808,-0.1887,-0.1887,0.4205,0.3996,0.3825,0.4099,0.2865,0.175,0.1629,0.1923,0.2406,0.3013,0.1721,0.0439,-0.0373,0.0429,0.0733,0.0123,-0.0313,-0.0568,-0.0564,-0.0659,-0.07,-0.0641,-0.0796,-0.0842,-0.0729,-0.0729,-0.0785,-0.0898,-0.0898,-0.0898,-0.0898,-0.0898,-0.0898,-0.0898,-0.0898,-0.0898,-0.0898,-0.0898,-0.0898,-0.0898,-0.0898,-0.0898,-0.0898,-0.0898,-0.0898,-0.0898,-0.0898,-0.0898,-0.0898,-0.0898,-0.0922,-0.0891,-0.0879,-0.0984,-0.104,-0.1027,-0.1048,-0.1076,-0.1076,-0.1093,-0.1111,-0.1111,-0.1119,-0.1117,-0.1076,-0.1067,-0.1077,-0.1113,-0.1121,-0.113,-0.1088,-0.1186,-0.1191,-0.1161,-0.1103,-0.1107,-0.1079,-0.1081,-0.1157,-0.1229,-0.1229,-0.1231,-0.1093,-0.1188,-0.1291,-0.1322,-0.1319,-0.1304,-0.1278,-0.127,-0.1243,-0.1123,-0.1114,-0.1099,-0.1076,-0.2005,-0.2214,-0.1749,-0.2122,-0.2219,-0.2105,-0.2223,-0.225,-0.2261,-0.2249,-0.2204,-0.2106,-0.2106,-0.1907,-0.1638,-0.1794,-0.18,-0.165,-0.1808,-0.1887,-0.1886,0.3909,0.3757,0.3208,0.1972,0.0851,0.0382,0.0989,0.129,0.1843,0.2845,0.166,0.0322,-0.0868,-0.0367,-0.0121,-0.0422,-0.0796,-0.0997,-0.1011,-0.0955,-0.0928,-0.0942,-0.0928,-0.0913,-0.0898,-0.0912,-0.0912,-0.0898,-0.0912,-0.0912,-0.0898,-0.0913,-0.0911,-0.0898,-0.0898,-0.0898,-0.0898,-0.0898,-0.0898,-0.0898,-0.0898,-0.0898,-0.0898,-0.0898,-0.0898,-0.0898,-0.0898,-0.0898,-0.09,-0.0914,-0.0939,-0.0965,-0.0965,-0.1005,-0.1051,-0.1037,-0.1054,-0.1076,-0.1076,-0.1098,-0.1121,-0.1121,-0.1144,-0.1158,-0.1126,-0.1119,-0.1127,-0.1158,-0.1164,-0.1174,-0.1204,-0.1223,-0.1224,-0.1193,-0.1201,-0.1201,-0.117,-0.1179,-0.1188,-0.1262,-0.1337,-0.1262,-0.1188,-0.1228,-0.1262,-0.1278,-0.1279,-0.1272,-0.1334,-0.1304,-0.1272,-0.1166,-0.1151,-0.1206,-0.1399,-0.194,-0.2084,-0.196,-0.2262,-0.2361,-0.233,-0.2361,-0.2391,-0.2417,-0.2388,-0.2335,-0.2312,-0.2157,-0.2019,-0.1884,-0.1962,-0.1962,-0.1884,-0.212,-0.2199,-0.2199,0.3081,0.2965,0.2148,-0.0455,-0.0994,-0.0654,0.0755,0.0847,0.1039,0.1937,0.1307,0.0321,-0.0856,-0.0962,-0.0952,-0.0884,-0.0893,-0.0969,-0.0994,-0.0944,-0.0924,-0.1009,-0.0941,-0.0924,-0.0898,-0.0922,-0.0922,-0.0898,-0.0928,-0.0927,-0.0898,-0.0928,-0.0926,-0.0898,-0.0898,-0.0898,-0.0898,-0.0898,-0.0898,-0.0898,-0.0898,-0.0898,-0.0898,-0.0898,-0.0898,-0.0898,-0.0898,-0.0901,-0.0909,-0.0876,-0.0967,-0.0996,-0.0996,-0.1033,-0.1071,-0.1048,-0.1057,-0.1077,-0.1082,-0.1106,-0.113,-0.1135,-0.1159,-0.1182,-0.1182,-0.1174,-0.1175,-0.1205,-0.1212,-0.1221,-0.1251,-0.1335,-0.1327,-0.13,-0.1296,-0.1286,-0.1334,-0.1279,-0.1296,-0.1296,-0.1296,-0.1296,-0.1296,-0.127,-0.1303,-0.1303,-0.1303,-0.1303,-0.1303,-0.1328,-0.1293,-0.1288,-0.1336,-0.1539,-0.1897,-0.1945,-0.2025,-0.2204,-0.2411,-0.2433,-0.242,-0.2429,-0.2463,-0.2507,-0.2458,-0.2463,-0.251,-0.2353,-0.2196,-0.2196,-0.2275,-0.2196,-0.2198,-0.2443,-0.2519,-0.2512,0.09,0.0503,0.0344,-0.0061,-0.0686,-0.0507,0.1252,0.02,-0.0735,-0.0592,-0.0609,-0.0689,-0.0911,-0.093,-0.0885,-0.0884,-0.0929,-0.0959,-0.1027,-0.0995,-0.0977,-0.0982,-0.0932,-0.0902,-0.0898,-0.0902,-0.0902,-0.0898,-0.0928,-0.0927,-0.0898,-0.0928,-0.0926,-0.0898,-0.0898,-0.0898,-0.0898,-0.0898,-0.0898,-0.0898,-0.0898,-0.0898,-0.0898,-0.0898,-0.0898,-0.0898,-0.0898,-0.0914,-0.0879,-0.0883,-0.092,-0.1027,-0.1027,-0.105,-0.1075,-0.1071,-0.1072,-0.1081,-0.1108,-0.1137,-0.1167,-0.1193,-0.1222,-0.1322,-0.1322,-0.128,-0.1175,-0.1205,-0.1212,-0.1221,-0.1251,-0.1335,-0.1334,-0.133,-0.1329,-0.1327,-0.1323,-0.1327,-0.1329,-0.1329,-0.1329,-0.1329,-0.1329,-0.1282,-0.1303,-0.1384,-0.1384,-0.1384,-0.1303,-0.127,-0.1317,-0.1288,-0.1964,-0.2314,-0.2409,-0.2395,-0.2422,-0.2414,-0.2471,-0.2471,-0.2421,-0.2474,-0.2503,-0.251,-0.2501,-0.2503,-0.2511,-0.2431,-0.2353,-0.2196,-0.2353,-0.2353,-0.2201,-0.2489,-0.2556,-0.2518,0.0237,-0.0296,-0.0483,-0.0512,-0.0777,-0.0718,-0.0,-0.0604,-0.1076,-0.1076,-0.1032,-0.1024,-0.1004,-0.093,-0.0917,-0.0917,-0.0942,-0.0972,-0.1006,-0.0964,-0.0945,-0.0962,-0.0937,-0.0915,-0.0898,-0.0914,-0.0915,-0.0898,-0.0928,-0.0927,-0.0898,-0.0928,-0.0926,-0.0898,-0.0898,-0.0898,-0.0898,-0.0898,-0.0898,-0.0898,-0.0898,-0.0898,-0.0898,-0.0898,-0.0898,-0.09,-0.0917,-0.0873,-0.0889,-0.0921,-0.0948,-0.1036,-0.1052,-0.1065,-0.1076,-0.1076,-0.1087,-0.1104,-0.1117,-0.1155,-0.1195,-0.1209,-0.1235,-0.1335,-0.1335,-0.1314,-0.1221,-0.1234,-0.1237,-0.1241,-0.1333,-0.1335,-0.1335,-0.1335,-0.1335,-0.1335,-0.1335,-0.1335,-0.1335,-0.1335,-0.1729,-0.1817,-0.1361,-0.1309,-0.1333,-0.1435,-0.142,-0.1411,-0.1328,-0.1283,-0.1329,-0.1315,-0.2089,-0.2463,-0.2509,-0.2537,-0.2491,-0.2525,-0.2549,-0.2529,-0.2471,-0.2497,-0.2511,-0.2512,-0.2546,-0.2542,-0.2514,-0.2548,-0.2462,-0.2353,-0.2431,-0.2431,-0.2357,-0.246,-0.2533,-0.2519]},{"header":{"parameterUnit":"m.s-1","parameterCategory":1,"la1":30.6,"la2":28.766,"lo1":-90.7593,"lo2":-88.6598,"dy":0.0162,"dx":0.0183,"nx":116,"ny":114,"refTime":"2023-06-06T06:00:00:Z","depth":0,"parameterNumber":3,"parameterNumberName":"V-component_of_WINDS"},"data":[0.0,0.0,0.0,0.0,0.0,0.0,0.0,0.0,0.0,0.0,0.0,0.0,0.0,0.0,0.0,0.0,0.0,0.0,0.0,0.0,0.0,0.0,0.0,0.0,0.0,0.0,0.0,0.0,0.0,0.0,0.0,0.0,0.0,0.0,0.0,0.0,0.0,0.0,0.0,0.0,0.0,0.0,0.0,0.0,0.0,0.0,0.0,0.0,0.0,0.0,0.0,0.0,0.0,0.0,0.0,0.0,0.0,0.0,0.0,0.0,0.0,0.0,0.0,0.0,0.0,0.0,0.0,0.0,0.0,0.0,0.0,0.0,0.0,0.0,0.0,0.0,0.0,0.0,0.0,0.0,0.0,0.0,0.0,0.0,0.0,0.0,0.0,0.0,0.0,0.0,0.0,0.0,0.0,0.0,0.0,0.0,0.0,0.0,0.0,0.0,0.0,0.0,0.0,0.0,0.0,0.0,0.0,0.0,0.0,0.0,0.0,0.0,0.0,0.0,0.0,0.0,0.0,0.0,0.0,0.0,0.0,0.0,0.0,0.0,0.0,0.0,0.0,0.0,0.0,0.0,0.0,0.0,0.0,0.0,0.0,0.0,0.0,0.0,0.0,0.0,0.0,0.0,0.0,0.0,0.0,0.0,0.0,0.0,0.0,0.0,0.0,0.0,0.0,0.0,0.0,0.0,0.0,0.0,0.0,0.0,0.0,0.0,0.0,0.0,0.0,0.0,0.0,0.0,0.0,0.0,0.0,0.0,0.0,0.0,0.0,0.0,0.0,0.0,0.0,0.0,0.0,0.0,0.0,0.0,0.0,0.0,0.0,0.0,0.0,0.0,0.0,0.0,0.0,0.0,0.0,0.0,0.0,0.0,0.0,0.0,0.0,0.0,0.0,0.0,0.0,0.0,0.0,0.0,0.0,0.0,0.0,0.0,0.0,0.0,0.0,0.0,0.0,0.0,0.0,0.0,0.0,0.0,0.0,0.0,0.0,0.0,0.0,0.0,0.0,0.0,0.0,0.0,0.0,0.0,0.0,0.0,0.0,0.0,0.0,0.0,0.0,0.0,0.0,0.0,0.0,0.0,0.0,0.0,0.0,0.0,0.0,0.0,0.0,0.0,0.0,0.0,0.0,0.0,0.0,0.0,0.0,0.0,0.0,0.0,0.0,0.0,0.0,0.0,0.0,0.0,0.0,0.0,0.0,0.0,0.0,0.0,0.0,0.0,0.0,0.0,0.0,0.0,0.0,0.0,0.0,0.0,0.0,0.0,0.0,0.0,0.0,0.0,0.0,0.0,0.0,0.0,0.0,0.0,0.0,0.0,0.0,0.0,0.0,0.0,0.0,0.0,0.0,0.0,0.0,0.0,0.0,0.0,0.0,0.0,0.0,0.0,0.0,0.0,0.0,0.0,0.0,0.0,0.0,0.0,0.0,0.0,0.0,0.0,0.0,0.0,0.0,0.0,0.0,0.0,0.0,0.0,0.0,0.0,0.0,0.0,0.0,0.0,0.0,0.0,0.0,0.0,0.0,0.0,0.0,0.0,0.0,0.0,0.0,0.0,0.0,0.0,0.0,0.0,0.0,0.0,0.0,0.0,0.0,0.0,0.0,0.0,0.0,0.0,0.0,0.0,0.0,0.0,0.0,0.0,0.0,0.0,0.0,0.0,0.0,0.0,0.0,0.0,0.0,0.0,0.0,0.0,0.0,0.0,0.0,0.0,0.0,0.0,0.0,0.0,0.0,0.0,0.0,0.0,0.0,0.0,0.0,0.0,0.0,0.0,0.0,0.0,0.0,0.0,0.0,0.0,0.0,0.0,0.0,0.0,0.0,0.0,0.0,0.0,0.0,0.0,0.0,0.0,0.0,0.0,0.0,0.0,0.0,0.0,0.0,0.0,0.0,0.0,0.0,0.0,0.0,0.0,0.0,0.0,0.0,0.0,0.0,0.0,0.0,0.0,0.0,0.0,0.0,0.0,0.0,0.0,0.0,0.0,0.0,0.0,0.0,0.0,0.0,0.0,0.0,0.0,0.0,0.0,0.0,0.0,0.0,0.0,0.0,0.0,0.0,0.0,0.0,0.0,0.0,0.0,0.0,0.0,0.0,0.0,0.0,0.0,0.0,0.0,0.0,0.0,0.0,0.0,0.0,0.0,0.0,0.0,0.0,0.0,0.0,0.0,0.0,0.0,0.0,0.0,0.0,0.0,0.0,0.0,0.0,0.0,0.0,0.0,0.0,0.0,0.0,0.0,0.0,0.0,0.0,0.0,0.0,0.0,0.0,0.0,0.0,0.0,0.0,0.0,0.0,0.0,0.0,0.0,0.0,0.0,0.0,0.0,0.0,0.0,0.0,0.0,0.0,0.0,0.0,0.0,0.0,0.0,0.0,0.0,0.0,0.0,0.0,0.0,0.0,0.0,0.0,0.0,0.0,0.0,0.0,0.0,0.0,0.0,0.0,0.0,0.0,0.0,0.0,0.0,0.0,0.0,0.0,0.0,0.0,0.0,0.0,0.0,0.0,0.0,0.0,0.0,0.0,0.0,0.0,0.0,0.0,0.0,0.0,0.0,0.0,0.0,0.0,0.0,0.0,0.0,0.0,0.0,0.0,0.0,0.0,0.0,0.0,0.0,0.0,0.0,0.0,0.0,0.0,0.0,0.0,0.0,0.0,0.0,0.0,0.0,0.0,0.0,0.0,0.0,0.0,0.0,0.0,0.0,0.0,0.0,0.0,0.0,0.0,0.0,0.0,0.0,0.0,0.0,0.0,0.0,0.0,0.0,0.0,0.0,0.0,0.0,0.0,0.0,0.0,0.0,0.0,0.0,0.0,0.0,0.0,0.0,0.0,0.0,0.0,0.0,0.0,0.0,0.0,0.0,0.0,0.0,0.0,0.0,0.0,0.0,0.0,0.0,0.0,0.0,0.0,0.0,0.0,0.0,0.0,0.0,0.0,0.0,0.0,0.0,0.0,0.0,0.0,0.0,0.0,0.0,0.0,0.0,0.0,0.0,0.0,0.0,0.0,0.0,0.0,0.0,0.0,0.0,0.0,0.0,0.0,0.0,0.0,0.0,0.0,0.0,0.0,0.0,0.0,0.0,0.0,0.0,0.0,0.0,0.0,0.0,0.0,0.0,0.0,0.0,0.0,0.0,0.0,0.0,0.0,0.0,0.0,0.0,0.0,0.0,0.0,0.0,0.0,0.0,0.0,0.0,0.0,0.0,0.0,0.0,0.0,0.0,0.0,0.0,0.0,0.0,0.0,0.0,0.0,0.0,0.0,0.0,0.0,0.0,0.0,0.0,0.0,0.0,0.0,0.0,0.0,0.0,0.0,0.0,0.0,0.0,0.0,0.0,0.0,0.0,0.0,0.0,0.0,0.0,0.0,0.0,0.0,0.0,0.0,0.0,0.0,0.0,0.0,0.0,0.0,0.0,0.0,0.0,0.0,0.0,0.0,0.0,0.0,0.0,0.0,0.0,0.0,0.0,0.0,0.0,0.0,0.0,0.0,0.0,0.0,0.0,0.0,0.0,0.0,0.0,0.0,0.0,0.0,0.0,0.0,0.0,0.0,0.0,0.0,0.0,0.0,0.0,0.0,0.0,0.0,0.0,0.0,0.0,0.0,0.0,0.0,0.0,0.0,0.0,0.0,0.0,0.0,0.0,0.0,0.0,0.0,0.0,0.0,0.0,0.0,0.0,0.0,0.0,0.0,0.0,0.0,0.0,0.0,0.0,0.0,0.0,0.0,0.0,0.0,0.0,0.0,0.0,0.0,0.0,0.0,0.0,0.0,0.0,0.0,0.0,0.0,0.0,0.0,0.0,0.0,0.0,0.0,0.0,0.0,0.0,0.0,0.0,0.0,0.0,0.0,0.0,0.0,0.0,0.0,0.0,0.0,0.0,0.0,0.0,0.0,0.0,0.0,0.0,0.0,0.0,0.0,0.0,0.0,0.0,0.0,0.0,0.0,0.0,0.0,0.0,0.0,0.0,0.0,0.0,0.0,0.0,0.0,0.0,0.0,0.0,0.0,0.0,0.0,0.0,0.0,0.0,0.0,0.0,0.0,0.0,0.0,0.0,0.0,0.0,0.0,0.0,0.0,0.0,0.0,0.0,0.0,0.0,0.0,0.0,0.0,0.0,0.0,0.0,0.0,0.0,0.0,0.0,0.0,0.0,0.0,0.0,0.0,0.0,0.0,0.0,0.0,0.0,0.0,0.0,0.0,0.0,0.0,0.0,0.0,0.0,0.0,0.0,0.0,0.0,0.0,0.0,0.0,0.0,0.0,0.0,0.0,0.0,0.0,0.0,0.0,0.0,0.0,0.0,0.0,0.0,0.0,0.0,0.0,0.0,0.0,0.0,0.0,0.0,0.0,0.0,0.0,0.0,0.0,0.0,0.0,0.0,0.0,0.0,0.0,0.0,0.0,0.0,0.0,0.0,0.0,0.0,0.0,0.0,0.0,0.0,0.0,0.0,0.0,0.0,0.0,0.0,0.0,0.0,0.0,0.0,0.0,0.0,0.0,0.0,0.0,0.0,0.0,0.0,0.0,0.0,0.0,0.0,0.0,0.0,0.0,0.0,0.0,0.0,0.0,0.0,0.0,0.0,0.0,0.0,0.0,0.0,0.0,0.0,0.0,0.0,0.0,0.0,0.0,0.0,0.0,0.0,0.0,0.0,0.0,0.0,0.0,0.0,0.0,0.0,0.0,0.0,0.0,0.0,0.0,0.0,0.0,0.0,0.0,0.0,0.0,0.0,0.0,0.0,0.0,0.0,0.0,0.0,0.0,0.0,0.0,0.0,0.0,0.0,0.0,0.0,0.0,0.0,0.0,0.0,0.0,0.0,0.0,0.0,0.0,0.0,0.0,0.0,0.0,0.0,0.0,0.0,0.0,0.0,0.0,0.0,0.0,0.0,0.0,0.0,0.0,0.0,0.0,0.0,0.0,0.0,0.0,0.0,0.0,0.0,0.0,0.0,0.0,0.0,0.0,0.0,0.0,0.0,0.0,0.0,0.0,0.0,0.0,0.0,0.0,0.0,0.0,0.0,0.0,0.0,0.0,0.0,0.0,0.0,0.0,0.0,0.0,0.0,0.0,0.0,0.0,0.0,0.0,0.0,0.0,0.0,0.0,0.0,0.0,0.0,0.0,0.0,0.0,0.0,0.0,0.0,0.0,0.0,0.0,0.0,0.0,0.0,0.0,0.0,0.0,0.0,0.0,0.0,0.0,0.0,0.0,0.0,0.0,0.0,0.0,0.0,0.0,0.0,0.0,0.0,0.0,0.0,0.0,0.0,0.0,0.0,0.0,0.0,0.0,0.0,0.0,0.0,0.0,0.0,0.0,0.0,0.0,0.0,0.0,0.0,0.0,0.0,0.0,0.0,0.0,0.0,0.0,0.0,0.0,0.0,0.0,0.0,0.0,0.0,0.0,0.0,0.0,0.0,0.0,0.0,0.0,0.0,0.0,0.0,0.0,0.0,0.0,0.0,0.0,0.0,0.0,0.0,0.0,0.0,0.0,0.0,0.0,0.0,0.0,0.0,0.0,0.0,0.0,0.0,0.0,0.0,0.0,0.0,0.0,0.0,0.0,0.0,0.0,0.0,0.0,0.0,0.0,0.0,0.0,0.0,0.0,0.0,0.0,0.0,0.0,0.0,0.0,0.0,0.0,0.0,0.0,0.0,0.0,0.0,0.0,0.0,0.0,0.0,0.0,0.0,0.0,0.0,0.0,0.0,0.0,0.0,0.0,0.0,0.0,0.0,0.0,0.0,0.0,0.0,0.0,0.0,0.0,0.0,0.0,0.0,0.0,0.0,0.0,0.0,0.0,0.0,0.0,0.0,0.0,0.0,0.0,0.0,0.0,0.0,0.0,0.0,0.0,0.0,0.0,0.0,0.0,0.0,0.0,0.0,0.0,0.0,0.0,0.0,0.0,0.0,0.0,0.0,0.0,0.0,0.0,0.0,0.0,0.0,0.0,0.0,0.0,0.0,0.0,0.0,0.0,0.0,0.0,0.0,0.0,0.0,0.0,0.0,0.0,0.0,0.0,0.0,0.0,0.0,0.0,0.0,0.0,0.0,0.0,0.0,-1.9582,0.0,0.0,0.0,0.0,0.0,0.0,0.0,0.0,0.0,0.0,0.0,0.0,0.0,0.0,0.0,0.0,0.0,0.0,0.0,0.0,0.0,0.0,0.0,0.0,0.0,0.0,0.0,0.0,0.0,0.0,0.0,0.0,0.0,0.0,0.0,0.0,0.0,0.0,-1.9246,-1.9259,-1.9413,-1.9699,-1.978,-1.9627,-1.9246,0.0,0.0,0.0,0.0,0.0,0.0,0.0,0.0,0.0,0.0,0.0,0.0,0.0,0.0,0.0,0.0,0.0,0.0,0.0,0.0,0.0,0.0,0.0,0.0,0.0,0.0,0.0,0.0,0.0,0.0,0.0,0.0,0.0,0.0,0.0,0.0,0.0,0.0,0.0,0.0,0.0,0.0,0.0,0.0,0.0,0.0,0.0,0.0,0.0,0.0,0.0,0.0,0.0,0.0,0.0,0.0,0.0,0.0,0.0,0.0,0.0,0.0,0.0,0.0,0.0,0.0,0.0,0.0,0.0,0.0,0.0,-2.1365,0.0,0.0,0.0,0.0,0.0,0.0,0.0,0.0,0.0,0.0,0.0,0.0,0.0,0.0,0.0,0.0,0.0,0.0,0.0,0.0,0.0,0.0,0.0,-1.4926,-1.5357,-1.618,-1.7015,-1.7821,0.0,0.0,0.0,0.0,0.0,0.0,0.0,-1.9353,-1.9292,-1.9087,-1.9519,-2.0155,-2.0968,-2.1254,-2.1147,-2.0717,-1.9866,0.0,0.0,0.0,0.0,0.0,0.0,0.0,0.0,0.0,0.0,0.0,0.0,0.0,0.0,0.0,0.0,0.0,0.0,0.0,0.0,0.0,0.0,0.0,0.0,0.0,0.0,0.0,0.0,0.0,0.0,0.0,0.0,0.0,0.0,0.0,0.0,0.0,0.0,0.0,0.0,0.0,0.0,0.0,0.0,0.0,0.0,0.0,0.0,0.0,0.0,0.0,0.0,0.0,0.0,0.0,0.0,0.0,0.0,0.0,0.0,0.0,0.0,0.0,-2.7232,-2.8334,-2.8783,-2.9701,-3.019,-3.0152,-2.6716,-2.4445,-2.313,-2.2698,0.0,0.0,0.0,0.0,0.0,0.0,0.0,0.0,0.0,0.0,0.0,0.0,0.0,0.0,0.0,0.0,0.0,0.0,0.0,0.0,0.0,-1.5431,-1.6196,-1.6824,-1.7715,-1.8546,-1.923,0.0,0.0,0.0,0.0,0.0,-1.938,-1.9341,-1.9235,-1.9087,-2.1206,-2.2962,-2.4371,-2.5783,-2.676,-2.7158,-2.2914,-2.2211,-2.4031,0.0,0.0,0.0,0.0,0.0,0.0,0.0,0.0,0.0,0.0,0.0,0.0,0.0,0.0,0.0,0.0,0.0,0.0,0.0,0.0,0.0,0.0,0.0,0.0,0.0,0.0,0.0,0.0,0.0,0.0,0.0,0.0,0.0,0.0,0.0,0.0,0.0,0.0,0.0,0.0,0.0,-1.9122,-1.912,0.0,0.0,0.0,0.0,0.0,0.0,0.0,0.0,0.0,0.0,0.0,0.0,0.0,-2.5869,-2.7138,-2.8932,-2.9513,-2.8876,-3.1369,-3.1859,-3.0602,-3.141,-3.2198,-3.2893,-3.233,0.0,-2.6397,-2.4219,0.0,0.0,0.0,0.0,0.0,0.0,0.0,0.0,0.0,0.0,0.0,0.0,0.0,0.0,0.0,0.0,0.0,0.0,0.0,0.0,0.0,-1.5743,-1.6437,-1.7581,-1.8869,-1.9567,-1.9409,-2.0307,0.0,0.0,0.0,-1.9427,-1.9248,-1.9308,-1.9906,-2.1022,-2.3014,-2.496,-2.6885,-2.8088,-2.907,-2.9737,-2.7594,-2.6038,-2.4882,-2.3035,0.0,0.0,0.0,0.0,0.0,0.0,0.0,0.0,0.0,0.0,0.0,0.0,0.0,0.0,0.0,0.0,0.0,0.0,0.0,0.0,0.0,0.0,0.0,0.0,0.0,0.0,0.0,0.0,0.0,0.0,0.0,0.0,0.0,0.0,0.0,0.0,0.0,0.0,0.0,-1.9884,-2.0282,-1.9829,-2.0572,-2.1116,0.0,0.0,0.0,0.0,0.0,0.0,0.0,0.0,0.0,-2.6635,-2.7867,-2.9118,-3.0334,-3.157,-3.251,-3.3112,-3.4711,-3.5334,-3.509,-3.5935,-3.6517,-3.6855,-3.6366,-3.4864,-3.2499,-2.9063,-2.6848,-2.5458,0.0,0.0,0.0,0.0,-2.467,-2.5196,0.0,0.0,0.0,0.0,0.0,0.0,0.0,0.0,0.0,0.0,0.0,0.0,-1.6093,-1.6923,-1.7853,-1.8956,-2.0333,-2.0811,-1.9984,-2.0731,-2.0623,-1.9371,-1.946,-1.9413,-1.9153,-1.9868,-2.1315,-2.3455,-2.5507,-2.7687,-2.9952,-3.0998,-3.191,-3.2679,-3.248,-3.0432,-2.7037,-2.519,-2.3632,-2.231,0.0,0.0,0.0,0.0,0.0,0.0,0.0,0.0,0.0,0.0,0.0,0.0,0.0,0.0,0.0,0.0,0.0,0.0,0.0,0.0,0.0,0.0,0.0,0.0,0.0,0.0,0.0,0.0,0.0,0.0,0.0,0.0,0.0,0.0,0.0,0.0,0.0,-2.0662,-2.1369,-2.0137,-2.1948,-2.293,0.0,0.0,0.0,0.0,0.0,0.0,-2.5485,-2.7354,-2.8827,-2.9887,-3.1598,-3.2873,-3.3682,-3.4458,-3.5506,-3.6855,-3.7437,-3.8037,-3.8657,-3.9295,-3.9602,-3.9564,-3.8901,-3.8281,-3.7418,-3.325,-3.0452,-2.8688,-2.7655,-2.6979,-2.6679,-2.7317,-2.7937,-2.8631,0.0,0.0,0.0,0.0,0.0,0.0,0.0,0.0,0.0,0.0,0.0,-1.613,-1.6853,-1.9681,-2.1457,-2.1352,-2.2154,-2.2318,-2.1442,-2.0211,-1.9442,-1.9316,-1.9368,-1.9368,-1.9301,-2.1425,-2.3668,-2.6023,-2.9156,-3.1926,-3.4304,-3.5892,-3.7051,-3.7794,-3.7015,-3.5313,-3.2669,-2.8051,-2.6892,-2.7718,-2.2437,0.0,0.0,0.0,0.0,0.0,0.0,0.0,0.0,0.0,0.0,0.0,0.0,0.0,0.0,0.0,0.0,0.0,0.0,0.0,0.0,0.0,0.0,0.0,0.0,0.0,0.0,0.0,0.0,0.0,0.0,0.0,0.0,0.0,0.0,0.0,0.0,0.0,0.0,-1.9431,-2.2546,0.0,0.0,0.0,0.0,-2.6519,-2.7593,-2.8534,-2.921,-3.137,-3.3106,-3.4242,-3.6625,-3.792,-3.8,-3.8845,-3.9314,-3.9414,-3.947,-3.9508,-3.9545,-3.9583,-3.9602,-3.9602,-3.9564,-3.9526,-3.9145,-3.4996,-3.3212,-3.2931,-3.1297,-3.1091,-3.1729,-3.1785,-3.1823,-3.186,0.0,0.0,0.0,0.0,0.0,0.0,0.0,0.0,-1.4868,-1.4756,-1.5859,-1.7311,-1.9002,-2.1148,-2.3011,-2.4393,-2.4817,-2.4417,-2.3071,-2.2061,-2.1043,-1.9989,-1.9557,-2.0044,-2.1515,-2.3277,-2.586,-2.9282,-3.1999,-3.428,-3.6164,-3.725,-3.792,-3.8192,-3.8427,-3.7486,-3.5457,-3.1673,-2.95,-2.8243,-2.4176,-2.1966,0.0,0.0,0.0,0.0,0.0,0.0,0.0,0.0,0.0,0.0,0.0,0.0,0.0,0.0,0.0,0.0,0.0,0.0,0.0,0.0,0.0,0.0,0.0,0.0,0.0,0.0,0.0,0.0,0.0,0.0,0.0,0.0,0.0,0.0,0.0,0.0,0.0,-2.4538,-2.7508,0.0,-2.8457,-2.847,-2.8919,-2.9891,-3.0233,-3.1293,-3.3318,-3.5205,-3.6976,-3.8544,-3.9952,-4.0966,-4.1511,-4.1267,-4.1436,-4.1961,-4.1417,-4.0872,-4.0384,-4.091,-4.0854,-4.0403,-4.0929,-4.0854,-4.0253,-3.877,-3.7211,-3.5672,-3.4545,-3.3944,-3.3776,-3.4339,-3.4864,-3.539,0.0,0.0,0.0,0.0,0.0,0.0,0.0,0.0,-1.4972,-1.509,-1.6694,-1.8701,-2.095,-2.3337,-2.5474,-2.7254,-2.6928,-2.5914,-2.4302,-2.2767,-2.1315,-1.9938,-1.9988,-2.1134,-2.3502,-2.556,-2.8449,-3.2216,-3.4353,-3.6091,-3.7428,-3.7938,-3.8337,-3.8608,-3.8862,-3.8826,-3.8391,-3.5457,-3.2669,-2.9916,-2.6421,-2.4737,-2.3976,0.0,0.0,0.0,0.0,0.0,0.0,0.0,0.0,0.0,0.0,0.0,0.0,0.0,0.0,0.0,0.0,0.0,0.0,0.0,0.0,0.0,0.0,0.0,0.0,0.0,0.0,0.0,0.0,0.0,0.0,0.0,0.0,0.0,0.0,0.0,-2.8706,-2.8257,-3.1419,-3.3268,-3.2294,-3.2389,-3.286,-3.3788,-3.4146,-3.5221,-3.7255,-3.8868,-4.0184,-4.1173,-4.228,-4.2862,-4.2862,-4.2581,-4.2581,-4.2862,-4.228,-4.1736,-4.1229,-4.1773,-4.1717,-4.1229,-4.1492,-4.1304,-4.0778,-4.0497,-3.9427,-3.7911,-3.7361,-3.6798,-3.6348,-3.693,-3.7474,-3.8,0.0,0.0,0.0,0.0,0.0,0.0,0.0,-1.4998,-1.5215,-1.5815,-1.7913,-2.0246,-2.261,-2.6322,-2.8974,-2.9789,-2.8359,-2.6729,-2.5135,-2.2117,-2.0022,-1.9212,-2.0717,-2.2709,-2.5099,-2.8268,-3.1473,-3.4715,-3.629,-3.7449,-3.8228,-3.8228,-3.8663,-3.9387,-3.8645,-3.9586,-4.1615,-3.9333,-3.6544,-3.3302,-2.9228,-2.8485,-2.9217,0.0,0.0,0.0,0.0,0.0,0.0,0.0,0.0,0.0,0.0,0.0,0.0,0.0,0.0,0.0,0.0,0.0,0.0,0.0,0.0,0.0,0.0,0.0,0.0,0.0,0.0,0.0,0.0,0.0,0.0,0.0,0.0,0.0,-2.5596,-2.8989,-3.1192,-3.015,-3.397,-3.5955,-3.4201,-3.638,-3.7997,-3.8201,-3.9426,-4.0374,-4.0847,-4.2165,-4.267,-4.2085,-4.367,-4.3726,-4.2085,-4.2919,-4.2919,-4.2066,-4.2066,-4.2047,-4.2029,-4.2066,-4.2047,-4.1991,-4.1248,-4.091,-4.0816,-4.0027,-3.9714,-3.9677,-3.9639,-3.9639,-3.9658,-3.9658,-3.9658,-3.9639,0.0,0.0,0.0,0.0,0.0,0.0,0.0,-1.4998,-1.5197,-1.5755,-1.8356,-2.1257,-2.4094,-2.7441,-3.0025,-3.1419,-2.9011,-2.6964,-2.595,-2.2404,-2.0481,-2.0825,-2.2365,-2.4886,-2.8395,-3.1057,-3.3991,-3.7214,-3.8228,-3.8844,-3.9061,-3.9061,-3.946,-4.022,-4.0582,-4.1433,-4.2574,-4.2484,-4.1289,-3.8989,-3.3828,-3.0966,-2.9427,0.0,0.0,0.0,0.0,0.0,0.0,0.0,0.0,0.0,0.0,0.0,0.0,0.0,0.0,0.0,0.0,0.0,0.0,0.0,0.0,0.0,0.0,0.0,0.0,0.0,0.0,0.0,0.0,0.0,0.0,0.0,0.0,-3.1273,-2.8907,-3.2422,-3.5262,-3.5308,-3.8074,-3.9848,-3.9556,-4.0007,-4.0484,-4.09,-4.1129,-4.167,-4.2562,-4.2977,-4.339,-4.382,-4.4271,-4.4289,-4.3839,-4.4064,-4.4064,-4.382,-4.382,-4.352,-4.2956,-4.3557,-4.3501,-4.2956,-4.3332,-4.3163,-4.26,-4.2355,-4.1905,-4.1229,-4.0046,-3.9952,-4.0459,-4.0459,-4.0459,-4.0384,0.0,0.0,0.0,0.0,0.0,0.0,0.0,-1.4998,-1.532,-1.6189,-1.8746,-2.1514,-2.4197,-2.7073,-2.9174,-3.0115,-2.787,-2.5932,-2.4809,-2.2274,-2.1459,-2.2908,-2.4827,-2.7725,-3.1709,-3.3846,-3.6309,-3.9152,-3.9623,-3.9858,-3.9858,-3.9858,-4.0456,-4.1506,-4.1651,-4.2339,-4.3407,-4.3534,-4.3063,-4.1904,-3.8319,-3.5657,-3.3447,-3.0025,-2.8341,-2.758,-2.5823,-2.5316,-2.5298,-2.394,0.0,0.0,0.0,0.0,0.0,0.0,0.0,0.0,0.0,0.0,0.0,0.0,0.0,0.0,0.0,0.0,0.0,0.0,0.0,0.0,0.0,0.0,0.0,0.0,-3.317,-3.5506,-3.4752,-3.6758,-3.8591,-3.9436,-4.1093,-4.2273,-4.2656,-4.2664,-4.2733,-4.3023,-4.2941,-4.3138,-4.3782,-4.412,-4.4515,-4.5003,-4.5359,-4.5566,-4.5566,-4.519,-4.5003,-4.5003,-4.4665,-4.4271,-4.382,-4.4289,-4.4252,-4.382,-4.3951,-4.3726,-4.3257,-4.2919,-4.2468,0.0,0.0,0.0,0.0,0.0,-4.0591,-4.0215,0.0,0.0,0.0,0.0,0.0,0.0,0.0,-1.4998,-1.5442,-1.6707,-1.8912,-2.1167,-2.3309,-2.5697,-2.7182,-2.7272,-2.5715,-2.4121,-2.2672,-2.2057,-2.2854,-2.5298,-2.7815,-3.0948,-3.4787,-3.6435,-3.8373,-4.0655,-4.0655,-4.0691,-4.0782,-4.0782,-4.1633,-4.3136,-4.2429,-4.3009,-4.4458,-4.3824,-4.3516,-4.3389,-4.2774,-4.1325,-3.9043,-3.457,-3.3158,-3.3158,-3.0206,-2.8286,-2.7109,-2.6838,0.0,0.0,0.0,0.0,0.0,0.0,0.0,0.0,0.0,0.0,0.0,0.0,0.0,0.0,0.0,0.0,0.0,0.0,0.0,0.0,0.0,0.0,0.0,0.0,-3.6712,-3.9432,-4.1568,-4.151,-4.1576,-4.244,-4.3061,-4.3624,-4.4095,-4.4364,-4.4515,-4.4515,-4.459,-4.4646,-4.4646,0.0,0.0,0.0,0.0,-4.7087,-4.7012,-4.6223,-4.5754,-4.5566,-4.4928,-4.459,-4.4515,-4.459,-4.459,-4.4477,-4.3745,-4.3444,-4.3369,-4.2618,-4.2273,-4.2254,-4.2066,-4.2074,-4.2055,-4.1135,-4.0403,-3.9865,0.0,0.0,0.0,0.0,0.0,0.0,0.0,-1.4995,-1.5243,-1.5945,-1.8089,-2.014,-2.1768,-2.4049,-2.5733,-2.6385,-2.4429,-2.2745,-2.1803,-2.2745,-2.4719,-2.7779,-3.084,-3.3755,-3.6472,-3.8101,-3.9767,-4.1488,-4.1488,-4.1814,-4.2429,-4.2429,-4.3281,-4.482,-4.4675,-4.5508,-4.7047,-4.7536,-4.7373,-4.6812,-4.7319,-4.4621,-4.0057,-3.7866,-3.5928,-3.4208,-3.294,-3.2687,-3.2687,-3.0731,-3.0622,-3.0876,-2.8286,-2.6475,0.0,0.0,0.0,0.0,0.0,0.0,0.0,0.0,0.0,0.0,0.0,0.0,0.0,0.0,0.0,0.0,0.0,0.0,0.0,-3.5869,-3.9675,-4.2902,-4.4626,-4.5367,-4.5009,-4.3066,-4.3699,-4.4299,-4.4421,-4.4468,-4.4515,-4.4515,-4.5097,-4.5472,-4.5472,-4.6279,-4.7049,-4.7687,-4.7875,-4.765,-4.7012,-4.6843,-4.6073,-4.474,0.0,0.0,-4.4533,-4.5172,-4.5115,-4.4496,-4.4346,-4.4271,-4.4252,-4.4102,-4.4026,-4.3895,-4.2517,-4.2431,-4.2862,-4.136,-4.1116,-4.136,0.0,0.0,0.0,0.0,0.0,0.0,0.0,-1.4992,-1.5186,-1.5726,-1.7238,-1.8613,-1.9592,-2.1479,-2.2677,-2.2636,-2.1948,-2.1839,-2.26,-2.4502,-2.7218,-3.0858,-3.3701,-3.6309,-3.8699,-4.0329,-4.1524,-4.2303,-4.3118,-4.3498,-4.3498,-4.3896,-4.4729,-4.5906,-4.5906,-4.6576,-4.7735,-4.8134,-4.8315,-4.8315,-4.8315,-4.6866,-4.4494,-4.2502,-4.0256,-3.8065,-3.725,-3.6472,-3.5548,-3.3936,-3.314,-3.2524,-3.0912,-2.9029,-2.7091,0.0,0.0,0.0,0.0,0.0,0.0,0.0,0.0,0.0,0.0,0.0,0.0,0.0,0.0,-3.0886,0.0,0.0,-3.7411,-4.0632,-4.3399,-4.5566,-4.6768,-4.7331,-4.6945,-4.5159,-4.504,-4.5097,-4.5097,-4.474,-4.4684,-4.5078,-4.5472,-4.5697,-4.5697,-4.7331,-4.8232,-4.8194,-4.9002,-4.9246,-4.8852,-4.7631,-4.658,-4.5754,-4.5322,-4.489,-4.4515,-4.4928,-4.489,-4.4515,-4.4515,-4.4515,-4.4515,-4.4515,-4.4515,-4.4383,-4.3205,-4.2709,-4.2506,-4.1324,-4.0879,-4.0753,0.0,0.0,0.0,0.0,0.0,0.0,0.0,-1.5015,-1.5144,-1.5575,-1.6414,-1.7102,-1.745,-1.8817,-1.9494,-1.8922,-1.9901,-2.1605,-2.4103,-2.653,-2.9663,-3.3701,-3.6164,-3.8409,-4.0474,-4.1922,-4.2737,-4.2882,-4.4349,-4.482,-4.4349,-4.5164,-4.5961,-4.6739,-4.6739,-4.7102,-4.7717,-4.788,-4.8405,-4.9094,-4.8605,-4.8695,-4.8912,-4.6812,-4.4403,-4.2031,-4.0908,-3.8898,-3.6707,-3.6381,-3.4661,-3.2723,-3.3031,-3.1582,-2.9282,-2.6721,-2.5651,0.0,0.0,0.0,0.0,0.0,0.0,0.0,0.0,0.0,-3.1105,-3.2691,-3.3759,-3.5237,-3.8061,-3.9517,-4.1492,-4.5118,-4.6585,-4.7519,-4.8345,-4.8307,-4.795,-4.7312,-4.6336,-4.5772,-4.5941,-4.5209,-4.5078,-4.5885,-4.6092,-4.6261,-4.643,-4.8382,-4.9321,-4.8927,-5.0222,-5.0842,-5.0691,-4.857,-4.7331,-4.6993,-4.5472,-4.4665,-4.4515,-4.4665,-4.4665,-4.4515,-4.4515,-4.4515,-4.4515,-4.4542,-4.4524,-4.4476,-4.3806,-4.3026,-4.2227,-4.1542,-4.0929,-4.048,0.0,0.0,0.0,0.0,0.0,0.0,0.0,0.0,-1.4995,-1.5007,-1.5657,-1.6113,-1.6028,-1.6738,-1.7435,-1.798,-2.0133,-2.2736,-2.5733,-2.8178,-3.1329,-3.5367,-3.7848,-3.955,-4.0492,-4.1397,-4.2194,-4.2882,-4.3788,-4.4548,-4.5182,-4.5997,-4.6812,-4.7572,-4.7572,-4.7627,-4.7753,-4.8478,-4.9238,-5.0017,-5.0633,-5.0506,-4.9854,-4.8876,-4.6558,-4.3534,-4.1307,-3.8536,-3.6146,-3.7468,-3.6327,-3.4588,-3.6001,-3.5294,-3.335,-3.0334,-2.7958,-2.5999,-2.4449,-2.4275,-2.4966,-2.6835,-2.7638,-2.9302,0.0,0.0,-3.5328,-3.7674,-3.8961,-3.9983,-4.1157,-4.2745,-4.4562,-4.6513,-4.7537,-4.8363,-4.9227,-4.8683,-4.8157,-4.8082,-4.6674,-4.5998,-4.6786,-4.6073,-4.5923,-4.6805,-4.7519,-4.8251,-4.9039,-4.9358,-5.0109,-5.1442,-5.1668,-5.1424,-5.0691,-4.9715,-4.8476,-4.6993,-4.6035,-4.519,-4.4533,-4.5247,-4.519,-4.4515,-4.4515,-4.4515,-4.4515,-4.4632,-4.4685,-4.4591,-4.3956,-4.3625,-4.3412,-4.2564,-4.2678,-4.3175,0.0,0.0,0.0,0.0,0.0,0.0,0.0,0.0,0.0,-1.49,-1.5204,-1.5339,-1.512,-1.5766,-1.672,-1.7976,-1.9376,-2.1935,-2.6045,-2.8499,-3.16,-3.5639,-3.8536,-4.0184,-4.051,-4.2212,-4.3027,-4.2882,-4.4639,-4.5436,-4.5327,-4.6613,-4.7391,-4.7717,-4.7717,-4.7971,-4.846,-4.9257,-5.0053,-5.085,-5.1665,-5.123,-4.9952,-4.8338,-4.5415,-4.1851,-3.9415,-3.7094,0.0,-3.4364,-3.3764,-3.36,-3.526,-3.4331,-3.222,-3.0094,-2.8787,-2.8,-2.7948,-2.7933,-2.8324,0.0,-3.2001,-3.445,-3.6842,-3.8316,-3.9738,-4.164,-4.2847,-4.3933,-4.5292,-4.6157,-4.7049,0.0,-4.8739,-4.9077,-4.9452,-4.8345,-4.75,-4.75,-4.5604,-4.5003,-4.6824,-4.6204,-4.6261,-4.7594,-4.8007,-4.8363,-4.872,-4.9659,-5.0278,-5.0504,-5.1424,-5.1743,-5.1405,-5.0598,-4.9602,-4.8438,-4.7575,-4.6467,-4.5209,-4.5547,-4.5528,-4.5172,-4.4702,-4.4814,-4.5291,-4.4874,-4.4764,-4.4802,-4.4588,-4.4501,-4.4349,-4.3,-4.2753,-4.3023,0.0,0.0,0.0,0.0,0.0,0.0,0.0,0.0,0.0,0.0,-1.4984,-1.4909,-1.4688,-1.5391,-1.633,-1.7451,-1.8617,-2.1129,-2.5455,-2.8094,-3.1284,-3.5313,-3.8301,-4.0075,-4.051,-4.2647,-4.3462,-4.2882,-4.5327,-4.6087,-4.5345,-4.6957,-4.7717,-4.7717,-4.7717,-4.8025,-4.8623,-4.9184,-4.9764,-5.0361,-5.0941,-5.0198,-4.852,-4.6051,-4.2759,-3.9221,-3.7247,-3.4976,-3.263,-3.1104,-3.0538,-3.0794,-3.2674,-3.2025,-3.0405,-2.9433,-2.904,-2.9079,-2.9935,-3.068,-3.1619,-3.3216,-3.6379,-3.9223,-3.969,-4.1461,-4.3446,-4.4998,-4.5892,-4.6749,-4.7969,-4.8194,-4.8401,-4.9039,-4.9133,-4.9133,-4.9133,-4.7706,-4.6561,-4.6354,-4.4327,-4.3745,-4.5791,-4.5622,-4.6167,-4.8063,-4.842,-4.8645,-4.887,-5.0034,-5.0522,-5.0166,-5.1086,-5.1799,-5.225,-5.0992,-5.0185,-4.9809,-4.8495,-4.7237,-4.6054,-4.6054,-4.6083,-4.6055,-4.5247,-4.5291,-4.5916,-4.5136,-4.487,-4.4967,-4.5103,-4.5148,-4.4995,-4.3798,-4.334,-4.3359,0.0,0.0,0.0,0.0,0.0,0.0,0.0,0.0,0.0,0.0,0.0,0.0,0.0,-1.5574,-1.6032,-1.5882,-1.8146,-2.0868,-2.3886,-2.7055,-3.0574,-3.448,-3.6961,-3.8971,-4.0492,-4.2103,-4.29,-4.2882,-4.5327,-4.6087,-4.5345,-4.6957,-4.7717,-4.7717,-4.7717,-4.7717,-4.7753,-4.7772,-4.779,-4.7826,-4.7844,-4.6884,-4.5091,-4.1904,-3.8819,-3.6049,-3.5413,-3.2065,-2.8128,-2.8838,-2.7533,-2.6029,-2.8433,-2.9131,-2.9104,-2.9249,-2.8894,-2.8577,-2.9324,-3.1385,-3.4052,-3.7137,-3.9907,-4.2291,-4.3924,-4.4984,-4.6054,-4.7725,-4.8101,-4.8138,-4.8194,-4.8194,-4.8194,-4.8232,-4.8232,-4.8232,-4.8232,-4.6805,-4.5453,-4.4684,-4.3088,-4.2412,0.0,-4.4102,-4.5566,-4.8007,-4.8983,-4.979,-5.0579,-5.0654,-5.1048,-5.1799,-5.1123,-5.1518,-5.3132,-5.0748,-4.9922,-5.0616,-4.8194,-4.7012,-4.6974,-4.6974,-4.7042,-4.7108,-4.624,-4.598,-4.6127,-4.5375,-4.5103,-4.5103,-4.5235,-4.5297,-4.5297,-4.5239,-4.522,-4.522,0.0,0.0,0.0,0.0,0.0,0.0,0.0,0.0,0.0,0.0,0.0,0.0,0.0,0.0,0.0,0.0,-1.7307,-1.9412,-2.252,-2.5092,-2.7785,-3.0688,-3.4552,-3.6852,-3.7377,-3.9967,-4.1307,-4.1307,-4.3302,-4.41,-4.3902,-4.5539,-4.6285,-4.6245,-4.6245,-4.6205,-4.6142,-4.6685,-4.6902,-4.6866,-4.6466,-4.5344,-4.3488,-3.9491,-3.567,-3.2051,0.0,-2.7158,-2.5505,-2.474,-2.4292,-2.4403,-2.6339,-2.619,-2.552,-2.6761,-2.8161,-2.9982,-3.2927,-3.5593,-3.8169,-4.0858,-4.3455,-4.5622,-4.6711,-4.7612,-4.8063,-4.7519,-4.6523,-4.5416,-4.4289,-4.4102,-4.4289,-4.4853,-4.6336,-4.7406,-4.7406,-4.6411,-4.519,-4.3857,-4.2224,0.0,0.0,0.0,0.0,-4.643,-4.7838,-4.9002,-4.9865,-4.9903,-5.0522,-5.1874,-5.1649,-5.2043,-5.317,-5.2362,-5.1799,-5.1461,-4.8438,-4.7012,-4.6974,-4.6544,-4.6646,-4.7173,-4.6422,-4.6487,-4.701,-4.565,-4.5148,-4.5254,-4.5297,-4.5297,-4.5297,-4.5297,-4.5297,-4.5297,0.0,0.0,0.0,0.0,0.0,0.0,0.0,0.0,0.0,0.0,0.0,0.0,0.0,0.0,0.0,0.0,0.0,-1.8358,-2.0656,-2.3203,-2.5558,-2.7632,-3.1111,-3.3277,-3.3824,-3.6091,-3.7275,-3.7275,-3.9516,-4.0445,-4.0227,-4.2431,-4.3433,-4.3414,-4.3687,-4.3922,-4.408,-4.4315,-4.3955,-4.3104,-4.2449,-4.0726,-3.82,-3.4537,-3.1198,0.0,-2.4708,-2.3253,-2.2741,-2.1744,-2.1757,-2.2421,-2.379,-2.449,-2.5005,-2.6139,-2.8851,-3.2352,-3.6182,-3.9239,-4.2018,-4.4815,-4.6936,-4.8382,-4.8607,-4.8626,-4.8138,-4.6467,-4.4777,-4.3106,-4.1454,-4.0891,-4.0966,-4.183,-4.3557,-4.5003,-4.5585,-4.519,-4.4458,-4.3426,-4.2355,-4.168,0.0,0.0,0.0,-4.5228,-4.7087,-4.857,-4.9452,-5.0053,-5.0973,-5.2325,-5.2062,-5.2325,-5.317,-5.2588,-5.1874,-5.1011,-4.8589,-4.7425,-4.7425,-4.7033,-4.7011,-4.7208,-4.6525,-4.6616,-4.7114,-4.5722,-4.5213,-4.5297,-4.5297,-4.5297,-4.5297,-4.5297,-4.5297,-4.5297,0.0,0.0,0.0,0.0,0.0,0.0,0.0,0.0,0.0,0.0,0.0,0.0,0.0,0.0,0.0,0.0,0.0,0.0,-1.8403,-2.1432,-2.3867,-2.53,-2.6988,-2.8558,-3.0035,-3.0919,-3.1381,-3.1381,-3.4357,-3.543,-3.4724,-3.7776,-3.9188,-3.9225,-3.9972,-4.0684,-4.1251,-4.0524,-3.8951,-3.6851,-3.5992,-3.3485,-3.0002,-2.7582,-2.5743,-2.4158,-2.1877,-2.06,-2.002,-2.0053,-2.0145,-2.0391,-2.1199,-2.4204,-2.7471,-2.7641,-3.1111,-3.5656,-3.9019,-4.2299,-4.5585,-4.8776,-5.0128,-5.0466,-4.9584,-4.8119,-4.6411,-4.4571,-4.2862,-4.1154,0.0,0.0,-3.8394,-3.9282,-4.029,-4.1567,-4.3182,-4.3501,-4.352,0.0,0.0,0.0,0.0,0.0,0.0,-4.4571,0.0,-4.8551,-4.9509,-5.1011,-5.2268,-5.3207,-5.2419,-5.2362,-5.317,-5.148,-5.0222,-4.9415,-4.8514,-4.8063,-4.8093,-4.822,-4.7926,-4.7308,-4.6592,-4.639,-4.6443,-4.5621,-4.5297,-4.5297,-4.5297,-4.5297,-4.5297,-4.5297,-4.5297,-4.5297,0.0,0.0,0.0,0.0,0.0,0.0,0.0,0.0,0.0,0.0,0.0,0.0,0.0,0.0,0.0,0.0,0.0,0.0,-1.7775,-1.9643,-2.1179,-2.2187,-2.4793,-2.6413,-2.6784,-2.8706,-2.9702,-2.9702,-3.1201,-3.1829,-3.1644,-3.3105,-3.3765,-3.3714,-3.3917,-3.405,-3.4118,-3.3934,-3.35,-3.2852,-3.1598,-3.0504,-2.9246,-2.5863,-2.4322,-2.3663,-2.1236,-2.0222,-2.0165,-2.0771,0.0,0.0,0.0,-2.687,-2.971,-3.2109,-3.5891,-4.0008,-4.3265,-4.658,-4.9321,-5.0166,-5.0541,-5.0147,-4.8119,-4.6805,-4.4853,-4.0741,-3.863,-3.6434,0.0,0.0,0.0,-3.6727,-4.0628,0.0,-4.4946,-4.6148,0.0,0.0,0.0,-4.4853,-4.4252,-4.4928,0.0,0.0,-4.658,-4.8213,-5.0278,-5.0767,-5.1949,-5.4033,-5.3282,-5.2963,-5.3188,-5.0935,-4.9377,-4.8514,-4.703,-4.6393,-4.6487,-4.666,-4.6721,-4.6635,-4.6504,-4.6457,-4.6443,-4.5621,-4.5297,-4.5297,-4.5297,-4.5297,-4.5297,-4.5297,-4.5297,-4.5297,0.0,0.0,0.0,0.0,0.0,0.0,0.0,0.0,0.0,0.0,0.0,0.0,0.0,0.0,0.0,0.0,0.0,0.0,0.0,-1.8736,-1.9787,-2.0622,-2.2286,-2.3182,-2.3182,-2.447,-2.5148,-2.5148,-2.6333,-2.6895,-2.6933,-2.8464,-2.9152,-2.913,-2.9483,-2.9776,-2.9987,-2.9617,-2.9084,0.0,0.0,-2.6174,-2.5096,-2.2987,-2.2182,-2.1991,-2.0594,-2.1003,0.0,0.0,0.0,-2.7418,-2.9328,-3.1618,-3.4279,-3.7551,0.0,-4.4137,-4.6674,-4.9527,-5.1705,-5.1311,-5.0691,-4.9321,-4.611,-4.3885,-4.1205,-3.66,-3.4427,0.0,0.0,0.0,0.0,0.0,0.0,0.0,-4.3914,-4.5829,-4.6899,0.0,-4.658,0.0,-4.6167,-4.6523,-4.6955,0.0,-4.7462,-4.8307,-5.0072,-5.0504,-5.1668,-5.3808,-5.3433,-5.3001,-5.2625,-5.0166,-4.8683,-4.8176,-4.6505,-4.5782,-4.59,-4.6095,-4.6049,-4.5826,0.0,-4.5965,-4.5946,-4.5488,-4.5297,-4.5297,-4.5297,-4.5297,-4.5297,-4.5297,-4.5297,-4.5297,0.0,0.0,0.0,0.0,0.0,0.0,0.0,0.0,0.0,0.0,0.0,0.0,0.0,0.0,0.0,0.0,0.0,0.0,0.0,0.0,-1.9143,-2.005,-2.0088,-2.0088,-2.0088,-2.0088,-2.0088,-2.0088,-2.1373,-2.2016,-2.2041,-2.4084,-2.5038,-2.5075,-2.577,-2.6447,-2.6991,-2.6282,-2.5227,-2.3944,-2.3239,-2.182,-2.0088,0.0,-2.0088,-2.0088,-2.0088,-2.2026,0.0,0.0,-2.9122,-3.141,-3.4582,-3.7332,-4.0013,-4.3269,-4.5773,-4.7856,-4.9546,-5.163,-5.3095,-5.2006,-5.0616,-4.8326,-4.3847,-4.0459,-3.7024,-3.2713,0.0,-2.942,-2.8374,-2.9715,-3.1318,-3.2275,0.0,-4.0272,-4.2224,-4.4439,-4.6242,-4.7218,-4.795,-4.8363,-4.8363,-4.8457,-4.8852,-4.9602,-4.8964,-4.8852,-4.9621,-5.0316,-5.1461,-5.3132,-5.3076,-5.2606,-5.1762,-4.9283,-4.7969,-4.7838,-4.6308,-4.5641,-4.5757,-4.5912,-4.5656,-4.5125,-4.5254,-4.5297,-4.5297,-4.5297,-4.5297,-4.5297,-4.5297,-4.5297,-4.5297,-4.5297,-4.5297,-4.5297,0.0,0.0,0.0,0.0,0.0,0.0,0.0,0.0,0.0,0.0,-1.5092,-1.5092,0.0,0.0,0.0,0.0,0.0,0.0,0.0,0.0,0.0,-2.0031,-2.0088,-2.0088,-2.0088,-2.0088,-2.0088,-2.0088,-2.0356,-2.0479,-2.0488,-2.0896,-2.1094,-2.1094,-2.1227,-2.1369,-2.1491,-2.1339,-2.1132,-2.0868,-2.0735,-2.0441,-2.0088,-2.0088,0.0,0.0,-2.0088,0.0,0.0,-2.7925,-3.2279,-3.6299,-3.893,-4.1912,-4.4974,-4.7661,-4.9189,-5.041,-5.2081,-5.3357,-5.3658,-5.1461,-5.0203,-4.7905,-4.1745,-3.8813,0.0,0.0,-2.9162,-2.8476,-2.6805,-2.9028,0.0,-3.3815,0.0,0.0,0.0,0.0,-4.735,0.0,0.0,0.0,0.0,0.0,0.0,0.0,0.0,-5.0316,-5.0466,-5.0616,-5.1461,-5.3132,-5.2494,-5.1724,-5.0917,-4.8457,-4.6843,-4.611,-4.5264,-4.4926,-4.5079,-4.52,-4.5281,-4.5275,-4.5297,0.0,-4.5297,-4.5297,-4.5297,-4.5297,-4.5297,-4.5297,-4.5297,-4.5297,-4.5297,-4.5297,0.0,0.0,0.0,0.0,0.0,0.0,0.0,-1.4996,-1.5011,-1.5092,-1.5092,-1.5092,-1.5092,-1.5092,-1.5092,0.0,0.0,0.0,0.0,0.0,0.0,0.0,-2.0088,-2.0088,-2.0088,-2.0088,-2.0088,-2.0088,0.0,-2.0088,-2.0088,-2.0088,-2.0088,-2.0088,-2.0088,-2.0088,-2.0088,-2.0088,-2.0088,-2.0088,-2.0088,-2.0088,-2.0088,0.0,0.0,0.0,0.0,0.0,0.0,-2.6854,-3.1732,-3.7201,-4.1398,-4.4684,-4.7481,-5.0016,-5.133,-5.225,-5.3489,-5.4108,-5.3789,-5.1311,-4.9096,-4.5791,-3.9212,0.0,0.0,0.0,-2.6773,-2.6588,-2.5597,0.0,0.0,0.0,0.0,0.0,0.0,0.0,0.0,0.0,0.0,0.0,0.0,0.0,0.0,0.0,0.0,-5.0691,-5.0691,-5.1086,-5.1686,-5.2494,-5.255,-5.1762,-5.0091,-4.8457,-4.6974,-4.5679,-4.5009,-4.477,-4.4895,-4.5057,-4.517,-4.5297,-4.5297,-4.5297,-4.5297,-4.5297,-4.5297,-4.5297,-4.5297,-4.5297,-4.5297,-4.5297,-4.5297,-4.5297,0.0,0.0,0.0,0.0,0.0,0.0,0.0,-1.5004,-1.4989,-1.5085,-1.5092,-1.5092,-1.5092,-1.5092,-1.5092,0.0,0.0,0.0,0.0,0.0,0.0,0.0,0.0,0.0,0.0,0.0,0.0,0.0,-2.0088,0.0,0.0,0.0,0.0,0.0,-2.0088,-2.0088,-2.0088,-2.0088,-2.0088,0.0,0.0,-2.0088,0.0,0.0,0.0,0.0,0.0,0.0,0.0,0.0,-2.9458,-3.4728,-3.9964,-4.4542,-4.8288,-5.0053,-5.1686,-5.3095,-5.3921,-5.4127,-5.3545,-5.1029,-4.7781,-4.3501,-3.7103,-3.3106,0.0,0.0,-2.494,-2.5056,-2.5087,0.0,0.0,0.0,0.0,0.0,0.0,0.0,0.0,0.0,0.0,0.0,0.0,0.0,0.0,0.0,0.0,0.0,-5.0935,-5.1724,-5.21,-5.1912,-5.255,-5.1724,-4.9246,-4.8363,-4.7105,-4.5435,-4.4934,-4.477,-4.4895,-4.5057,-4.517,-4.5297,-4.5297,-4.5297,-4.5297,-4.5297,-4.5297,-4.5297,-4.5297,-4.5297,-4.5297,-4.5297,-4.5297,-4.5316,0.0,0.0,0.0,0.0,0.0,0.0,0.0,-1.5085,-1.5085,-1.5092,-1.5092,-1.5092,-1.5092,-1.5092,-1.5092,0.0,0.0,0.0,0.0,0.0,0.0,0.0,0.0,0.0,0.0,0.0,0.0,0.0,0.0,0.0,0.0,0.0,0.0,0.0,0.0,0.0,-2.0088,-2.0088,0.0,0.0,0.0,0.0,0.0,0.0,0.0,0.0,0.0,0.0,0.0,0.0,0.0,-2.771,-3.1221,-3.9129,-4.7012,-4.6448,0.0,0.0,-5.3076,-5.3301,-5.2682,-5.0147,-4.6505,-4.1987,-3.6136,0.0,0.0,-2.5575,-2.4902,-2.5134,-2.5842,-2.6846,-2.8248,-3.0434,-3.2405,-3.5315,0.0,0.0,0.0,0.0,0.0,0.0,0.0,0.0,0.0,0.0,0.0,0.0,-5.1762,-5.2606,-5.2719,-5.1931,-5.1987,-5.0823,-4.8326,-4.7519,-4.6279,-4.4608,-4.467,-4.477,-4.4895,-4.5057,-4.517,-4.5297,-4.5297,-4.5297,0.0,-4.5297,-4.5297,-4.5297,-4.5297,-4.5297,-4.5297,-4.5297,-4.5297,-4.5392,0.0,0.0,0.0,0.0,0.0,0.0,-1.4959,-1.5092,-1.5092,-1.5092,-1.5092,-1.5092,-1.5092,-1.5092,-1.5092,-1.5092,0.0,0.0,0.0,0.0,0.0,0.0,0.0,0.0,0.0,0.0,0.0,-2.0088,0.0,0.0,0.0,0.0,0.0,0.0,0.0,0.0,0.0,0.0,0.0,0.0,0.0,0.0,0.0,0.0,0.0,0.0,0.0,0.0,0.0,0.0,0.0,0.0,-2.5086,-3.0468,0.0,0.0,-4.5012,-4.8176,-5.1518,-5.2419,-5.1818,-4.9302,-4.5209,-4.0403,-3.5133,0.0,-2.7575,-2.5269,-2.4823,-2.4936,-2.5201,-2.597,-2.704,-2.8442,-2.9232,-3.141,0.0,0.0,0.0,0.0,0.0,0.0,0.0,0.0,0.0,0.0,0.0,0.0,-5.1874,-5.1762,-5.1762,-5.1912,-5.1424,-4.9978,-4.75,-4.7162,-4.6167,-4.4515,-4.4738,-4.4846,-4.4895,-4.5125,-4.5254,-4.5297,-4.5297,-4.5297,0.0,-4.5297,-4.5297,-4.5297,-4.5297,-4.5297,-4.5297,-4.5297,-4.5685,-4.6167,0.0,0.0,0.0,0.0,0.0,-1.4086,-1.4959,-1.5092,-1.5092,-1.5092,-1.5092,-1.5092,-1.5092,-1.5092,-1.5092,-1.5092,-1.5092,0.0,0.0,0.0,0.0,0.0,0.0,0.0,0.0,0.0,-2.0088,-2.0088,-2.0088,0.0,0.0,0.0,0.0,0.0,0.0,0.0,0.0,0.0,0.0,0.0,0.0,0.0,0.0,0.0,0.0,0.0,0.0,0.0,0.0,0.0,0.0,0.0,0.0,0.0,-2.8621,0.0,-4.0378,-4.4346,-4.857,-5.026,-5.0335,-4.8345,-4.3745,-3.8601,0.0,0.0,-2.6435,-2.5008,-2.4738,-2.4768,-2.4707,-2.5449,-2.6327,-2.709,-2.7617,-2.9495,-3.3963,0.0,0.0,0.0,0.0,0.0,0.0,0.0,0.0,0.0,0.0,0.0,-5.1837,-5.0917,-5.071,-5.1518,-5.0992,-4.9509,-4.703,-4.7012,-4.6167,-4.4515,-4.4719,-4.4846,-4.4895,-4.5148,-4.5256,-4.5297,-4.5297,-4.5297,0.0,-4.5297,-4.5297,-4.5297,-4.5297,-4.5449,-4.566,-4.5722,-4.634,-4.7069,0.0,0.0,0.0,0.0,0.0,0.0,-1.4959,-1.5092,-1.5092,-1.5092,-1.5092,-1.5092,-1.5092,-1.5092,-1.5092,-1.5092,-1.5092,0.0,0.0,0.0,0.0,0.0,0.0,0.0,0.0,0.0,-2.0088,-2.0088,-2.0088,-2.0088,-2.0088,-2.0088,0.0,0.0,0.0,0.0,0.0,0.0,0.0,0.0,0.0,0.0,0.0,0.0,0.0,0.0,0.0,0.0,0.0,0.0,0.0,0.0,0.0,-2.0648,-2.2432,-2.8209,-3.5096,-4.1398,-4.3914,-4.6373,-4.8044,-4.7218,-4.2036,-3.6479,0.0,0.0,-2.5756,-2.4876,-2.4707,-2.4707,-2.4707,-2.5402,-2.6263,-2.7073,-2.8594,-3.0828,-3.4132,0.0,0.0,0.0,0.0,0.0,0.0,0.0,0.0,0.0,0.0,0.0,-5.1818,-5.0391,-4.9884,-5.0673,-5.0691,-4.9509,-4.703,-4.7012,-4.6167,-4.4515,-4.4632,-4.477,-4.4895,-4.5057,-4.517,-4.5297,-4.5297,-4.5297,0.0,-4.5297,-4.5297,-4.5297,-4.5297,-4.5793,-4.6522,-4.6704,-4.73,-4.801,0.0,0.0,0.0,0.0,0.0,0.0,0.0,-1.5092,-1.5092,-1.5092,-1.5092,-1.5092,-1.5092,-1.5092,-1.5092,-1.5092,-1.5092,0.0,0.0,0.0,0.0,0.0,0.0,0.0,0.0,0.0,-2.0088,-2.0088,-2.0088,-2.0088,-2.0088,-2.0088,-2.0088,-2.0088,0.0,0.0,0.0,0.0,0.0,0.0,0.0,0.0,0.0,0.0,0.0,0.0,0.0,0.0,0.0,0.0,0.0,0.0,0.0,0.0,0.0,-2.322,-2.7909,0.0,-3.6742,-3.83,-3.8713,-3.7906,-3.4846,-3.1541,-2.9608,0.0,-2.5027,-2.4764,-2.4707,-2.4707,-2.4707,-2.4933,-2.5759,-2.7694,-2.8969,-3.0847,0.0,0.0,0.0,0.0,0.0,0.0,0.0,0.0,0.0,0.0,0.0,0.0,-5.0241,-4.979,-4.9865,-5.0654,-5.0166,-4.8945,-4.703,-4.7012,-4.6167,-4.4515,-4.5323,-4.5433,-4.4914,-4.5696,-4.5769,-4.5297,-4.5297,-4.5297,-4.5297,-4.5297,-4.5297,-4.5375,-4.6071,-4.6493,-4.6801,-4.7488,-4.8359,-4.9077,0.0,0.0,0.0,0.0,0.0,0.0,0.0,-1.5092,-1.5092,-1.5092,-1.5092,-1.5092,-1.5092,-1.5092,-1.5092,-1.5092,-1.5092,0.0,0.0,0.0,0.0,0.0,0.0,0.0,-2.0088,-2.0088,-2.0088,-2.0088,-2.0088,-2.0088,-2.0088,-2.0088,-2.0088,-2.0088,-2.0088,0.0,0.0,0.0,0.0,0.0,0.0,0.0,-2.0049,0.0,0.0,0.0,0.0,0.0,0.0,0.0,0.0,0.0,0.0,0.0,0.0,0.0,-2.2833,-2.6193,0.0,-3.2931,-3.3531,-3.3025,-3.0828,0.0,0.0,0.0,-2.4257,-2.4257,-2.4501,-2.4707,-2.4707,-2.4707,-2.5421,-2.7581,-2.8669,-3.0377,0.0,0.0,0.0,0.0,0.0,0.0,0.0,0.0,0.0,0.0,0.0,0.0,-4.9509,-4.9189,-4.9246,-4.9734,-4.9265,-4.8363,-4.7012,-4.6674,-4.5829,-4.4515,-4.5587,-4.566,-4.4933,-4.5963,-4.6018,-4.5297,-4.5297,-4.5297,0.0,-4.5297,-4.551,-4.5936,-4.657,-4.7222,-4.7892,-4.8527,-4.9374,-5.007,0.0,0.0,0.0,0.0,0.0,0.0,0.0,-1.5092,-1.5092,-1.5092,-1.5092,-1.5092,-1.5092,-1.5092,-1.5092,-1.5092,0.0,0.0,0.0,0.0,0.0,0.0,0.0,0.0,-2.0088,-2.0088,-2.0088,-2.0088,-2.0088,-2.0088,-2.0088,-2.0108,-2.0088,-2.0088,-2.0079,-2.0079,0.0,0.0,0.0,0.0,0.0,0.0,0.0,0.0,0.0,0.0,0.0,0.0,0.0,0.0,0.0,0.0,0.0,0.0,0.0,0.0,0.0,0.0,0.0,-2.9476,0.0,0.0,0.0,0.0,0.0,0.0,0.0,-2.3502,-2.4144,-2.4726,-2.4782,-2.4801,-2.5364,-2.7092,-2.8106,0.0,0.0,0.0,0.0,0.0,0.0,0.0,0.0,0.0,0.0,0.0,0.0,-4.9509,-4.9509,-4.875,-4.8281,-4.8224,-4.8198,-4.7765,-4.6918,-4.6092,-4.5303,-4.4515,-4.5442,-4.5564,-4.4933,-4.5889,-4.5929,0.0,-4.5297,-4.5317,-4.5298,-4.5298,-4.5898,-4.6819,-4.6896,-4.7987,-4.9534,-4.9732,-5.0317,-5.0918,0.0,0.0,0.0,0.0,0.0,0.0,0.0,0.0,0.0,0.0,-1.5092,-1.5092,-1.5092,-1.5092,-1.5092,0.0,0.0,0.0,0.0,0.0,0.0,0.0,0.0,0.0,-2.0088,-2.0088,-2.0088,-2.0088,-2.0088,-2.0088,-2.0088,-2.006,-2.0021,-2.0021,-2.0009,-2.0007,0.0,0.0,0.0,0.0,0.0,0.0,0.0,0.0,0.0,0.0,-1.9949,-1.9971,0.0,0.0,0.0,0.0,0.0,0.0,0.0,0.0,-1.9849,-2.0108,-2.1446,0.0,-2.2698,-2.2698,-2.2567,-2.2398,0.0,0.0,0.0,0.0,0.0,0.0,0.0,-2.57,-2.6451,-2.8744,-3.0302,0.0,0.0,0.0,0.0,0.0,0.0,0.0,0.0,0.0,0.0,0.0,0.0,-4.9509,-4.9509,-4.9447,-4.9126,-4.854,-4.8049,-4.7233,-4.6017,-4.5791,-4.5303,-4.4515,-4.5507,-4.5583,-4.4933,-4.5927,-4.5989,-4.5297,-4.5297,-4.536,-4.5438,-4.5438,-4.6011,-4.694,-4.7728,-4.8682,-4.9751,-5.0558,-5.0972,-5.1127,0.0,0.0,0.0,0.0,0.0,0.0,0.0,0.0,0.0,0.0,0.0,-1.5092,-1.5092,-1.5092,0.0,0.0,0.0,0.0,0.0,0.0,0.0,0.0,0.0,-1.9276,-2.0069,-2.0088,-2.0088,-2.0088,-2.0088,-2.0079,-2.0041,-2.0021,-1.9991,-1.9998,-2.0004,-2.0012,-2.0012,0.0,0.0,0.0,-1.9915,0.0,0.0,0.0,0.0,0.0,-1.9868,-1.9903,0.0,-1.9908,-1.9949,-2.0012,0.0,0.0,0.0,0.0,-1.9837,-1.9807,-1.9807,-2.007,-2.0352,-2.0352,-2.0671,-2.099,-2.099,0.0,0.0,0.0,0.0,0.0,0.0,0.0,0.0,0.0,0.0,0.0,0.0,0.0,0.0,0.0,0.0,0.0,0.0,0.0,0.0,0.0,0.0,-4.9532,-4.9625,-4.9021,-4.851,-4.8199,-4.7121,-4.634,-4.5873,-4.5609,-4.516,-4.4515,-4.5542,-4.5666,-4.5038,-4.594,-4.6042,-4.5476,-4.5476,-4.5531,-4.5601,-4.5601,-4.6378,-4.7627,-4.8183,-4.9207,-5.0461,-5.1004,-5.1202,-5.1202,0.0,0.0,0.0,0.0,0.0,0.0,0.0,0.0,0.0,0.0,0.0,0.0,0.0,0.0,0.0,0.0,0.0,0.0,0.0,0.0,0.0,0.0,-1.831,-1.9143,-2.0069,-2.0088,-2.0088,-2.0088,-2.0088,-2.0069,-2.0001,-1.9991,-1.9998,-1.996,-1.996,-1.996,-1.9979,-1.9915,-1.9873,0.0,-1.9832,0.0,0.0,0.0,0.0,0.0,0.0,0.0,0.0,-1.9873,-1.9926,-1.996,-1.996,0.0,0.0,0.0,0.0,0.0,-1.9957,-2.0671,-2.129,-2.0915,-2.1009,-2.1159,-2.1028,0.0,0.0,0.0,0.0,0.0,0.0,0.0,0.0,0.0,0.0,0.0,0.0,0.0,0.0,0.0,0.0,0.0,0.0,0.0,0.0,0.0,0.0,-4.9267,-4.9478,-4.8156,-4.7443,-4.7537,-4.6202,-4.566,-4.6022,-4.5459,-4.5004,-4.4632,-4.566,-4.5855,-4.535,-4.6056,-4.6186,-4.5893,-4.5738,0.0,-4.5731,-4.5731,-4.6714,-4.8225,-4.8225,-4.9285,-5.0794,-5.0794,-5.0891,-5.1027,0.0,0.0,0.0,0.0,0.0,0.0,0.0,0.0,0.0,0.0,0.0,0.0,0.0,0.0,0.0,0.0,0.0,0.0,0.0,0.0,0.0,-1.7527,-1.7737,-1.8512,-2.0069,-2.0088,-2.0088,-2.0088,-2.0088,-2.0069,-2.0001,-1.9988,-1.9949,-1.9832,-1.9832,-1.9832,-1.9832,-1.982,-1.982,-1.982,-1.9807,0.0,0.0,0.0,0.0,0.0,0.0,0.0,0.0,-1.982,-1.982,-1.9832,-1.9832,0.0,0.0,0.0,0.0,0.0,-2.0633,-2.1929,-2.2619,-2.0521,-2.1046,-2.191,-2.1159,0.0,0.0,0.0,0.0,0.0,0.0,0.0,0.0,0.0,0.0,0.0,0.0,0.0,0.0,0.0,0.0,0.0,0.0,0.0,0.0,0.0,-4.8426,-4.7745,-4.8014,-4.7945,-4.7588,-4.6877,-4.6824,-4.642,-4.5591,-4.5341,-4.5159,-4.5094,-4.5996,-4.6407,-4.6377,-4.657,-4.6665,-4.6673,0.0,-4.5761,-4.588,-4.588,-4.6494,-4.747,-4.747,-4.8103,-4.9007,-4.9007,-4.9473,-5.0212,0.0,0.0,0.0,0.0,0.0,0.0,0.0,0.0,0.0,0.0,0.0,0.0,0.0,0.0,0.0,0.0,0.0,0.0,0.0,0.0,-1.5845,-1.7527,-1.7603,-1.8378,-2.005,-2.0088,-2.0088,-2.0088,-2.0069,-2.003,-1.9998,-1.9938,-1.9856,-1.9807,-1.9807,-1.9807,-1.9807,-1.9807,-1.9807,-1.9807,0.0,0.0,0.0,0.0,0.0,0.0,0.0,0.0,0.0,0.0,-1.9807,-1.9807,-1.9807,0.0,0.0,0.0,0.0,0.0,-2.0258,-2.1572,-2.2586,-2.1441,-2.2736,-2.4069,-2.3205,-2.3956,0.0,0.0,0.0,0.0,0.0,0.0,0.0,0.0,0.0,0.0,0.0,0.0,0.0,0.0,0.0,0.0,0.0,0.0,0.0,0.0,-4.7916,-4.7422,-4.7681,-4.7472,-4.7237,-4.6934,-4.6162,-4.5733,-4.5658,-4.5153,-4.4977,-4.5201,-4.5725,-4.5994,-4.6068,-4.6102,-4.6221,-4.6394,0.0,-4.5893,-4.596,-4.596,-4.6488,-4.7298,-4.7298,-4.7822,-4.8658,-4.9124,-4.9551,-4.9959,0.0,0.0,0.0,0.0,0.0,0.0,0.0,0.0,0.0,0.0,0.0,0.0,0.0,0.0,0.0,0.0,0.0,0.0,0.0,-1.5085,-1.5845,-1.7527,-1.7603,-1.8378,-2.005,-2.0088,-2.0088,-2.0088,-2.0031,-1.999,-1.9971,-1.9856,-1.9807,-1.9807,-1.9807,-1.9807,-1.9807,-1.9807,-1.9807,-1.9807,0.0,0.0,0.0,0.0,0.0,0.0,0.0,0.0,0.0,0.0,0.0,0.0,0.0,0.0,0.0,-1.9807,-1.9807,-1.9845,-2.0032,-2.1178,-2.2304,-2.2304,-2.4013,-2.5665,-2.559,-2.6078,0.0,0.0,0.0,0.0,0.0,0.0,0.0,0.0,0.0,0.0,0.0,0.0,0.0,0.0,0.0,0.0,0.0,0.0,0.0,-4.7738,-4.7148,-4.693,-4.7157,-4.6781,-4.6648,-4.6786,-4.5548,-4.5084,-4.551,-4.491,-4.4835,-4.5343,-4.5701,-4.5902,-4.5954,-4.5978,-4.6098,-4.6282,-4.6083,-4.5997,-4.5997,-4.5997,-4.6385,-4.7007,-4.7007,-4.7395,-4.8094,-4.8968,-4.9279,-4.9318,0.0,0.0,0.0,0.0,0.0,0.0,0.0,0.0,0.0,0.0,0.0,0.0,0.0,0.0,0.0,0.0,0.0,0.0,0.0,-1.5071,-1.5845,-1.7527,-1.7603,-1.8378,-2.005,-2.0088,-2.0088,-2.0088,-2.0031,-1.9969,-1.9915,-1.9844,-1.9807,-1.9807,-1.9807,-1.9807,-1.9807,-1.9807,-1.9807,-1.9807,-1.9807,0.0,0.0,0.0,0.0,0.0,0.0,0.0,0.0,0.0,0.0,0.0,0.0,0.0,-1.9807,-1.9807,-1.9807,-1.9957,-2.0708,-2.1591,-2.2304,-2.2304,-2.3562,-2.5383,-2.7619,-2.8182,0.0,-3.1185,0.0,0.0,0.0,0.0,0.0,0.0,0.0,0.0,0.0,0.0,0.0,0.0,0.0,0.0,0.0,0.0,-4.6055,-4.6247,-4.5696,-4.5455,-4.5646,-4.5793,-4.5882,-4.5877,-4.578,-4.5374,-4.4697,-4.4639,-4.4993,-4.5771,-4.6598,-4.6984,-4.6999,-4.7068,-4.7094,-4.7081,-4.6324,-4.5997,-4.5997,-4.5997,-4.6035,-4.6094,-4.6094,-4.6133,-4.6288,-4.7162,-4.7492,-4.7609,0.0,0.0,0.0,0.0,0.0,0.0,0.0,0.0,0.0,0.0,0.0,0.0,0.0,0.0,0.0,0.0,0.0,0.0,0.0,-1.5019,-1.5787,-1.7452,-1.7547,-1.8327,-2.0,-1.9583,-1.9593,-2.0038,-1.9966,-1.99,-1.9844,-1.982,-1.9807,-1.9807,-1.9807,-1.9807,-1.9807,-1.9807,-1.9807,-1.9807,-1.9807,-1.9807,0.0,0.0,0.0,0.0,0.0,0.0,0.0,0.0,-1.9807,-1.9807,-1.9807,-1.9807,-1.9807,-1.9807,-1.9807,-1.9882,-2.0164,-2.161,-2.3036,-2.3036,-2.4276,0.0,0.0,-2.9214,-3.0508,-3.2499,-3.3062,0.0,0.0,0.0,0.0,0.0,0.0,0.0,0.0,0.0,0.0,0.0,0.0,0.0,0.0,0.0,-4.5237,-4.5464,-4.4459,-4.3864,-4.3934,-4.4148,-4.4253,-4.4253,-4.3711,-4.3556,-4.3788,-4.3247,-4.3401,-4.4253,-4.5123,-4.5562,-4.5557,-4.6132,-4.6402,-4.6445,-4.6141,-4.5725,-4.5239,-4.5239,-4.5239,-4.5297,-4.5802,-4.6327,-4.6851,-4.7181,-4.7298,-4.7356,0.0,0.0,0.0,0.0,0.0,0.0,0.0,0.0,0.0,0.0,0.0,0.0,0.0,0.0,0.0,0.0,0.0,0.0,-1.4974,-1.499,-1.5748,-1.7425,-1.7501,-1.8278,-1.9922,-1.922,-1.9211,-2.0012,-1.9938,-1.988,-1.9807,-1.9807,-1.9807,-1.9807,-1.9807,-1.9807,-1.9807,-1.9807,-1.9807,-1.9807,-1.9807,-1.9807,0.0,0.0,0.0,0.0,0.0,0.0,0.0,0.0,-1.9807,-1.9807,-1.9807,-1.9807,-1.9807,-1.9807,-1.9807,-1.9807,-1.9807,-2.1046,-2.2454,-2.298,0.0,0.0,-2.8969,-3.0471,-3.2198,-3.5465,-3.5935,0.0,0.0,0.0,0.0,0.0,0.0,0.0,0.0,0.0,0.0,0.0,0.0,0.0,0.0,-4.5171,-4.4448,-4.4338,-4.3502,-4.3011,-4.3011,-4.3202,-4.3305,-4.3305,-4.2725,-4.257,-4.2899,-4.2299,-4.2164,-4.2512,-4.3363,-4.3918,-4.4208,-4.4827,-4.5134,-4.5176,-4.5209,-4.4889,-4.4384,-4.4384,-4.4384,-4.4462,-4.5297,-4.5997,-4.654,-4.6793,-4.689,-4.689,0.0,0.0,0.0,0.0,0.0,0.0,0.0,0.0,0.0,0.0,0.0,0.0,0.0,0.0,0.0,0.0,0.0,0.0,-1.4904,-1.4955,-1.5729,-1.7406,-1.7482,-1.8258,-1.9858,-1.9109,-1.913,-1.9993,-1.9938,-1.988,-1.9807,-1.9807,-1.9807,-1.9807,-1.9807,-1.9807,-1.9807,-1.9807,-1.9807,-1.9807,-1.9807,-1.9807,-1.9807,0.0,0.0,0.0,0.0,0.0,0.0,0.0,-1.9807,-1.9807,-1.9807,-1.9807,-1.9807,-1.9807,-1.9807,-1.9807,-1.9807,-1.9826,-2.0239,0.0,0.0,0.0,-3.0997,-3.2105,-3.3982,-4.0584,0.0,0.0,0.0,0.0,0.0,0.0,0.0,0.0,0.0,0.0,0.0,0.0,0.0,0.0,-4.3753,-4.3773,-4.3519,-4.2659,-4.283,-4.2972,-4.2972,-4.3183,-4.3285,-4.3285,-4.3285,-4.286,-4.2009,-4.199,-4.1583,-4.081,-4.1603,-4.2447,-4.3279,-4.3373,-4.3397,-4.341,-4.347,-4.351,-4.3491,-4.3491,-4.3491,-4.3569,-4.4443,-4.4792,-4.487,-4.5686,-4.5977,-4.5977,0.0,0.0,0.0,0.0,0.0,0.0,0.0,0.0,0.0,0.0,0.0,0.0,0.0,0.0,0.0,0.0,0.0,0.0,-1.4822,-1.4859,-1.5339,-1.6478,-1.7052,-1.785,-1.8885,-1.9291,-1.9322,-1.9028,-1.9555,-1.982,-1.9807,-1.9807,-1.9807,-1.9807,-1.9807,-1.9807,-1.9807,-1.9807,-1.9807,-1.9807,-1.9807,-1.9807,-1.9807,0.0,0.0,0.0,0.0,0.0,0.0,0.0,0.0,0.0,-1.9807,-1.9807,-1.9807,-1.9807,-1.9807,-1.9807,-1.9807,-2.1065,0.0,0.0,0.0,0.0,0.0,-3.2949,0.0,0.0,0.0,0.0,0.0,0.0,0.0,0.0,0.0,0.0,0.0,0.0,0.0,0.0,0.0,0.0,-4.3197,-4.2678,-4.2305,-4.2183,-4.1721,-4.1459,-4.1459,-4.15,-4.1545,-4.1545,-4.1545,-4.1409,-4.1158,-4.1158,-4.1035,-4.0808,-4.104,-4.1613,-4.2482,-4.3114,-4.3438,-4.347,-4.3481,-4.3161,-4.2597,-4.2597,-4.2597,-4.2675,-4.3549,-4.3899,-4.3918,-4.4151,-4.4248,-4.4248,0.0,0.0,0.0,0.0,0.0,0.0,0.0,0.0,0.0,0.0,-1.4794,0.0,0.0,0.0,0.0,0.0,0.0,0.0,0.0,-1.4794,-1.5329,-1.6522,-1.7037,-1.7843,-1.9,-1.9526,-1.9557,-1.9073,-1.9557,-1.9807,-1.9807,-1.9807,-1.9807,-1.9807,-1.9807,-1.9807,-1.9807,-1.9807,-1.9807,-1.9807,-1.9807,-1.9807,-1.9807,0.0,0.0,0.0,0.0,0.0,0.0,0.0,0.0,0.0,-1.9807,-1.9807,-1.9807,-1.9807,-1.9807,-1.9882,-2.0183,0.0,0.0,0.0,0.0,0.0,0.0,0.0,0.0,0.0,0.0,0.0,0.0,0.0,0.0,0.0,0.0,0.0,0.0,0.0,0.0,0.0,0.0,-4.2697,-4.2494,-4.2075,-4.1726,-4.1545,-4.1061,-4.079,-4.079,-4.079,-4.079,-4.079,-4.079,-4.079,-4.079,-4.0803,-4.0796,-4.08,-4.0792,-4.1086,-4.1643,-4.2167,-4.244,-4.2481,-4.2481,-4.217,-4.1684,-4.1684,-4.1684,-4.1762,-4.2636,-4.2986,-4.3025,-4.3374,-4.351,-4.351,0.0,0.0,0.0,0.0,0.0,0.0,0.0,0.0,0.0,0.0,-1.4794,-1.4794,0.0,0.0,0.0,0.0,0.0,0.0,0.0,-1.4794,-1.5517,-1.7112,-1.7337,-1.8162,-1.977,-1.9807,-1.9807,-1.9807,-1.9807,-1.9807,-1.9807,-1.9807,-1.9807,-1.9807,-1.9807,-1.9807,-1.9807,-1.9807,-1.9807,-1.9807,-1.9807,-1.9807,-1.9807,-1.9807,0.0,0.0,0.0,0.0,0.0,0.0,0.0,0.0,-1.9807,-1.9807,-1.9807,-1.9807,-1.9807,-1.9976,-2.0783,0.0,0.0,0.0,0.0,0.0,0.0,0.0,0.0,0.0,0.0,0.0,0.0,0.0,0.0,0.0,0.0,0.0,0.0,0.0,0.0,0.0,0.0,-4.2489,-4.1681,-4.1793,-4.1583,-4.0848,-4.079,-4.079,-4.079,-4.079,-4.079,-4.079,-4.079,-4.079,-4.079,-4.0808,-4.08,-4.08,-4.0815,-4.0848,-4.0907,-4.0907,-4.0898,-4.0907,-4.0907,-4.0907,-4.0907,-4.0907,-4.0907,-4.0985,-4.1762,-4.2073,-4.217,-4.2966,-4.3258,-4.3268,0.0,0.0,0.0,0.0,0.0,0.0,0.0,0.0,0.0,0.0,0.0,0.0,0.0,0.0,0.0,0.0,0.0,0.0,0.0,-1.4794,-1.5273,-1.6315,-1.7573,-1.8737,-1.9788,-1.9807,-1.9807,-1.9807,-1.9807,-1.9807,-1.9807,-1.9807,-1.9807,-1.9807,-1.9807,-1.9807,-1.9807,-1.9807,-1.9807,-1.9807,-1.9807,-1.9807,-1.9807,-1.9807,-1.9807,0.0,0.0,0.0,0.0,0.0,0.0,0.0,-1.9807,-1.9807,-1.9807,-1.9807,-1.9807,-1.9976,0.0,-2.2098,0.0,0.0,0.0,0.0,0.0,0.0,0.0,0.0,0.0,0.0,0.0,0.0,0.0,0.0,0.0,0.0,0.0,0.0,0.0,0.0,-4.1138,-4.1202,-4.1009,-4.1029,-4.0984,-4.081,-4.079,-4.079,-4.079,-4.079,-4.079,-4.079,-4.079,-4.079,-4.079,-4.0808,-4.0792,-4.0796,-4.0848,-4.0888,-4.0898,-4.0898,-4.0898,-4.0907,-4.0907,-4.0907,-4.0907,-4.0907,-4.0907,-4.0927,-4.1102,-4.1179,-4.1199,-4.1393,-4.1496,-4.1532,0.0,0.0,0.0,0.0,0.0,0.0,0.0,0.0,0.0,0.0,0.0,0.0,0.0,0.0,0.0,0.0,0.0,0.0,0.0,0.0,-1.5367,-1.6616,-1.8249,-1.9338,-1.9788,-1.9807,-1.9807,-1.9807,-1.9807,-1.9807,-1.9807,-1.9807,-1.9807,-1.9807,-1.9807,-1.9807,-1.9807,-1.9807,-1.9807,-1.9807,-1.9807,-1.9807,-1.9807,-1.9807,-1.9807,-1.9807,-1.9807,0.0,0.0,0.0,0.0,0.0,0.0,0.0,-1.9807,-1.9807,-1.9807,-1.9976,0.0,0.0,0.0,0.0,0.0,0.0,0.0,0.0,0.0,0.0,0.0,0.0,0.0,0.0,0.0,0.0,0.0,0.0,0.0,0.0,0.0,-4.0646,-4.0733,-4.079,-4.079,-4.079,-4.0616,-4.021,-4.0172,-4.0172,-4.0172,-4.0172,-4.0172,-4.0172,-4.0172,-3.999,-3.9557,-3.958,-3.9594,-3.9606,-4.0092,-4.0519,-4.0907,-4.0888,-4.0898,-4.0907,-4.0907,-4.0907,-4.0907,-4.0907,-4.0907,-4.0907,-4.0907,-4.0907,-4.0897,-4.0941,-4.0979,-4.0994,0.0,0.0,0.0,0.0,0.0,0.0,0.0,0.0,0.0,0.0,0.0,0.0,0.0,0.0,0.0,0.0,0.0,0.0,0.0,0.0,0.0,-1.7427,-1.8969,-1.9807,-1.9807,-1.9807,-1.9807,-1.9807,-1.9807,-1.9807,-1.9807,-1.9807,-1.9807,-1.9807,-1.9807,-1.9807,-1.9807,-1.9807,-1.9807,-1.9807,-1.9807,-1.9807,-1.9807,-1.9807,-1.9807,-1.9807,-1.9807,-1.9807,-1.9807,-1.9807,0.0,0.0,0.0,0.0,-1.9807,-1.9807,-1.9807,-1.9976,0.0,0.0,0.0,0.0,0.0,0.0,0.0,0.0,0.0,0.0,0.0,0.0,0.0,0.0,0.0,0.0,0.0,0.0,0.0,0.0,-4.052,-4.0365,-4.0346,-4.0404,-4.0558,-4.0578,-4.0268,-3.9565,-3.9507,-3.9429,-3.9282,-3.9282,-3.9282,-3.9282,-3.9274,-3.8938,-3.8214,-3.8276,-3.8307,-3.8307,-3.9238,-3.9975,-4.0461,-4.0616,-4.0771,-4.0888,-4.0752,-4.0694,-4.0674,-4.0538,-4.0461,-4.0461,-4.0479,-4.0565,-4.0691,-4.0766,-4.0875,-4.1013,0.0,0.0,0.0,0.0,0.0,0.0,0.0,0.0,0.0,0.0,0.0,0.0,0.0,0.0,0.0,0.0,0.0,0.0,0.0,0.0,0.0,-1.8261,-1.9251,-1.9807,-1.9807,-1.9807,-1.9807,-1.9807,-1.9807,-1.9807,-1.9807,-1.9807,-1.9807,-1.9807,-1.9807,-1.9807,-1.9807,-1.9807,-1.9807,-1.9807,-1.9807,-1.9807,-1.9807,-1.9807,-1.9807,-1.9807,-1.9807,-1.9807,-1.9807,-1.9807,-1.9807,0.0,0.0,0.0,-1.9807,-1.9807,-1.9807,-1.9976,0.0,0.0,0.0,0.0,0.0,0.0,0.0,0.0,0.0,0.0,0.0,0.0,0.0,0.0,0.0,0.0,0.0,0.0,0.0,0.0,-3.9379,-3.8644,-3.8547,-3.8837,-3.9603,-3.9681,-3.9642,-3.9507,-3.9507,-3.9166,-3.8411,-3.8373,-3.8373,-3.8373,-3.8377,-3.833,-3.8194,-3.8267,-3.8297,-3.8307,-3.9238,-3.9353,-3.8751,-3.9528,-4.0247,-4.0869,-4.0169,-3.9858,-3.98,-3.9043,-3.8732,-3.8721,-3.8726,-3.9202,-3.9864,-3.9872,-4.0394,-4.1092,0.0,0.0,0.0,0.0,0.0,0.0,0.0,0.0,0.0,0.0,0.0,0.0,0.0,0.0,0.0,0.0,0.0,0.0,0.0,0.0,0.0,-1.8404,-1.9307,-1.9807,-1.9807,-1.9807,-1.9807,-1.9807,-1.9807,-1.9807,-1.9807,-1.9807,-1.9807,-1.9807,-1.9807,-1.9807,-1.9807,-1.9807,-1.9807,-1.9807,-1.9807,-1.9807,-1.9807,-1.9807,-1.9807,-1.9807,-1.9807,-1.9807,-1.9807,-1.9807,-1.9807,-1.9807,-1.9807,0.0,0.0,0.0,-1.9807,0.0,0.0,0.0,0.0,0.0,0.0,0.0,0.0,0.0,0.0,0.0,0.0,0.0,0.0,0.0,0.0,0.0,0.0,0.0,0.0,0.0,-3.8624,-3.8257,-3.8199,-3.8353,-3.8721,-3.876,-3.8566,-3.8083,-3.8044,-3.787,-3.7502,-3.7514,-3.7525,-3.7525,-3.7528,-3.7316,-3.6871,-3.6871,-3.7142,-3.7626,-3.8043,-3.8305,-3.8402,-3.879,-3.9159,-3.947,-3.912,-3.8965,-3.8946,-3.8557,-3.8397,-3.8396,-3.8403,-3.8653,-3.9033,-3.9029,-3.9607,-4.0371,0.0,0.0,0.0,0.0,0.0,0.0,0.0,0.0,0.0,0.0,0.0,0.0,0.0,0.0,0.0,0.0,0.0,0.0,0.0,0.0,0.0,-1.8663,-1.9376,-1.9807,-1.9807,-1.9807,-1.9807,-1.9807,-1.9807,-1.9807,-1.9807,-1.9807,-1.9807,-1.9807,-1.9807,-1.9807,-1.9807,-1.9807,-1.9807,-1.9807,-1.9807,-1.9807,-1.9826,-2.0032,-2.0108,-2.0126,-2.037,-2.0446,-2.0408,-2.0183,-2.0108,-2.007,-1.9864,-1.9807,0.0,0.0,0.0,0.0,0.0,0.0,0.0,0.0,0.0,0.0,0.0,0.0,0.0,0.0,0.0,0.0,0.0,0.0,0.0,0.0,0.0,0.0,0.0,0.0,-3.7793,-3.7599,-3.756,-3.7638,-3.7851,-3.787,-3.7599,-3.6961,-3.6709,-3.6593,-3.6605,-3.622,-3.6114,-3.6346,-3.6358,-3.5979,-3.5144,-3.5357,-3.5918,-3.677,-3.6984,-3.7314,-3.7741,-3.7741,-3.7741,-3.7741,-3.7974,-3.8071,-3.8061,-3.7844,-3.7766,-3.7759,-3.7766,-3.7933,-3.817,-3.8183,-3.8749,-3.9529,0.0,0.0,0.0,0.0,0.0,0.0,0.0,0.0,0.0,0.0,0.0,0.0,-1.6966,-1.7089,-1.7113,-1.6953,-1.7649,-1.8365,-1.906,-1.9378,-1.9485,-1.935,-1.9636,0.0,-1.9807,-1.9807,-1.9807,-1.9807,-1.9807,-1.9807,-1.9807,-1.9807,-1.9807,-1.9807,-1.9807,-1.9807,-1.9807,-1.9807,-1.9807,-1.9807,-1.9807,-1.9807,-1.9882,-2.0652,-2.0934,-2.1046,-2.1872,-2.2173,-2.2041,-2.1215,-2.0934,-2.0802,-2.0051,-1.9807,-1.9807,0.0,0.0,0.0,0.0,0.0,0.0,0.0,0.0,0.0,0.0,0.0,0.0,0.0,0.0,0.0,0.0,0.0,0.0,0.0,0.0,0.0,0.0,0.0,-3.669,-3.5916,-3.582,-3.6129,-3.6884,-3.698,-3.6961,-3.6903,-3.6187,-3.5753,-3.5766,-3.4197,-3.3723,-3.4594,-3.4622,-3.4212,-3.3339,-3.4159,-3.5002,-3.5877,-3.6712,-3.6692,-3.5935,-3.5935,-3.5935,-3.5974,-3.6809,-3.7178,-3.7109,-3.6346,-3.6025,-3.6036,-3.6026,-3.6543,-3.7285,-3.7333,-3.7909,-3.8768,0.0,0.0,0.0,0.0,0.0,0.0,0.0,0.0,0.0,0.0,0.0,0.0,0.0,-1.8305,-1.837,-1.7807,-1.8042,-1.8306,-1.8591,-1.9235,-1.9541,-1.9409,-1.9655,-1.9751,-1.9668,-1.977,-1.9807,-1.9807,-1.9807,-1.9807,-1.9807,-1.9807,-1.9807,-1.9807,-1.9807,-1.9807,-1.9807,-1.9807,0.0,0.0,0.0,0.0,-2.0652,0.0,0.0,0.0,0.0,0.0,0.0,-2.1948,-2.1459,-2.0952,-2.0652,-2.022,-1.9807,-1.9807,-1.9807,0.0,0.0,0.0,0.0,0.0,0.0,0.0,0.0,0.0,0.0,0.0,0.0,0.0,0.0,0.0,0.0,0.0,0.0,0.0,0.0,-3.4814,-3.435,-3.4079,-3.404,-3.4137,-3.4427,-3.4457,-3.4467,-3.4467,-3.4236,-3.4091,-3.41,-3.3498,-3.3313,-3.3652,-3.3716,-3.3577,-3.3258,-3.3565,-3.3895,-3.4206,-3.4517,-3.4497,-3.4206,-3.4192,-3.4192,-3.4218,-3.4525,-3.4987,-3.5418,-3.4584,-3.458,-3.5127,-3.5136,-3.5663,-3.6435,-3.6465,-3.7379,-3.8632,0.0,0.0,0.0,0.0,0.0,0.0,0.0,0.0,0.0,-1.7853,0.0,0.0,0.0,0.0,-1.9267,-1.8717,-1.8633,-1.8601,-1.861,-1.9225,-1.9555,-1.9467,-1.9668,-1.9751,-1.9668,-1.9751,-1.9807,-1.9807,-1.9807,-1.9807,-1.9807,-1.9807,-1.9807,-1.9807,-1.9807,-1.9807,-1.9807,0.0,0.0,-2.0258,0.0,0.0,-2.1534,0.0,0.0,0.0,0.0,0.0,0.0,0.0,0.0,0.0,0.0,-2.0446,-1.9807,-1.9807,-1.9807,-1.9807,-1.9807,0.0,0.0,0.0,0.0,0.0,0.0,0.0,0.0,0.0,0.0,0.0,0.0,0.0,0.0,0.0,0.0,0.0,0.0,-3.3479,-3.3102,-3.3102,-3.3102,-3.3102,-3.3102,-3.3093,-3.3103,-3.3103,-3.2879,0.0,-3.3178,-3.2671,-3.2485,-3.2784,-3.2567,-3.271,-3.3293,-3.3002,-3.3002,-3.3293,-3.3293,-3.3308,-3.329,-3.3003,-3.303,-3.3262,-3.2712,-3.3116,-3.4116,-3.3551,-3.3706,-3.4297,-3.4588,-3.505,-3.5603,-3.5896,-3.6735,-3.777,0.0,0.0,0.0,0.0,0.0,0.0,0.0,0.0,-1.8777,-1.949,0.0,0.0,0.0,0.0,0.0,-1.9597,-1.9483,-1.9402,-1.9409,-1.9527,-1.9596,-1.9614,-1.9725,-1.9795,-1.9795,-1.9795,-1.9807,-1.9807,-1.9807,-1.9807,-1.9807,-1.9807,-1.9807,-1.9807,-1.9807,-1.9807,-1.9807,0.0,-2.0258,-2.099,0.0,-2.1553,-2.2417,0.0,0.0,0.0,-2.4426,-2.4707,0.0,-2.3787,0.0,0.0,0.0,0.0,0.0,-1.9807,-1.9807,-1.9807,0.0,0.0,0.0,0.0,0.0,0.0,0.0,0.0,0.0,0.0,0.0,0.0,0.0,0.0,0.0,0.0,0.0,0.0,0.0,-3.2966,-3.2947,-3.2947,-3.2947,-3.2947,-3.2947,-3.2958,-3.2958,-3.2958,-3.223,-3.2169,-3.3048,-3.1573,-3.1076,-3.1887,-3.1098,-3.1467,-3.3177,-3.2322,-3.2302,-3.3138,-3.3177,-3.32,-3.3156,-3.2343,-3.2424,-3.3141,-3.1502,-3.1716,-3.3222,-3.3299,-3.334,-3.3457,-3.4324,-3.4686,-3.4803,-3.5681,-3.601,-3.6169,0.0,0.0,0.0,0.0,0.0,-1.8953,-1.903,-1.8899,-1.8893,0.0,0.0,0.0,-1.9665,-1.9641,-1.9582,-1.9456,-1.9518,-1.9527,-1.9541,-1.9668,-1.9712,-1.9596,-1.9725,-1.9751,-1.9655,-1.9751,-1.9807,-1.9807,-1.9807,-1.9807,-1.9807,-1.9807,-1.9807,-1.9807,-1.9807,-1.9807,-1.9807,-1.9807,0.0,0.0,-2.1685,-2.2436,0.0,0.0,0.0,0.0,0.0,-2.4707,-2.467,0.0,-2.3825,-2.2905,0.0,0.0,0.0,-1.9807,-1.9807,-1.9807,-1.9807,0.0,0.0,0.0,0.0,0.0,0.0,0.0,0.0,0.0,0.0,0.0,0.0,0.0,0.0,0.0,0.0,0.0,0.0,-2.9805,-2.9418,-2.9418,-2.9407,-2.9397,-2.9397,-2.9458,-2.9474,0.0,-2.9283,-2.953,-3.0411,-3.0605,-3.0508,-3.0127,-2.9894,-2.9991,-3.0477,-2.9622,-2.9331,-2.9624,-3.0253,-3.0555,-3.0551,-3.0945,-3.1265,-3.1463,-3.0992,-3.1067,-3.1481,-3.1516,-3.1885,-3.2549,-3.342,-3.4139,-3.4803,-3.5681,-3.6404,-3.697,0.0,0.0,0.0,0.0,0.0,-1.9081,-1.8964,-1.9033,-1.9148,0.0,0.0,0.0,-1.9681,-1.9668,-1.9614,-1.9536,-1.9609,-1.9649,-1.9681,-1.977,-1.977,-1.9699,-1.9751,-1.9751,-1.9699,-1.9751,-1.9807,-1.9807,-1.9807,-1.9807,-1.9807,-1.9807,-1.9807,-1.9807,-1.9807,0.0,0.0,0.0,0.0,0.0,-2.1948,0.0,0.0,-2.4388,-2.4707,0.0,0.0,0.0,-2.4707,-2.4707,-2.4163,0.0,0.0,0.0,-2.084,-2.084,-2.084,-2.084,-2.084,-2.0577,0.0,0.0,0.0,0.0,-1.9885,-2.057,0.0,0.0,0.0,0.0,0.0,0.0,0.0,0.0,0.0,0.0,0.0,-2.8034,-2.7616,-2.7965,-2.7992,-2.8001,-2.8047,-2.8078,-2.8099,-2.8099,-2.8094,-2.8314,-2.8826,-2.935,-2.9389,-2.8864,-2.8864,-2.8864,-2.8864,-2.8353,-2.8119,-2.8154,-2.8705,-2.8954,-2.8967,-2.9471,-2.9726,-2.9782,-3.0144,-3.0294,-3.0333,-3.0665,-3.1094,-3.1641,-3.2519,-3.3163,-3.3768,-3.4998,-3.5779,-3.6267,0.0,0.0,-1.8947,-1.8843,-1.8913,-1.9014,-1.9014,-1.9214,-1.945,0.0,-1.9694,-1.9695,-1.9695,-1.9707,-1.9712,-1.9701,-1.9713,-1.9732,-1.9763,-1.9795,-1.9807,-1.9807,-1.9807,-1.9807,-1.9807,-1.9807,-1.9807,-1.9807,-1.9807,-1.9807,-1.9807,-1.9807,-1.9807,-1.9807,-1.9807,0.0,0.0,0.0,0.0,-2.1065,-2.1948,-2.283,0.0,0.0,-2.4707,-2.4707,-2.4707,-2.4707,-2.4707,-2.4707,-2.4163,0.0,0.0,0.0,-2.2304,-2.2304,-2.2304,-2.2304,-2.2304,-2.1666,-2.099,0.0,0.0,0.0,-1.9907,-2.0527,-2.1141,0.0,0.0,0.0,0.0,0.0,0.0,0.0,0.0,0.0,0.0,0.0,-2.6637,-2.7361,-2.7439,-2.7466,-2.752,-2.753,-2.7537,-2.7537,-2.7705,-2.7809,-2.7809,-2.8003,-2.8061,-2.7964,-2.7964,-2.7964,-2.7964,-2.7867,-2.7815,-2.7822,-2.797,-2.8057,-2.8073,-2.8162,-2.824,-2.8342,-2.9123,-2.9513,-2.965,-3.0372,-3.0723,-3.0899,-3.1758,-3.209,-3.2304,-3.4061,-3.4705,-3.4822,0.0,-1.8872,-1.8998,-1.8982,-1.8981,-1.9014,-1.9064,-1.9132,-1.9227,-1.9423,-1.9591,-1.9695,-1.9695,-1.9763,-1.9738,-1.9623,-1.9725,-1.9738,-1.9641,-1.9738,-1.9807,-1.9807,-1.9807,-1.9807,-1.9807,-1.9807,-1.9807,-1.9807,-1.9807,-1.9807,-1.9807,-1.9807,-1.9807,-1.9807,-1.9807,-1.9807,0.0,0.0,0.0,-2.1065,-2.1948,0.0,-2.4482,-2.4651,-2.4707,-2.4707,-2.4707,-2.4707,-2.4707,-2.4707,-2.4163,-2.3483,0.0,0.0,0.0,-2.2304,-2.2304,-2.2304,0.0,0.0,0.0,0.0,0.0,0.0,-2.004,-2.024,-2.0634,0.0,0.0,0.0,0.0,0.0,0.0,0.0,0.0,0.0,0.0,0.0,-2.3793,-2.3967,-2.3986,-2.3979,-2.3979,-2.3997,-2.4003,-2.4003,-2.529,-2.6087,-2.6087,-2.7362,-2.7796,-2.7155,-2.7136,-2.7136,-2.7136,-2.6436,-2.609,-2.6091,-2.6809,-2.7178,-2.7265,-2.7891,-2.8239,-2.8303,-2.8479,-2.8947,-2.9613,-2.9767,-3.0216,-3.0899,-3.1758,-3.209,-3.2304,-3.4061,-3.4705,-3.4822,-1.8835,-1.9081,-1.9146,-1.9146,-1.918,-1.9214,-1.9246,-1.9243,-1.9316,-1.9523,-1.9662,-1.9745,-1.9745,-1.9776,-1.9763,-1.9712,-1.9751,-1.9763,-1.9694,-1.9751,-1.9807,-1.9807,-1.9807,-1.9807,-1.9807,-1.9807,-1.9807,-1.9807,-1.9807,-1.9807,-1.9807,-1.9807,-2.0014,-2.0389,-1.9976,-2.0258,0.0,0.0,-2.1478,-2.2281,-2.2717,0.0,-2.4144,-2.4557,-2.4707,-2.4707,-2.4707,-2.4707,-2.4707,-2.4707,-2.4426,0.0,0.0,-2.3825,-2.3506,0.0,-2.3506,-2.3506,0.0,0.0,0.0,-2.1783,0.0,0.0,0.0,-2.051,-2.0881,-2.103,-2.1391,0.0,0.0,0.0,0.0,0.0,0.0,0.0,0.0,0.0,-2.2513,-2.2939,-2.299,-2.3001,-2.3007,-2.2998,-2.2998,-2.2998,-2.3814,-2.43,-2.43,-2.5504,-2.6022,-2.5621,-2.6028,-2.6242,-2.6242,-2.5387,-2.4952,-2.4944,-2.4992,-2.5256,-2.572,-2.6112,-2.6555,-2.7034,-2.7464,-2.7893,-2.8364,-2.9242,-2.9845,-3.0274,-3.1114,-3.1446,-3.1602,-3.2929,-3.3398,-3.3593,-1.8868,-1.9178,-1.9289,-1.9259,-1.9308,-1.939,-1.9405,-1.9427,-1.9509,-1.9701,-1.9776,-1.9807,-1.9807,-1.9807,-1.9807,-1.9807,-1.9807,-1.9807,-1.9807,-1.9807,-1.9807,-1.9807,-1.9807,-1.9807,-1.9807,-1.9807,-1.9807,-1.9807,-1.9807,-1.9807,-1.9807,-1.9807,-2.0239,-2.0971,-2.0314,-2.0877,0.0,0.0,0.0,-2.352,0.0,-2.3731,-2.3787,-2.4445,-2.4707,-2.4707,-2.4707,-2.4707,-2.4707,-2.4707,-2.4707,-2.4707,-2.4707,-2.4707,0.0,0.0,0.0,0.0,0.0,0.0,0.0,0.0,0.0,-2.1934,0.0,0.0,0.0,-2.0766,0.0,0.0,0.0,0.0,0.0,0.0,0.0,0.0,0.0,0.0,0.0,-2.2438,-2.2516,-2.2522,-2.2513,-2.2513,-2.2571,-2.2746,-2.2746,-2.2823,-2.2979,-2.3678,-2.4042,-2.4042,-2.4727,-2.5096,-2.5096,-2.4397,-2.4042,-2.4047,-2.3391,-2.3458,-2.4167,-2.4315,-2.4772,-2.5492,-2.6371,-2.6841,-2.7114,-2.852,-2.9301,-2.9669,-3.0489,-3.0801,-3.0919,-3.1777,-3.2207,-3.2558,-1.9078,-1.9289,-1.9243,-1.9064,-1.9196,-1.932,-1.938,-1.956,-1.9699,-1.9782,-1.9795,-1.9807,-1.9807,0.0,0.0,0.0,0.0,0.0,-1.9807,0.0,-1.9807,-1.9807,-1.9807,-1.9807,-1.9807,-1.9807,-1.9807,-1.9807,-1.9807,-1.9807,-1.9807,-1.9807,-2.0239,-2.099,-2.0896,0.0,0.0,0.0,-2.3333,0.0,-2.4276,-2.4557,0.0,-2.467,-2.4707,-2.4707,-2.4707,-2.4707,-2.4707,0.0,-2.4707,-2.4707,0.0,-2.4707,-2.4707,-2.4707,0.0,0.0,0.0,0.0,0.0,0.0,-2.2513,0.0,0.0,0.0,-2.1656,-2.1564,0.0,0.0,0.0,0.0,0.0,0.0,0.0,0.0,-2.0488,0.0,-2.0663,-2.0779,-2.0779,-2.0779,-2.0779,-2.0779,-2.107,-2.1794,-2.1852,-2.2182,-2.2959,-2.3095,-2.3154,-2.3154,-2.3231,-2.329,-2.329,-2.3193,-2.3154,-2.3154,-2.3069,-2.3088,-2.3269,-2.4042,-2.445,-2.4592,-2.5473,-2.6293,-2.7017,-2.7212,-2.8207,-2.9669,-3.0489,-3.0801,-3.0919,-3.1777,-3.2597,-3.328,-1.9276,-1.9353,0.0,-1.935,-1.9409,-1.9485,-1.9513,-1.9614,-1.9699,-1.9744,-1.9725,-1.9725,0.0,0.0,0.0,0.0,0.0,-1.9995,0.0,0.0,-2.0502,-2.0502,-2.099,-2.1253,-2.1253,-2.0765,-2.0502,-2.0502,-2.0032,-1.9807,-1.9807,-2.0277,-2.0952,-2.1741,-2.1741,0.0,-2.3675,0.0,-2.3769,0.0,0.0,0.0,0.0,-2.4707,-2.4707,-2.4707,-2.4707,-2.4707,-2.4707,0.0,-2.4707,0.0,0.0,0.0,0.0,0.0,0.0,0.0,0.0,0.0,0.0,0.0,0.0,0.0,-2.303,0.0,-2.2876,0.0,0.0,0.0,0.0,0.0,0.0,0.0,-2.0507,0.0,0.0,0.0,-2.0507,0.0,0.0,0.0,-2.0507,-2.0507,-2.0643,-2.0973,-2.0993,-2.1167,-2.1541,-2.1988,-2.2241,-2.2241,-2.2746,-2.2998,-2.2998,-2.2542,-2.2298,-2.2302,-2.1789,-2.1828,-2.2361,-2.2753,-2.3488,-2.4417,-2.4788,-2.5434,-2.6273,-2.6782,-2.7427,-2.8188,-2.9025,-2.9943,-3.0841,-3.1211,-3.1582,-3.2051,-1.9513,0.0,0.0,0.0,-1.9601,-1.9614,-1.9628,-1.9668,-1.9699,-1.9699,0.0,0.0,-1.9712,-1.9907,0.0,0.0,-2.0677,-2.0727,0.0,0.0,-2.1347,-2.1347,-2.1966,0.0,0.0,-2.1685,-2.1347,-2.1347,-2.0765,-2.0502,-2.0502,-2.1084,-2.1816,-2.2623,0.0,-2.3393,-2.467,0.0,0.0,-2.4707,-2.4707,-2.4707,-2.4707,-2.4707,-2.4707,-2.4707,-2.4707,-2.4707,-2.4707,-2.4707,-2.4707,0.0,-2.4707,0.0,0.0,0.0,0.0,0.0,-2.4707,0.0,0.0,0.0,0.0,0.0,0.0,0.0,0.0,0.0,0.0,0.0,0.0,0.0,-2.0507,-2.0507,0.0,-2.0507,0.0,-2.0507,0.0,0.0,0.0,0.0,0.0,-2.0507,-2.0507,-2.0507,-2.0507,-2.0507,-2.0507,-2.1051,-2.1362,-2.1362,-2.1988,-2.2304,-2.2299,-2.1745,-2.1432,-2.1441,-2.0796,-2.082,-2.1445,-2.175,-2.268,-2.4065,-2.43,-2.4885,-2.5746,-2.6371,-2.6782,-2.7056,-2.7698,-2.8986,-3.047,-3.047,-3.0762,-3.1348,-1.9763,-1.9668,0.0,0.0,0.0,-1.9628,-1.9686,0.0,0.0,0.0,0.0,0.0,0.0,0.0,0.0,0.0,0.0,-2.2229,-2.2267,0.0,-2.2267,-2.2267,-2.2285,-2.2304,0.0,0.0,-2.2267,-2.2267,-2.2229,-2.2229,-2.2229,-2.2248,-2.268,-2.3464,-2.3464,-2.3919,-2.4707,-2.467,-2.4689,-2.4707,-2.4707,-2.4707,-2.4707,0.0,-2.4707,-2.4707,-2.4707,0.0,0.0,-2.4707,-2.4707,0.0,0.0,0.0,0.0,0.0,0.0,0.0,0.0,0.0,0.0,-2.4796,0.0,0.0,0.0,0.0,-2.4193,0.0,0.0,0.0,0.0,-2.1032,-2.0507,-2.0507,-2.0507,0.0,0.0,0.0,0.0,0.0,0.0,0.0,0.0,-2.0507,-2.0507,-2.0507,-2.0507,-2.0507,-2.0507,-2.0527,-2.0546,-2.0546,-2.0565,-2.0573,-2.0575,-2.0555,-2.0533,-2.0534,-2.0507,-2.0508,-2.0566,-2.1477,-2.235,-2.3189,-2.4026,-2.4885,-2.5707,-2.5726,-2.6234,-2.6997,-2.7036,-2.811,-2.963,-2.963,-3.0665,-3.207,0.0,0.0,0.0,0.0,0.0,0.0,0.0,-1.9628,0.0,0.0,0.0,0.0,0.0,-2.324,-2.3457,0.0,0.0,-2.3093,-2.3093,-2.3093,0.0,0.0,0.0,-2.39,0.0,0.0,0.0,-2.3093,-2.2567,-2.2304,-2.2304,-2.283,-2.3239,-2.352,-2.405,-2.4445,0.0,0.0,0.0,0.0,0.0,-2.4707,-2.4707,0.0,-2.4707,-2.4707,-2.4707,-2.4707,0.0,-2.4707,-2.4707,-2.4707,-2.4707,-2.4707,-2.4707,-2.4707,-2.4707,-2.4723,-2.4823,0.0,-2.4657,-2.5124,0.0,0.0,0.0,0.0,0.0,0.0,0.0,0.0,0.0,-2.1032,-2.0507,-2.0507,-2.0507,-2.0507,0.0,0.0,0.0,0.0,0.0,0.0,0.0,0.0,-2.0507,-2.0507,-2.0507,-2.0507,-2.0507,-2.0507,-2.0506,-2.0496,-2.0499,-2.0497,-2.0506,-2.0498,-2.0504,-2.0507,-2.0546,-2.0561,-2.0581,-2.0889,-2.1491,-2.235,-2.3189,-2.4028,-2.4885,-2.5453,-2.5863,-2.6136,-2.6136,-2.6859,-2.8012,-2.9164,-3.0294,-3.1407,-1.9628,0.0,0.0,0.0,0.0,0.0,0.0,0.0,0.0,0.0,-2.2895,0.0,-2.4554,0.0,-2.5051,0.0,-2.452,-2.4272,-2.3938,-2.3919,0.0,-2.3919,-2.4426,0.0,0.0,0.0,0.0,0.0,-2.3412,-2.3149,-2.3168,-2.3675,-2.3919,-2.3938,-2.4463,-2.4707,-2.4707,0.0,-2.4707,0.0,0.0,-2.4707,0.0,0.0,-2.4707,-2.4707,0.0,-2.4707,-2.4707,-2.4707,-2.4707,-2.4707,-2.4707,-2.4707,-2.4707,-2.4707,-2.4707,-2.4719,-2.4861,-2.4949,-2.5061,-2.5253,-2.5369,0.0,-2.5485,0.0,-2.5396,0.0,0.0,0.0,0.0,-2.1483,-2.0934,-2.0934,-2.0934,-2.0837,0.0,-2.0507,0.0,0.0,0.0,0.0,0.0,0.0,-2.0507,-2.0507,-2.0507,-2.0507,-2.0507,-2.0506,-2.0492,-2.05,-2.0509,-2.0506,-2.0503,-2.0507,-2.0508,-2.0545,-2.0579,-2.0593,-2.0593,-2.0593,-2.1081,-2.1938,-2.276,-2.3599,-2.4475,-2.5336,-2.5707,-2.5707,-2.5707,-2.6234,-2.7173,-2.8615,-3.004,-3.1426,0.0,0.0,0.0,0.0,-1.9606,0.0,0.0,0.0,-2.3067,0.0,-2.4407,-2.5691,-2.5035,-2.5686,-2.5831,-2.497,-2.5627,0.0,-2.4839,-2.4782,0.0,0.0,-2.4707,-2.4707,-2.4707,0.0,0.0,0.0,0.0,-2.4707,-2.4707,-2.4707,-2.4707,-2.4707,-2.4707,0.0,-2.4707,-2.4707,-2.4707,-2.4707,-2.4707,-2.4707,-2.4707,-2.4707,-2.4707,-2.4707,-2.4707,-2.4707,-2.4723,-2.4723,-2.4704,-2.4723,-2.4723,-2.4723,-2.4723,-2.4723,-2.4723,-2.4749,-2.4888,-2.4929,-2.4994,-2.5243,-2.5303,-2.5337,0.0,0.0,-2.5602,0.0,0.0,0.0,0.0,0.0,-2.1716,-2.1755,-2.1755,-2.1478,-2.0663,0.0,0.0,0.0,0.0,0.0,0.0,-2.0507,-2.0507,-2.0507,-2.0493,-2.0493,-2.0493,-2.0499,-2.0503,-2.0503,-2.0508,-2.0503,-2.0508,-2.0508,-2.0545,-2.0593,-2.0593,-2.0593,-2.0593,-2.0593,-2.1042,-2.1879,-2.272,-2.3579,-2.4417,-2.5317,-2.5707,-2.5707,-2.5707,-2.6253,-2.7173,-2.8049,-2.9943,-3.2109,-1.9655,-1.962,-1.9611,0.0,-1.9601,-1.9614,0.0,0.0,0.0,0.0,-2.5691,-2.7262,-2.8294,-2.8612,-2.8406,-2.7525,-2.7638,0.0,0.0,0.0,0.0,-2.4726,-2.4707,-2.4707,-2.4707,-2.4707,0.0,-2.4707,0.0,-2.4707,-2.4707,-2.4707,-2.4707,-2.4707,-2.4707,0.0,-2.4707,-2.4707,-2.4707,-2.4707,-2.4707,-2.4707,-2.4707,0.0,-2.4707,-2.4707,-2.4707,-2.4764,-2.4847,-2.4847,-2.4896,-2.5006,-2.5006,-2.5006,-2.5006,-2.5006,-2.5006,-2.5031,-2.516,-2.5201,-2.5243,-2.5404,-2.5445,-2.5468,-2.5564,-2.5596,0.0,0.0,0.0,0.0,0.0,0.0,-2.1911,-2.2552,-2.2668,-2.2377,0.0,0.0,0.0,-2.0565,0.0,0.0,0.0,-2.0507,-2.0507,-2.0507,-2.0504,-2.0503,-2.0503,-2.0494,-2.0495,-2.0505,-2.0507,-2.0527,-2.058,-2.0579,-2.0578,-2.0593,-2.0593,-2.0593,-2.0593,-2.0593,-2.071,-2.1003,-2.2467,-2.3228,-2.356,-2.5063,-2.5707,-2.5707,-2.5707,-2.6624,-2.8069,-2.8947,-3.047,-3.209,-1.9641,0.0,0.0,-2.0113,0.0,0.0,-2.0788,0.0,0.0,-2.511,-2.7018,0.0,-2.9082,-2.9476,-2.9345,-2.8482,-2.8069,0.0,-2.6303,0.0,0.0,-2.4726,-2.4707,-2.4707,-2.4707,-2.4707,0.0,-2.4707,0.0,-2.4707,-2.4707,-2.4707,-2.4707,-2.4707,0.0,-2.4707,0.0,-2.4707,-2.4707,-2.4707,-2.4707,-2.4707,0.0,-2.4764,-2.4794,-2.4808,-2.4847,-2.4888,-2.4915,-2.4981,-2.5043,-2.5096,-2.5096,-2.5096,-2.5096,-2.5096,-2.5096,-2.5138,-2.5264,-2.5293,-2.5331,-2.5472,-2.551,-2.555,-2.5596,-2.5602,-2.5589,-2.5601,-2.4513,-2.3717,-2.4216,-2.3498,-2.2993,-2.3484,-2.3562,0.0,0.0,0.0,0.0,0.0,-2.0504,0.0,-2.0506,-2.0495,-2.0506,-2.0506,-2.0497,-2.0506,-2.0497,-2.0497,-2.0506,-2.0508,-2.1249,-2.1303,-2.0612,-2.1335,-2.1335,-2.0593,-2.0593,-2.0593,-2.0612,-2.0983,-2.0964,-2.071,-2.2779,-2.3443,-2.3247,-2.4985,-2.5707,-2.5707,-2.5707,-2.6761,-2.8362,-2.885,-3.0099,-3.1524,0.0,0.0,0.0,0.0,0.0,0.0,0.0,-2.4741,0.0,-2.6216,0.0,-2.9401,-2.8651,-2.9251,-2.9401,-2.8632,0.0,-2.7054,-2.632,-2.5383,-2.4895,-2.4933,-2.4782,-2.4707,-2.4707,-2.4707,0.0,0.0,-2.4707,-2.4707,-2.4707,-2.4707,-2.4707,-2.4707,0.0,0.0,0.0,-2.4707,-2.4707,-2.4707,-2.4707,-2.4723,-2.4734,-2.4861,-2.4915,-2.4936,-2.5091,-2.5037,-2.4981,-2.5091,-2.5149,-2.516,-2.516,-2.516,-2.516,-2.516,-2.516,-2.5182,-2.5293,-2.5331,-2.5357,-2.5488,-2.555,-2.5596,-2.5602,-2.5589,-2.5601,-2.5601,-2.4915,-2.4333,-2.4449,-2.4469,-2.4469,0.0,0.0,0.0,0.0,0.0,0.0,0.0,0.0,0.0,0.0,-2.0497,-2.0499,-2.0494,-2.0501,-2.0501,-2.0498,0.0,-2.0508,-2.0508,-2.1986,-2.2135,-2.0788,-2.2096,-2.2096,-2.0769,-2.0651,-2.0593,-2.0632,-2.151,-2.1413,-2.0749,-2.3285,-2.3909,-2.3247,-2.4985,-2.5707,-2.5707,-2.5707,-2.6761,-2.8303,-2.8303,-2.9357,-3.0799,0.0,0.0,0.0,0.0,0.0,-2.5718,-2.6163,-2.7209,-2.7958,-2.7957,-2.8988,-2.9645,-2.9495,-2.9608,-2.9645,-2.9495,-2.8688,0.0,0.0,0.0,0.0,-2.6097,-2.5214,-2.4707,-2.4707,-2.4707,-2.4707,0.0,-2.4707,-2.4707,-2.4707,-2.4707,-2.4707,-2.4707,0.0,0.0,-2.4707,-2.4707,0.0,-2.4707,-2.4707,-2.4764,-2.4861,-2.4888,-2.4981,-2.5072,-2.5222,-2.5253,-2.5233,-2.5253,-2.5341,-2.5423,-2.5423,-2.5423,-2.5423,-2.5423,-2.5423,-2.5432,-2.5464,-2.5453,-2.5468,-2.5557,-2.5596,-2.5602,-2.5595,-2.5601,-2.5601,-2.5601,-2.4915,-2.4527,-2.5251,-2.5368,-2.5368,0.0,0.0,0.0,0.0,0.0,0.0,0.0,0.0,-2.0498,0.0,0.0,-2.0508,-2.0495,-2.0504,-2.0507,-2.0507,0.0,-2.0578,0.0,-2.0887,-2.1237,0.0,-2.1257,-2.1257,-2.1665,-2.0944,-2.0593,-2.0632,-2.151,-2.1413,-2.0749,-2.3285,-2.3909,-2.3247,-2.4985,-2.5707,-2.5707,-2.5707,-2.6761,-2.8303,-2.8303,-2.9357,-3.0801,0.0,0.0,0.0,0.0,0.0,0.0,0.0,-2.9139,-2.9551,-2.9138,-2.9063,-2.9044,-2.9044,-2.9439,-2.9701,-2.9701,-2.8519,-2.773,-2.758,-2.6172,-2.5383,-2.5515,-2.4989,0.0,-2.4707,-2.4707,-2.4707,-2.4707,-2.4707,-2.4707,-2.4707,-2.4707,-2.4707,-2.4707,0.0,-2.479,0.0,0.0,-2.4915,-2.4915,-2.4915,-2.4955,-2.5,-2.508,-2.5149,-2.5233,-2.5351,-2.5406,-2.5406,-2.5406,-2.5451,-2.5511,-2.5511,-2.5511,-2.5511,-2.5511,-2.5511,-2.5492,-2.5495,-2.551,-2.5524,-2.557,-2.5602,-2.5589,-2.5601,-2.5601,-2.5601,-2.5601,-2.5271,-2.5096,-2.5523,-2.5601,-2.5601,0.0,0.0,0.0,0.0,0.0,0.0,0.0,0.0,0.0,0.0,0.0,0.0,0.0,0.0,-2.0527,-2.0544,-2.0578,-2.0593,0.0,0.0,0.0,-2.1237,0.0,-2.1666,-2.1217,-2.0808,-2.0593,-2.0632,-2.194,-2.1823,-2.0769,-2.3775,-2.4321,-2.3247,-2.4985,-2.5707,-2.5707,-2.5707,-2.6488,-2.7678,-2.8127,-2.9103,-3.0235,0.0,-2.4099,0.0,0.0,-2.8053,0.0,-3.0039,-3.0714,-3.0865,-3.0058,-2.9213,-2.867,-2.867,-2.9288,-2.9626,-2.9439,-2.8068,-2.7204,-2.7204,-2.5627,-2.4782,-2.497,-2.4801,-2.4707,-2.4707,-2.4707,-2.4707,-2.4707,-2.4707,-2.4707,-2.4707,-2.4707,-2.4723,-2.4749,0.0,0.0,0.0,-2.5068,-2.5096,-2.5096,-2.5096,-2.5126,-2.516,-2.5253,-2.5322,-2.537,-2.5468,-2.5511,-2.5511,-2.5511,-2.5511,-2.5511,-2.5511,-2.5511,-2.5511,-2.5511,-2.5492,-2.5499,-2.5503,-2.5505,-2.5525,-2.5596,-2.5589,-2.5601,-2.5601,-2.5601,-2.5601,-2.5601,-2.5601,-2.5601,-2.5601,-2.5593,-2.5593,0.0,0.0,0.0,0.0,0.0,0.0,0.0,0.0,0.0,-2.0594,0.0,0.0,0.0,0.0,-2.0544,-2.0594,-2.0593,-2.0593,-2.0593,-2.1881,-2.2018,-2.0886,0.0,-2.1998,-2.0866,-2.069,-2.0593,-2.0651,-2.233,-2.2291,-2.1061,-2.4302,-2.4926,-2.3755,-2.5121,-2.5707,-2.5707,-2.5707,-2.6351,-2.7366,-2.8049,-2.8967,-2.9943,0.0,0.0,0.0,0.0,0.0,0.0,-3.186,-3.1936,-3.171,-3.0903,-3.0077,-2.957,-2.957,-2.9645,-2.9382,-2.8576,-2.7711,-2.7204,-2.7204,-2.5627,-2.5045,-2.585,-2.512,-2.4707,-2.4707,-2.4707,-2.4707,0.0,-2.4707,-2.4707,-2.4707,-2.4707,-2.4764,-2.4888,-2.4902,-2.4981,-2.5072,-2.5084,-2.5096,-2.5096,-2.5096,-2.5171,-2.5274,-2.5303,-2.5388,-2.5476,-2.5503,-2.5511,-2.5511,-2.5511,-2.5511,-2.5511,-2.5511,-2.5511,-2.5511,-2.5511,-2.5499,-2.5503,-2.5505,-2.5544,-2.5602,-2.5595,-2.5601,-2.5601,-2.5601,-2.5601,-2.5601,-2.5601,-2.5601,-2.5601,-2.5601,-2.5605,-2.56,-2.5607,0.0,0.0,0.0,0.0,0.0,0.0,0.0,0.0,0.0,-2.0593,0.0,0.0,-2.0594,-2.0594,-2.0593,-2.0593,-2.0593,-2.0593,-2.0749,-2.1139,-2.1762,-2.1159,-2.1159,-2.1762,-2.0983,-2.0593,-2.0651,-2.233,-2.2623,-2.1918,-2.4555,-2.5609,-2.5473,-2.5629,-2.5707,-2.5707,-2.5707,-2.6722,-2.8186,-2.8264,-2.9318,-3.0704,0.0,0.0,0.0,0.0,0.0,0.0,0.0,-3.1822,-3.1278,-3.0321,-2.9439,-2.9119,-2.9645,-2.9232,-2.8763,-2.8426,-2.7674,-2.6998,-2.6526,-2.5364,-2.4858,-2.5196,-2.4895,-2.4707,-2.4707,-2.4707,-2.4734,0.0,0.0,-2.4734,-2.4818,-2.4818,-2.4888,-2.5012,-2.5103,-2.516,-2.5233,-2.5322,-2.5341,-2.5341,-2.5341,-2.5369,-2.5415,-2.5415,-2.5459,-2.5511,-2.5511,-2.5511,-2.5511,-2.5511,-2.5511,-2.5511,-2.5511,-2.5511,-2.5492,-2.5499,-2.5495,-2.5503,-2.5538,-2.5577,-2.5602,-2.5595,-2.5601,-2.5601,-2.5601,-2.5601,-2.5601,-2.5601,-2.5601,-2.5593,-2.5605,-2.5609,-2.5605,-2.5593,0.0,0.0,0.0,0.0,0.0,0.0,0.0,0.0,0.0,0.0,0.0,0.0,0.0,-2.0593,-2.0593,-2.0593,-2.0593,-2.0593,-2.0593,-2.1022,-2.1899,-2.1042,-2.1042,-2.1899,-2.1022,-2.0593,-2.0651,-2.233,-2.3501,-2.4204,-2.4692,-2.5219,-2.5707,-2.5707,-2.5707,-2.5707,-2.5707,-2.6449,-2.7581,-2.8108,-2.9064,-3.0216,-2.9738,0.0,-3.0789,0.0,-3.2011,-3.1748,-3.2048,-3.1578,-3.0902,-3.0152,-2.9101,-2.8726,-2.9589,-2.9157,-2.867,-2.8426,-2.7674,-2.6848,-2.6057,-2.5177,-2.4707,-2.4707,-2.4707,0.0,-2.4749,-2.4764,-2.4818,-2.4968,-2.4861,-2.4861,-2.4968,-2.4968,-2.5024,-2.516,-2.5253,-2.5322,-2.5379,-2.5459,-2.5511,-2.5511,-2.5511,-2.5511,-2.5511,-2.5511,-2.5511,-2.5511,-2.5511,-2.5511,-2.5511,-2.5511,-2.5511,-2.5511,-2.5511,-2.5492,-2.5499,-2.5495,-2.551,-2.5543,-2.559,-2.5602,-2.5609,-2.5595,-2.5601,-2.5601,-2.5601,-2.5601,-2.5607,-2.5604,-2.5609,-2.5605,-2.5593,-2.5626,-2.5618,-2.5607,-2.5663,0.0,0.0,-2.365,0.0,0.0,-2.11,-2.0593,-2.0593,-2.0593,0.0,0.0,0.0,-2.0593,-2.0593,-2.0593,-2.0593,-2.0593,-2.0847,-2.1276,-2.1899,-2.151,-2.1647,-2.2232,-2.1393,-2.11,-2.1374,-2.2838,-2.4282,-2.5668,-2.5043,-2.5121,-2.5707,-2.5707,-2.5707,-2.5726,-2.598,-2.6605,-2.7483,-2.8362,-2.922,-3.0157,-3.0469,-3.1464,-3.2349,-3.3231,-3.3381,-3.3081,-3.2236,-3.1429,-3.0884,-3.0884,-2.942,-2.8726,-2.9589,-2.9683,-2.9345,-2.8482,-2.7674,-2.6848,-2.6057,-2.5177,-2.4707,0.0,0.0,-2.4764,-2.4902,-2.4902,-2.4949,-2.5103,0.0,-2.5103,-2.5103,-2.5103,-2.5171,-2.5303,-2.5303,-2.536,-2.5511,-2.5511,-2.5511,-2.5511,-2.5511,-2.5511,-2.5511,-2.5511,-2.5511,-2.5511,-2.5511,-2.5511,-2.5511,-2.5511,-2.5511,-2.5511,-2.5511,-2.5499,-2.5495,-2.5495,-2.555,-2.5596,-2.5596,-2.5609,-2.5601,-2.5601,-2.5601,-2.5601,-2.5601,-2.5601,-2.5599,-2.5589,-2.5601,-2.5593,-2.5605,-2.5641,-2.5683,-2.5613,-2.5664,0.0,0.0,-2.365,0.0,-2.1997,-2.1139,-2.0593,-2.0593,-2.0593,0.0,0.0,0.0,-2.0593,-2.0593,-2.0593,-2.0593,-2.0593,-2.1432,-2.1899,-2.1899,-2.2681,-2.3072,-2.3072,-2.2272,-2.2291,-2.3091,-2.3987,-2.4866,-2.5707,-2.5687,-2.5687,-2.5707,-2.5707,-2.5707,-2.5785,-2.6646,-2.7522,-2.8381,-2.9259,-3.0099,-3.0919,-3.2366,-3.2647,-3.2799,-3.3081,-3.248,-3.2011,-3.2086,-3.1879,-3.1316,-3.0227,-2.9626,-2.9382,-2.9664,-2.9176,-2.8688,0.0,-2.7674,-2.6848,0.0,-2.5177,-2.4734,-2.4832,-2.4832,-2.4902,-2.5024,-2.5043,-2.5103,-2.5243,-2.5149,-2.5149,-2.5243,-2.5243,-2.5313,-2.5451,-2.5451,-2.5459,-2.5511,-2.5511,-2.5511,-2.5511,-2.5511,-2.5511,-2.5511,-2.5511,-2.5511,-2.5511,-2.5511,-2.5511,-2.5511,-2.5511,-2.5511,-2.5492,-2.5507,-2.5495,-2.5503,-2.555,-2.559,-2.5602,-2.5589,-2.5595,-2.5601,-2.5601,-2.5601,-2.5601,-2.5601,-2.559,-2.5604,-2.5598,-2.5603,-2.5605,-2.5661,-2.5683,-2.5683,-2.5662,-2.5694,-2.5396,-2.4525,0.0,-2.3462,-2.2078,-2.1668,-2.1258,-2.0651,-2.0593,0.0,0.0,0.0,0.0,-2.0593,-2.116,-2.1473,-2.1414,-2.2254,-2.2995,-2.3599,-2.3267,-2.3404,-2.3987,-2.3111,-2.3462,-2.4887,-2.516,-2.6097,-2.7405,-2.6214,-2.6039,-2.6546,-2.5941,-2.6058,-2.6607,-2.69,-2.7895,-2.922,-2.9494,-3.0118,-3.1016,-3.3287,-3.3513,-3.34,-3.278,-3.1917,-3.1278,-3.1203,-3.1203,-3.0715,-2.9401,-2.9119,-2.8969,-2.8781,-2.8293,-2.8201,-2.8838,-2.7862,-2.6979,-2.6489,-2.5408,-2.4804,-2.4902,-2.4955,-2.5043,-2.5171,-2.5171,-2.5243,-2.5379,-2.5284,-2.5284,-2.5379,-2.5379,-2.5415,-2.5511,-2.5511,-2.5511,-2.5511,-2.5511,-2.5511,-2.5511,-2.5511,-2.5511,-2.5511,-2.5511,-2.5511,-2.5511,-2.5511,-2.5511,-2.5492,-2.5499,-2.5499,-2.5565,-2.5885,-2.5989,-2.5938,-2.5687,-2.5602,-2.5609,-2.5595,-2.5601,-2.5601,-2.5601,-2.5601,-2.5607,-2.5609,-2.56,-2.5609,-2.5634,-2.5631,-2.5641,-2.5683,-2.5701,-2.5699,-2.5709,-2.5707,-2.5395,-2.4514,0.0,-2.389,0.0,0.0,-2.2138,-2.159,-2.1278,-2.1082,0.0,0.0,0.0,0.0,-2.1609,-2.2019,-2.2272,-2.3132,-2.3854,-2.4399,-2.4184,-2.4341,-2.4885,-2.4341,-2.4477,-2.5219,-2.5551,-2.6293,-2.7268,-2.6175,-2.6019,-2.6488,-2.6273,-2.6507,-2.7075,-2.7719,-2.8637,-2.963,-2.9943,-3.0587,-3.1485,-3.3347,-3.3911,-3.3893,-3.2237,-3.1543,-3.0885,-2.987,-2.9719,-2.9419,-2.863,-2.8234,-2.7857,-2.7353,-2.7257,-2.7859,-2.9419,-2.8048,-2.7127,-2.7144,-2.574,-2.4929,-2.4929,-2.5056,-2.5171,-2.5313,-2.5313,-2.5379,-2.5511,-2.5511,-2.5511,-2.5511,-2.5511,-2.5511,-2.5511,-2.5511,-2.5511,-2.5511,-2.5511,-2.5511,-2.5511,-2.5511,-2.5511,-2.5511,-2.5511,-2.5511,-2.5511,-2.5492,-2.5492,-2.5492,-2.5495,-2.5541,-2.5723,-2.654,-2.6845,-2.6748,-2.5991,-2.5725,-2.5698,-2.5698,-2.5659,-2.5601,-2.5601,-2.5601,-2.5604,-2.5593,-2.5609,-2.5629,-2.5683,-2.5703,-2.5702,-2.5691,-2.5707,-2.5707,-2.5707,-2.5707,-2.5414,-2.4592,-2.4495,-2.4163,-2.3283,-2.3189,-2.3173,-2.3114,-2.241,-2.198,0.0,0.0,0.0,0.0,-2.2076,-2.2428,-2.3166,-2.4046,-2.4495,-2.4495,-2.5297,-2.5707,-2.5707,-2.5824,-2.5453,-2.469,-2.5512,-2.5941,-2.6039,-2.5805,-2.5765,-2.5922,-2.6624,-2.6978,-2.7251,-2.8871,-2.9572,-2.9767,-3.0528,-3.1309,-3.2148,-3.2773,-3.2534,-3.1934,-3.072,-3.0521,-3.0405,-3.0064,-2.9969,-2.9848,-2.9639,-2.8941,-2.8403,-2.8288,-2.7812,-2.7676,-2.8061,-2.7028,-2.6389,-2.6502,-2.5603,-2.5103,-2.5212,-2.5233,-2.5322,-2.5459,-2.5459,-2.5468,-2.5511,-2.5511,-2.5511,-2.5511,-2.5511,-2.5511,-2.5511,-2.5511,-2.5511,-2.5511,-2.5511,-2.5511,-2.5511,-2.5511,-2.5511,-2.5511,-2.5511,-2.5511,-2.5492,-2.5507,-2.5488,-2.5495,-2.5498,-2.5931,-2.6539,-2.6741,-2.7272,-2.7757,-2.755,-2.7071,-2.6592,-2.6592,-2.6106,-2.5601,-2.5601,-2.5595,-2.5598,-2.5595,-2.5633,-2.5681,-2.5703,-2.57,-2.5693,-2.5707,-2.5707,-2.5707,-2.5707,-2.5707,-2.5629,-2.5414,-2.5395,-2.5063,-2.4202,-2.4085,-2.3833,-2.3168,-2.2933,-2.2818,-2.2821,0.0,-2.3113,-2.3773,-2.3812,-2.389,-2.4085,-2.4944,-2.5395,-2.5395,-2.5609,-2.5707,-2.5726,-2.7054,-2.7581,-2.7386,-2.7581,-2.8381,-2.9455,-2.6839,-2.6449,-2.76,-2.6468,-2.678,-2.803,-2.8459,-2.9396,-3.0548,-3.0723,-3.0938,-3.1328,-3.3013,-3.2953,-3.2522,-3.1119,-3.0625,-3.0359,-3.0099,-3.0056,-3.0041,-3.0041,-2.9497,-2.8589,-2.7203,-2.6715,-2.6496,-2.6496,-2.632,-2.6224,-2.6301,-2.5608,-2.5214,-2.5303,-2.5351,-2.5443,-2.5511,-2.5511,-2.5511,-2.5511,-2.5511,-2.5511,-2.5511,-2.5511,-2.5511,-2.5511,-2.5511,-2.5511,-2.5511,-2.5511,-2.5511,-2.5511,-2.5511,-2.5492,-2.5499,-2.5499,-2.5507,-2.5503,-2.549,-2.5769,-2.6098,-2.6081,-2.6669,-2.7464,-2.7854,-2.8333,-2.8804,-2.918,-2.8149,-2.6904,-2.6904,-2.6262,-2.5695,-2.6085,-2.6197,-2.62,-2.6223,-2.5956,-2.5703,-2.5701,-2.5694,-2.5707,-2.5707,-2.5707,-2.5707,-2.5707,-2.5707,-2.5707,-2.5707,-2.5707,-2.5512,-2.5043,-2.4983,-2.4807,-2.4339,-2.3929,-2.3695,-2.3698,-2.3698,-2.4067,-2.4946,-2.5375,-2.559,-2.559,-2.6058,-2.6293,-2.6293,-2.6293,-2.6293,-2.6312,-2.7249,-2.7717,-2.7717,-2.7717,-2.8205,-2.8986,-2.7522,-2.719,-2.7698,-2.7542,-2.7815,-2.8381,-2.9142,-3.0001,-3.086,-3.125,-3.1641,-3.2187,-3.3337,-3.3808,-3.3809,-3.2023,-3.1086,-3.0479,-3.0147,-3.0142,-3.0177,-3.0177,-2.9756,-2.8423,-2.5748,-2.533,-2.5244,-2.5244,-2.5814,-2.6171,-2.6171,-2.5657,-2.5332,-2.5332,-2.5451,-2.5511,-2.5511,-2.5511,-2.5511,-2.5511,-2.5511,-2.5511,-2.5511,-2.5511,-2.5511,-2.5511,-2.5492,-2.5492,-2.5492,-2.5499,-2.5499,-2.5499,-2.5499,-2.5507,-2.5503,-2.5503,-2.5498,-2.5499,-2.5518,-2.6061,-2.6798,-2.6799,-2.7472,-2.8437,-2.9188,-2.9547,-2.9823,-3.0501,-2.9082,-2.7296,-2.7289,-2.6666,-2.6138,-2.6767,-2.6923,-2.6927,-2.6992,-2.6328,-2.5702,-2.5691,-2.5707,-2.5707,-2.5707,-2.5707,-2.5707,-2.5707,-2.5707,-2.5707,-2.5707,-2.5707,-2.5707,-2.5707,-2.5707,-2.5707,-2.5707,-2.516,-2.4788,-2.4788,-2.4905,-2.5317,-2.6058,-2.678,-2.7268,-2.7386,-2.7251,-2.7192,-2.7192,-2.721,-2.721,-2.7192,-2.7192,-2.7192,-2.7192,-2.7056,-2.7075,-2.7212,-2.7698,-2.7639,-2.7288,-2.8518,-2.8791,-2.8613,-2.9901,-3.0584,-3.0919,-3.1777,-3.2578,-3.3358,-3.2455,-3.2937,-3.2791,-3.109,-3.0695,-3.0588,-3.0519,-3.0519,-3.051,-3.051,-2.9206,-2.7845,-2.6768,-2.5928,-2.544,-2.544,-2.5567,-2.5616,-2.5616,-2.5537,-2.5468,-2.5468,-2.5484,-2.5511,-2.5511,-2.5511,-2.5511,-2.5511,-2.5511,-2.5511,-2.5511,-2.5511,-2.5511,-2.5511,-2.5507,-2.5495,-2.5495,-2.5498,-2.5505,-2.5505,-2.5505,-2.5505,-2.5511,-2.5511,-2.5492,-2.5518,-2.5551,-2.612,-2.6806,-2.6877,-2.7949,-2.9314,-2.943,-3.0006,-3.0618,-3.0755,-2.999,-2.9099,-2.9107,-2.8461,-2.7666,-2.7128,-2.6972,-2.6992,-2.7004,-2.6337,-2.5691,-2.5707,-2.5707,-2.5707,-2.5707,-2.5707,-2.5707,-2.5707,-2.5707,-2.5707,-2.5707,-2.5707,-2.5707,-2.5707,-2.5707,-2.5707,-2.5707,-2.6234,-2.6605,-2.6605,-2.727,-2.7759,-2.7895,-2.803,-2.8437,-2.9179,-2.8481,-2.811,-2.8108,-2.8108,-2.8108,-2.8108,-2.8108,-2.8108,-2.8069,-2.7347,-2.7405,-2.803,-2.6683,-2.6854,-2.8001,-2.6793,-2.7496,-2.9269,-2.8842,-2.9547,-3.0919,-3.1777,-3.2187,-3.2539,-3.1536,-3.1584,-3.1507,-3.0733,-3.0598,-3.0598,-3.0598,-2.9805,-2.9205,-2.9205,-2.7716,-2.6511,-2.6169,-2.576,-2.5511,-2.5511,-2.5511,-2.5511,-2.5511,-2.5511,-2.5511,-2.5511,-2.5511,-2.5511,-2.5511,-2.5499,-2.5507,-2.5507,-2.5503,-2.5503,-2.5503,-2.5503,-2.5503,-2.551,-2.5498,-2.5498,-2.5498,-2.5492,-2.5499,-2.5499,-2.5499,-2.5518,-2.5551,-2.5551,-2.5556,-2.5551,-2.5595,-2.6145,-2.6922,-2.7437,-2.8447,-2.9572,-3.006,-3.0489,-3.0796,-3.0796,-3.0175,-2.9414,-2.8964,-2.8906,-2.8749,-2.7906,-2.7709,-2.7571,-2.7116,-2.6332,-2.5707,-2.5707,-2.5707,-2.5707,-2.5707,-2.5707,-2.5707,-2.5707,-2.5707,-2.5707,-2.5707,-2.6097,-2.639,-2.639,-2.6802,-2.7095,-2.7095,-2.7466,-2.77,-2.7696,-2.8069,-2.8498,-2.8986,-2.9003,-2.9374,-3.0214,-2.9435,-2.9006,-2.9003,-2.9006,-2.9006,-2.8986,-2.8518,-2.8557,-2.8947,-2.7602,-2.7483,-2.8264,-2.7444,-2.7557,-2.8271,-2.7947,-2.8474,-2.9503,-2.9606,-3.0409,-3.1602,-3.248,-3.3105,-3.3671,-3.0849,-3.0598,-3.0346,-2.9553,-2.9747,-3.0133,-3.054,-2.9108,-2.786,-2.7464,-2.6536,-2.5782,-2.553,-2.5511,-2.5511,-2.5511,-2.5511,-2.5511,-2.5511,-2.5492,-2.5492,-2.5511,-2.5492,-2.5499,-2.5499,-2.5495,-2.5503,-2.5503,-2.5505,-2.5499,-2.5499,-2.5499,-2.5499,-2.5499,-2.5518,-2.5518,-2.5525,-2.5525,-2.5511,-2.5511,-2.5529,-2.556,-2.5609,-2.5609,-2.56,-2.5597,-2.5597,-2.6158,-2.6993,-2.7676,-2.8617,-2.9617,-3.0281,-3.0643,-3.08,-3.08,-3.0331,-2.9548,-2.8327,-2.8928,-2.9572,-2.8303,-2.8147,-2.8069,-2.7192,-2.6332,-2.5707,-2.5707,-2.5707,-2.5707,-2.5707,-2.5707,-2.5707,-2.5707,-2.5707,-2.5765,-2.5961,-2.6585,-2.7075,-2.7288,-2.7893,-2.8305,-2.8305,-2.8481,-2.8596,-2.8594,-2.8786,-2.9179,-2.9843,-2.9882,-3.0155,-3.0782,-3.0194,-2.9882,-2.9882,-2.9884,-2.9884,-2.9865,-2.9006,-2.885,-2.924,-2.77,-2.7366,-2.8008,-2.8008,-2.8218,-2.8619,-2.9096,-2.9508,-2.9874,-3.0543,-3.1328,-3.2226,-3.3319,-3.4139,-3.4822,-3.0617,-3.0598,-2.9592,-2.6439,-2.7155,-2.8741,-3.0346,-2.9108,-2.7445,-2.5898,-2.6497,-2.6671,-2.5627,-2.5511,-2.5511,-2.5511,-2.5511,-2.5511,-2.5511,-2.5507,-2.5507,-2.5511,-2.5507,-2.5495,-2.5495,-2.5498,-2.5492,-2.5492,-2.5492,-2.5499,-2.5499,-2.5499,-2.5499,-2.5499,-2.5551,-2.5596,-2.5583,-2.5591,-2.5593,-2.5598,-2.5593,-2.5603,-2.5603,-2.5603,-2.5605,-2.5607,-2.5607,-2.6154,-2.6915,-2.6974,-2.8118,-2.9512,-2.959,-3.0154,-3.0804,-3.0804,-3.0745,-3.0179,-2.7759,-2.8869,-3.0138,-2.7698,-2.7698,-2.8069,-2.7192,-2.6332,-2.5707,-2.5707,-2.5707,-2.5707,-2.5707,-2.5707,-2.5707,-2.5707,-2.5707,-2.598,-2.6782,-2.6958,-2.7308,-2.8106,-2.8259,-2.8298,-2.8298,-2.9023,-2.9491,-2.9491,-3.0194,-3.0645,-3.0704,-3.0704,-3.0743,-3.0801,-3.0743,-3.0704,-3.0704,-3.0704,-3.0704,-3.0704,-2.9884,-2.9103,-2.8362,-2.7425,-2.7032,-2.7103,-2.7103,-2.7975,-2.9351,-2.8672,-2.9302,-3.0716,-3.0774,-3.1323,-3.2304,-3.3983,-3.4647,-3.4822,-3.0598,-3.0598,-2.9843,-2.7464,-2.671,-2.7155,-2.9224,-2.7774,-2.6478,-2.6555,-2.6323,-2.5975,-2.555,-2.5511,-2.5511,-2.5511,-2.5499,-2.5507,-2.5507,-2.551,-2.5498,-2.549,-2.5498,-2.5505,-2.5505,-2.5538,-2.557,-2.557,-2.5557,-2.5562,-2.5561,-2.5561,-2.5561,-2.5566,-2.559,-2.559,-2.5593,-2.5609,-2.5595,-2.5595,-2.5605,-2.5609,-2.5609,-2.5609,-2.5636,-2.5662,-2.5662,-2.5879,-2.6328,-2.7401,-2.7849,-2.8237,-2.9817,-3.0183,-3.006,-3.006,-2.9669,-2.8928,-2.7407,-2.8498,-2.9552,-2.7505,-2.7251,-2.7268,-2.639,-2.6351,-2.6507,-2.6507,-2.6937,-2.7308,-2.7308,-2.7308,-2.7308,-2.731,-2.731,-2.7427,-2.7759,-2.8264,-2.873,-2.9062,-2.955,-2.9843,-2.9843,-3.0155,-3.0567,-3.1114,-3.0938,-3.1036,-3.1582,-3.1094,-3.0801,-3.0801,-3.0801,-3.0801,-3.0801,-3.0801,-3.0801,-3.0782,-2.9982,-2.9689,-2.9806,-2.8435,-2.8081,-2.8527,-2.7975,-2.8418,-2.9487,-2.9162,-2.9734,-3.0852,-3.1401,-3.2146,-3.3046,-3.4256,-3.5037,-3.5542,-3.0598,-2.9747,-2.8954,-2.8838,-2.7271,-2.6439,-2.7658,-2.6497,-2.579,-2.6595,-2.5998,-2.5507,-2.5495,-2.5495,-2.5488,-2.5488,-2.5495,-2.5503,-2.551,-2.5512,-2.5525,-2.5499,-2.5518,-2.5531,-2.5537,-2.5587,-2.5604,-2.56,-2.5591,-2.5593,-2.56,-2.56,-2.5593,-2.5609,-2.5609,-2.5609,-2.5609,-2.5616,-2.5637,-2.5637,-2.5622,-2.5623,-2.5623,-2.5623,-2.5664,-2.5702,-2.5702,-2.5697,-2.5883,-2.7073,-2.7268,-2.7349,-2.9377,-3.0001,-2.9923,-2.9669,-2.9357,-2.8908,-2.8049,-2.8695,-2.9125,-2.7095,-2.6802,-2.6841,-2.6234,-2.6566,-2.7075,-2.7347,-2.7874,-2.8303,-2.8303,-2.8303,-2.8303,-2.8305,-2.8305,-2.8401,-2.8676,-2.922,-2.9687,-2.994,-3.0467,-3.0801,-3.0801,-3.1055,-3.1348,-3.166,-3.1385,-3.1346,-3.166,-3.1114,-3.0801,-3.0801,-3.0801,-3.0801,-3.0801,-3.0801,-3.0801,-3.0782,-3.0235,-3.0138,-3.0372,-2.9213,-2.8973,-2.9478,-2.8867,-2.9094,-2.9913,-2.99,-3.0417,-3.1282,-3.2163,-3.3044,-3.3905,-3.4783,-3.5486,-3.5991,-3.0598,-2.7851,-2.6575,-2.9979,-2.8683,-2.6807,-2.5666,-2.5511,-2.5522,-2.5589,-2.5538,-2.5498,-2.5506,-2.5499,-2.5518,-2.5518,-2.5505,-2.5517,-2.5518,-2.5571,-2.5581,-2.5499,-2.5551,-2.5593,-2.5604,-2.5598,-2.56,-2.5609,-2.5609,-2.5609,-2.5609,-2.5609,-2.5609,-2.5609,-2.5609,-2.5609,-2.5611,-2.5663,-2.5703,-2.5703,-2.5694,-2.5707,-2.5707,-2.5707,-2.5707,-2.5707,-2.5707,-2.5707,-2.5707,-2.5707,-2.6273,-2.7134,-2.801,-2.9435,-3.0626,-2.9826,-3.0157,-3.0606,-2.9806,-2.9593,-2.8967,-2.6371,-2.6371,-2.7017,-2.7017,-2.7017,-2.727,-2.8127,-2.8323,-2.8323,-2.8323,-2.8323,-2.8323,-2.8323,-2.834,-2.863,-2.9491,-2.9608,-2.9901,-3.0704,-3.0801,-3.0801,-3.0801,-3.1582,-3.1738,-3.088,-3.1636,-3.1733,-3.086,-3.0801,-3.0801,-3.0801,-3.0801,-3.0801,-3.0801,-3.0801,-3.0801,-3.0801,-3.0801,-3.0372,-2.9611,-2.9545,-2.9517,-2.9507,-2.9519,-3.0002,-3.0802,-3.0802,-3.132,-3.2196,-3.3077,-3.3939,-3.4803,-3.5681,-3.5991,-3.5991,-3.0598,-2.7851,-2.582,-2.6845,-2.6459,-2.5898,-2.555,-2.5511,-2.5519,-2.5522,-2.6241,-2.643,-2.5583,-2.6042,-2.6411,-2.6401,-2.6451,-2.6476,-2.6474,-2.5921,-2.559,-2.5577,-2.56,-2.5606,-2.5595,-2.5598,-2.5603,-2.5609,-2.5609,-2.5616,-2.5662,-2.5662,-2.5664,-2.5662,-2.5662,-2.5662,-2.5661,-2.5697,-2.5696,-2.5694,-2.5709,-2.5707,-2.5707,-2.5707,-2.5707,-2.5707,-2.5707,-2.5707,-2.5785,-2.641,-2.6371,-2.6234,-2.7112,-2.8147,-2.9006,-2.8752,-2.8869,-2.8986,-2.8752,-2.8693,-2.8498,-2.7717,-2.7717,-2.7913,-2.7913,-2.8381,-2.891,-2.9162,-2.9669,-3.006,-3.006,-3.0548,-3.0762,-3.0157,-3.0567,-3.0841,-3.0487,-3.0448,-3.0526,-3.0762,-3.0801,-3.0801,-3.0801,-3.1582,-3.2246,-3.2595,-3.3437,-3.328,-3.1797,-3.1719,-3.1426,-3.0821,-3.0801,-3.0801,-3.0801,-3.0801,-3.0796,-3.0804,-3.0791,-3.0674,-3.0437,-3.0423,-3.042,-3.0416,-3.0403,-3.0915,-3.1711,-3.1711,-3.2228,-3.3102,-3.3961,-3.4471,-3.4803,-3.5681,-3.5991,-3.5991,-3.0327,-2.8934,-2.7097,-2.5743,-2.5511,-2.5499,-2.5529,-2.5909,-2.6018,-2.5594,-2.6748,-2.7426,-2.6937,-2.6865,-2.6982,-2.7312,-2.7082,-2.6741,-2.641,-2.5929,-2.5638,-2.5636,-2.5642,-2.5643,-2.5638,-2.5638,-2.5641,-2.5644,-2.5644,-2.5664,-2.5701,-2.5701,-2.5697,-2.5707,-2.5707,-2.5707,-2.5707,-2.5707,-2.5707,-2.5707,-2.5707,-2.5707,-2.5707,-2.5707,-2.5707,-2.5707,-2.5707,-2.5707,-2.5785,-2.6312,-2.6585,-2.6702,-2.6546,-2.7776,-2.9162,-2.8498,-2.8771,-2.9298,-2.9298,-2.9298,-2.9298,-2.9298,-2.8791,-2.8381,-2.8732,-2.922,-2.9786,-3.045,-3.0977,-3.1426,-3.1758,-3.2265,-3.2324,-3.1463,-3.1758,-3.1797,-3.0919,-3.1094,-3.1309,-3.1309,-3.1309,-3.1446,-3.1797,-3.2304,-3.2988,-3.3844,-3.4081,-3.3729,-3.2673,-3.2285,-3.1856,-3.1328,-3.0977,-3.0801,-3.0801,-3.1136,-3.1129,-3.0801,-3.1152,-3.1305,-3.1305,-3.1313,-3.1504,-3.1811,-3.1451,-3.1807,-3.2619,-3.2604,-3.3122,-3.3975,-3.4482,-3.4914,-3.5285,-3.5809,-3.6001,-3.6001,-2.9921,-3.0346,-2.9263,-2.6459,-2.5836,-2.5757,-2.5821,-2.6528,-2.6824,-2.6139,-2.7308,-2.8381,-2.8873,-2.7791,-2.7331,-2.8135,-2.7549,-2.6807,-2.6005,-2.5878,-2.582,-2.582,-2.5737,-2.5696,-2.5703,-2.5703,-2.5701,-2.5707,-2.5707,-2.5707,-2.5707,-2.5707,-2.5707,-2.5707,-2.5707,-2.5707,-2.5707,-2.5707,-2.5707,-2.5707,-2.5707,-2.5707,-2.5707,-2.5707,-2.5707,-2.5707,-2.5707,-2.5707,-2.5707,-2.5707,-2.682,-2.7913,-2.6312,-2.8069,-3.0392,-2.8869,-2.9552,-3.0801,-3.0801,-3.086,-3.0919,-3.0919,-2.9826,-2.8928,-2.9552,-2.9708,-3.0157,-3.1777,-3.209,-3.2363,-3.3241,-3.3456,-3.3222,-3.236,-3.2285,-3.2031,-3.1153,-3.1719,-3.2226,-3.2226,-3.2226,-3.2539,-3.3322,-3.3478,-3.3886,-3.4742,-3.4078,-3.3607,-3.3529,-3.2751,-3.2265,-3.209,-3.1328,-3.088,-3.0801,-3.1655,-3.1666,-3.0807,-3.1765,-3.2171,-3.2101,-3.2186,-3.2649,-3.3351,-3.2562,-3.2718,-3.3517,-3.3531,-3.4027,-3.4819,-3.4815,-3.5311,-3.5997,-3.6009,-3.6005,-3.6005,-2.9921,-2.8431,-2.7213,-2.9166,-2.845,-2.762,-2.7628,-2.6669,-2.6826,-2.9279,-2.9188,-2.8766,-2.8474,-2.8122,-2.7998,-2.8183,-2.8709,-2.894,-2.8744,-2.7472,-2.6729,-2.6711,-2.6062,-2.5709,-2.5693,-2.5693,-2.5691,-2.5707,-2.5707,-2.5707,-2.5707,-2.5707,-2.5707,-2.5707,-2.5707,-2.5707,-2.5707,-2.5707,-2.5707,-2.5707,-2.5707,-2.5707,-2.5707,-2.5707,-2.5707,-2.5707,-2.5707,-2.5707,-2.5707,-2.5707,-2.639,-2.7212,-2.6841,-2.8166,-2.9786,-2.9416,-3.0021,-3.0801,-3.0801,-3.1309,-3.1816,-3.1816,-3.2051,-3.1992,-3.0801,-3.0548,-3.0841,-3.1875,-3.209,-3.2363,-3.3244,-3.3964,-3.412,-3.3261,-3.3693,-3.3829,-3.2951,-3.301,-3.3124,-3.3122,-3.3122,-3.318,-3.338,-3.4022,-3.4781,-3.5639,-3.5542,-3.5132,-3.4449,-3.4234,-3.3512,-3.2148,-3.1914,-3.1485,-3.0801,-3.1655,-3.1661,-3.081,-3.2372,-3.2757,-3.2119,-3.2815,-3.3225,-3.338,-3.3205,-3.3619,-3.4428,-3.4428,-3.4928,-3.5724,-3.5717,-3.5834,-3.5997,-3.6009,-3.6005,-3.5986,-2.7813,-2.6729,-2.6604,-3.0092,-3.0007,-2.9158,-2.8323,-2.8134,-2.8123,-2.8255,-2.923,-2.949,-2.8424,-2.8005,-2.7773,-2.7633,-2.8075,-2.8537,-2.8947,-2.7347,-2.6566,-2.6976,-2.6566,-2.6136,-2.5707,-2.6117,-2.6117,-2.5707,-2.6117,-2.6117,-2.5707,-2.6136,-2.6097,-2.5707,-2.5707,-2.5707,-2.5707,-2.5707,-2.5707,-2.5707,-2.5707,-2.5707,-2.5707,-2.5707,-2.5707,-2.5707,-2.5707,-2.5707,-2.5765,-2.6175,-2.6898,-2.762,-2.762,-2.8791,-3.0099,-2.9708,-3.0177,-3.0801,-3.0801,-3.1446,-3.209,-3.209,-3.2753,-3.3163,-3.2246,-3.2051,-3.2285,-3.3163,-3.3339,-3.3612,-3.4471,-3.5018,-3.5037,-3.4159,-3.4393,-3.4393,-3.3515,-3.3768,-3.4022,-3.4019,-3.4017,-3.4019,-3.4022,-3.5174,-3.613,-3.6599,-3.6618,-3.6423,-3.5952,-3.5152,-3.4273,-3.3378,-3.2949,-3.2497,-3.204,-3.2892,-3.2903,-3.2049,-3.34,-3.3765,-3.3317,-3.3765,-3.4194,-3.4564,-3.4155,-3.4472,-3.5276,-3.5266,-3.5548,-3.5947,-3.5942,-3.5942,-3.5947,-3.5953,-3.5948,-3.5948,-2.5557,-2.5531,-2.6554,-2.9782,-3.0355,-2.9973,-2.8818,-2.9851,-2.9767,-2.6864,-2.8505,-2.9393,-2.8014,-2.7542,-2.7249,-2.7017,-2.727,-2.7756,-2.8479,-2.7034,-2.6468,-2.7188,-2.6937,-2.6449,-2.5726,-2.641,-2.641,-2.5707,-2.6566,-2.6546,-2.5726,-2.6585,-2.6527,-2.5707,-2.5707,-2.5707,-2.5707,-2.5707,-2.5707,-2.5707,-2.5707,-2.5707,-2.5707,-2.5707,-2.5707,-2.5707,-2.5707,-2.5805,-2.6039,-2.6763,-2.7678,-2.8518,-2.8518,-2.9572,-3.0665,-3.0001,-3.0274,-3.0841,-3.0977,-3.166,-3.2363,-3.25,-3.3202,-3.3846,-3.3846,-3.3612,-3.3651,-3.451,-3.4705,-3.4979,-3.5837,-3.5991,-3.5757,-3.5034,-3.4917,-3.4664,-3.3958,-3.4468,-3.4917,-3.4917,-3.4917,-3.4917,-3.4917,-3.6364,-3.7301,-3.7301,-3.7301,-3.7301,-3.7301,-3.5796,-3.4859,-3.4703,-3.3997,-3.3558,-3.3403,-3.4261,-3.4335,-3.3619,-3.4486,-3.4798,-3.4603,-3.4739,-3.5226,-3.585,-3.5148,-3.5226,-3.5889,-3.5899,-3.5909,-3.5909,-3.5904,-3.5909,-3.5929,-3.607,-3.6025,-3.5928,-2.5785,-2.562,-2.6267,-2.8144,-2.8566,-2.9038,-3.0189,-3.0605,-3.0636,-3.017,-2.7923,-2.63,-2.6078,-2.6644,-2.7036,-2.6997,-2.8383,-2.9301,-2.9416,-2.8498,-2.7991,-2.8127,-2.6683,-2.5824,-2.5707,-2.5824,-2.5824,-2.5707,-2.6566,-2.6546,-2.5726,-2.6585,-2.6527,-2.5707,-2.5707,-2.5707,-2.5707,-2.5707,-2.5707,-2.5707,-2.5707,-2.5707,-2.5707,-2.5707,-2.5707,-2.5707,-2.5707,-2.6175,-2.6841,-2.6958,-2.809,-2.9416,-2.9416,-3.006,-3.0782,-3.0665,-3.0704,-3.0958,-3.1719,-3.2558,-3.3417,-3.4159,-3.4998,-3.5639,-3.5639,-3.4488,-3.3651,-3.451,-3.4705,-3.4979,-3.5837,-3.5991,-3.5952,-3.5835,-3.5815,-3.5776,-3.5659,-3.5757,-3.5815,-3.5815,-3.5815,-3.5815,-3.5815,-3.6716,-3.7301,-3.7298,-3.7298,-3.7298,-3.7301,-3.6364,-3.5483,-3.4722,-3.4593,-3.416,-3.3409,-3.4252,-3.4642,-3.4525,-3.5343,-3.5343,-3.4622,-3.5382,-3.5791,-3.5889,-3.5772,-3.5791,-3.5908,-3.5894,-3.5899,-3.5909,-3.5899,-3.5899,-3.5987,-3.6752,-3.6551,-3.6006,-2.7147,-2.7108,-2.7672,-2.9312,-2.9658,-2.9933,-3.0644,-3.0775,-3.0801,-3.0801,-2.7813,-2.6074,-2.7052,-2.6624,-2.6273,-2.6273,-2.6976,-2.7835,-2.881,-2.76,-2.7054,-2.7542,-2.6839,-2.6195,-2.5707,-2.6175,-2.6195,-2.5707,-2.6566,-2.6546,-2.5726,-2.6585,-2.6527,-2.5707,-2.5707,-2.5707,-2.5707,-2.5707,-2.5707,-2.5707,-2.5707,-2.5707,-2.5707,-2.5707,-2.5707,-2.5765,-2.6253,-2.6665,-2.7153,-2.8129,-2.8969,-2.9669,-3.0138,-3.0509,-3.0801,-3.0801,-3.1133,-3.1602,-3.1992,-3.3085,-3.4217,-3.4608,-3.5369,-3.5991,-3.5991,-3.5405,-3.4959,-3.5349,-3.5428,-3.5545,-3.5932,-3.5991,-3.5991,-3.5991,-3.5991,-3.5991,-3.5991,-3.5991,-3.5991,-3.5991,-3.5994,-3.6185,-3.6674,-3.7477,-3.816,-3.8665,-3.8274,-3.8021,-3.8024,-3.6735,-3.5815,-3.5444,-3.5427,-3.5226,-3.4792,-3.5182,-3.5616,-3.6103,-3.6454,-3.6162,-3.5343,-3.5713,-3.5908,-3.5928,-3.6415,-3.6356,-3.5947,-3.6434,-3.6342,-3.5899,-3.5894,-3.5894,-3.5958,-3.6323,-3.622,-3.6025]}]]